ECMWFNIL_700_spd_000.txt.gz
Wind_Speed
21 21 20 20 19 19 18 16 14 13 11 10 9 8 7 6 5 6 7 8 9 11 12 13 14 15 15 16 15 12 11 11 12 11 11 10 9 9 9 9 10 11
21 21 21 22 21 20 18 17 16 15 14 13 12 10 9 7 6 7 8 9 10 12 14 15 16 16 16 16 16 14 13 12 13 13 13 11 10 11 11 11 12 11
23 23 22 23 23 22 21 20 18 17 17 16 14 12 10 9 8 8 9 10 11 13 14 16 17 18 18 18 16 15 14 14 14 14 13 13 12 11 12 12 12 12
24 24 24 26 27 26 26 24 23 21 20 19 16 14 12 11 10 10 10 10 11 13 14 16 17 19 20 20 18 17 16 15 15 15 14 14 13 13 13 13 13 13
26 26 28 30 31 30 30 29 27 25 24 22 19 16 15 13 12 11 10 10 11 13 15 16 17 19 21 21 20 18 17 17 17 17 16 15 14 14 14 15 15 14
28 29 31 32 33 34 34 33 31 29 27 24 21 19 17 14 14 13 12 13 14 14 15 17 18 19 20 21 21 20 18 17 17 18 17 16 15 15 15 16 16 16
29 30 32 33 34 35 36 35 34 32 29 27 25 22 19 17 16 16 18 20 19 17 16 18 18 19 20 21 21 21 20 18 17 17 17 16 16 16 17 17 17 16
28 30 33 34 35 37 38 37 36 35 33 30 29 26 24 22 20 20 23 25 22 18 19 20 20 20 21 21 21 21 21 19 17 17 17 17 17 17 17 17 16 15
28 30 33 35 36 37 38 37 36 36 35 35 35 30 27 25 23 23 26 29 26 22 22 25 26 25 24 23 22 21 22 20 18 17 17 17 17 18 17 16 15 13
28 29 31 34 35 37 38 36 34 36 37 40 40 32 27 28 28 28 30 31 29 26 26 28 29 30 30 28 24 22 22 21 19 18 18 17 17 18 17 15 14 12
29 31 32 35 36 38 40 36 32 34 37 41 43 39 35 35 34 35 36 36 34 31 30 30 30 31 34 32 27 23 22 21 19 18 18 17 17 17 16 15 13 12
34 37 38 40 41 41 45 41 32 28 28 31 38 43 40 37 38 40 41 42 43 42 40 37 35 34 35 33 29 24 22 21 19 19 18 17 16 15 15 15 14 14
37 37 37 40 40 42 48 48 40 33 27 26 26 29 28 25 28 31 30 29 29 31 33 35 36 37 36 34 31 26 22 21 20 19 19 18 17 16 16 17 17 17
36 33 32 35 38 42 48 50 47 42 32 25 24 24 22 21 24 27 25 21 17 16 19 24 30 34 33 34 34 30 25 23 22 21 20 20 19 18 19 20 18 18
34 34 34 33 36 42 45 43 40 36 30 29 31 30 26 24 25 25 23 22 21 19 19 23 29 32 31 33 35 33 28 25 24 23 22 22 22 21 22 22 21 20
37 39 42 39 37 40 39 34 32 29 28 30 31 27 23 20 17 17 18 22 25 26 24 27 32 34 32 33 35 34 30 27 26 26 25 25 25 25 25 24 23 23
35 37 39 37 33 33 32 29 27 26 25 26 23 19 17 15 13 14 17 22 27 29 29 30 33 35 34 34 36 35 32 30 29 28 28 28 28 27 27 26 26 26
30 31 31 31 29 29 30 29 27 25 24 25 23 20 19 17 14 14 16 20 24 28 32 32 32 34 36 37 37 36 35 35 33 31 31 29 29 29 28 27 27 27
31 32 31 31 30 29 29 28 26 25 24 24 23 22 22 20 17 15 17 20 23 26 31 34 34 34 35 36 37 37 37 38 37 34 33 29 28 29 28 28 29 29
32 33 33 32 29 27 25 24 22 21 20 20 19 20 21 20 18 17 18 21 23 25 30 35 37 38 36 35 36 36 36 39 39 35 33 31 29 29 28 28 31 32
32 32 30 28 24 22 21 22 21 19 16 15 16 17 17 17 17 17 18 21 22 25 29 33 36 39 39 36 34 34 34 38 38 36 35 34 31 28 29 30 32 35
28 26 24 21 19 19 19 20 20 17 12 11 12 13 14 15 16 16 17 19 20 23 26 28 30 35 36 34 33 33 33 35 37 38 37 35 31 30 33 34 35 37
23 21 18 16 16 17 19 20 18 14 10 9 11 13 16 17 16 14 15 16 19 21 23 24 25 28 31 31 30 29 30 34 38 39 36 35 33 33 35 36 37 39
20 18 16 14 15 17 18 18 15 12 12 13 15 18 19 17 14 13 14 14 16 18 19 20 21 23 27 29 28 27 29 34 36 34 34 35 35 34 36 39 41 43
19 17 15 14 17 18 19 18 17 16 16 17 18 18 17 14 12 12 13 12 13 16 16 16 18 22 25 27 26 27 30 32 30 31 33 36 37 36 37 40 41 43
16 15 15 18 20 20 20 20 21 21 19 17 17 17 15 13 12 11 11 9 10 11 12 13 16 20 24 26 26 27 28 29 30 32 35 38 39 40 40 39 37 37

ECMWFNIL_700_spd_003.txt.gz
Wind_Speed
22 22 22 22 21 20 19 20 19 18 17 15 14 14 13 12 11 9 8 8 9 9 10 11 11 12 13 13 14 14 14 14 14 14 14 14 15 14 14 13 12 11
23 23 23 23 22 21 21 21 20 19 18 16 16 15 13 12 12 10 10 10 10 11 11 12 12 13 14 15 15 16 15 15 15 15 15 16 16 16 16 14 12 12
23 23 23 23 22 22 23 22 21 21 20 19 18 16 14 13 13 12 12 12 12 13 14 14 14 14 15 17 18 18 18 17 17 16 16 17 17 17 17 16 15 14
23 23 23 23 23 23 24 24 23 22 22 21 19 17 16 15 15 14 15 15 15 16 16 17 17 17 18 19 20 20 20 20 19 18 17 17 18 18 18 17 16 17
23 24 23 24 24 25 25 25 25 24 23 22 21 20 20 18 17 18 19 20 20 21 22 22 22 23 24 25 23 21 21 22 23 22 20 18 19 19 18 17 16 16
24 24 25 26 26 27 27 27 27 26 25 24 23 23 23 21 21 25 28 30 30 31 32 31 29 28 29 28 25 22 21 23 25 26 24 22 21 20 20 18 16 17
24 25 26 27 28 28 29 29 29 28 28 28 26 24 23 23 26 30 35 40 43 43 42 40 36 33 31 30 28 26 26 27 27 26 26 24 22 22 21 20 19 18
25 25 27 30 32 31 30 31 31 31 31 30 26 24 25 25 26 28 33 39 45 46 45 44 41 38 34 32 33 33 32 33 31 27 25 24 23 22 22 20 19 17
27 28 28 31 33 32 31 33 33 32 32 30 29 29 27 26 28 30 32 34 39 43 44 44 44 42 38 36 37 37 36 37 35 29 27 26 24 23 22 20 18 17
30 30 30 31 31 32 34 35 33 31 30 29 31 31 27 28 32 34 33 31 32 37 42 42 42 45 45 42 40 39 39 39 36 32 29 27 25 24 22 21 19 17
31 31 31 31 33 35 37 35 31 30 29 29 30 28 26 28 32 34 34 30 26 29 37 39 41 44 46 44 42 41 41 40 36 33 30 28 26 24 22 20 19 17
33 31 31 33 36 38 37 32 29 30 29 30 31 30 28 27 30 34 36 33 27 25 29 34 37 39 40 41 42 43 42 40 35 32 30 28 26 24 22 20 19 18
33 32 32 34 36 36 34 31 31 32 30 28 30 32 32 29 29 33 34 34 31 26 25 27 30 33 36 39 41 41 40 38 35 32 30 28 26 24 23 21 20 20
29 30 32 34 33 32 32 31 32 33 30 26 25 28 31 31 30 30 30 31 30 25 23 25 27 29 32 33 35 36 37 37 37 34 31 30 29 27 26 24 23 23
30 32 33 32 31 31 31 31 31 31 30 27 26 27 27 28 29 30 29 27 24 22 21 22 25 29 31 30 30 31 32 33 34 33 32 32 31 31 30 29 27 25
33 33 32 31 30 30 30 30 29 30 30 31 32 31 28 24 25 29 29 26 23 22 21 21 24 30 32 32 30 28 29 30 30 31 32 33 32 33 33 31 29 28
32 31 29 29 29 30 31 31 32 34 36 36 35 33 28 22 20 23 27 27 25 24 23 23 25 30 32 33 31 30 30 30 30 33 34 35 34 35 35 34 32 30
29 28 27 28 29 31 33 33 34 37 37 35 31 27 24 21 18 19 24 27 28 26 24 25 27 31 33 34 34 33 33 32 32 33 35 36 37 37 36 37 36 34
29 29 29 30 30 30 30 29 29 29 28 26 22 20 19 19 18 19 21 25 26 26 25 26 29 32 34 35 35 36 36 35 33 32 32 34 35 36 37 37 37 36
30 31 32 32 30 28 26 26 25 24 21 19 17 16 17 17 17 18 21 23 24 25 25 28 32 35 35 34 36 37 37 35 34 33 32 31 32 34 35 36 36 35
34 34 33 32 30 28 27 26 24 22 19 17 15 15 15 15 16 19 21 23 23 24 26 29 33 35 35 35 36 37 35 34 34 33 31 30 31 31 32 35 36 36
36 36 35 33 32 30 27 25 23 20 17 16 15 15 16 16 17 20 22 22 22 24 27 30 33 34 34 34 35 34 31 31 30 28 27 29 30 29 31 33 34 35
37 37 36 34 31 28 25 22 19 17 14 14 15 16 16 17 19 21 23 23 23 25 28 31 33 33 31 29 29 28 27 26 25 23 25 26 27 27 29 31 33 37
36 36 33 30 27 24 22 19 17 15 14 15 17 17 18 19 21 23 24 24 24 27 29 30 32 31 28 25 24 24 22 21 21 21 23 25 26 26 27 30 33 34
35 32 28 25 22 21 20 18 17 17 17 19 20 20 20 22 23 24 24 24 25 27 28 28 28 28 24 22 22 21 19 19 20 20 21 22 24 25 26 28 30 29
30 26 23 20 19 19 19 18 18 19 21 21 21 21 22 23 24 25 24 25 25 26 25 25 26 25 22 20 21 20 19 19 19 19 19 20 22 25 26 27 28 29

ECMWFNIL_700_spd_009.txt.gz
Wind_Speed
19 18 18 17 16 15 15 16 16 13 11 12 11 9 9 9 8 7 6 4 5 7 8 11 12 12 13 13 13 15 17 18 22 23 23 23 21 17 15 16 17 18
20 19 18 17 16 17 16 15 14 12 12 13 12 10 10 10 7 6 5 5 7 8 9 12 13 12 14 16 17 19 20 21 23 23 24 23 21 18 18 19 21 21
21 20 19 17 17 17 16 15 14 13 14 14 11 10 10 9 7 5 5 6 8 9 10 12 12 12 15 18 20 21 21 23 24 24 25 23 21 20 21 22 24 24
22 21 19 17 18 18 17 16 15 13 13 12 10 10 10 9 6 5 6 6 7 9 9 10 12 13 15 17 20 21 22 24 25 25 25 23 22 23 24 25 25 23
22 21 20 18 19 19 17 17 16 14 12 11 10 10 10 10 7 6 8 8 8 8 8 9 11 12 14 16 19 21 22 24 25 25 25 23 23 24 25 27 25 22
23 22 21 19 19 19 17 17 16 14 11 10 11 11 10 11 10 8 9 10 11 11 10 11 12 13 14 16 17 19 20 23 25 25 25 24 24 24 25 26 25 22
24 23 22 20 19 19 18 17 16 14 12 11 12 12 11 11 11 10 11 12 13 13 14 15 16 16 17 18 19 19 20 22 25 26 25 24 24 25 25 26 25 23
25 24 23 21 20 20 18 16 15 14 13 12 12 11 10 10 12 12 14 15 15 16 16 18 19 20 21 22 23 23 23 23 25 26 26 25 24 24 25 26 26 25
26 25 24 22 22 21 18 15 13 12 13 12 12 11 10 11 12 13 15 16 15 15 16 18 20 21 23 25 26 27 27 27 27 28 28 27 26 25 25 26 26 26
26 26 25 24 23 21 18 15 13 11 11 12 12 12 12 12 13 15 15 15 13 13 15 17 18 19 22 25 27 29 29 30 30 29 29 30 30 28 27 26 26 26
27 26 25 25 24 22 19 16 15 13 13 13 13 12 12 12 13 14 14 13 13 13 15 17 18 19 21 23 26 28 30 31 31 31 30 31 32 31 30 28 27 26
27 27 26 25 25 23 20 18 17 16 15 15 14 14 14 14 14 14 14 14 13 14 16 19 21 23 24 25 26 27 30 31 32 32 32 31 30 30 30 29 28 25
26 26 26 26 25 24 22 20 19 18 17 16 16 16 16 17 16 16 16 16 16 17 19 21 23 26 27 28 28 29 30 31 32 32 32 31 29 28 28 30 29 25
25 25 25 26 26 25 24 23 22 21 19 19 19 19 18 17 18 18 19 20 20 20 21 22 24 26 29 30 30 29 29 29 32 32 32 31 29 26 26 27 29 28
24 24 25 27 28 27 26 25 25 24 23 23 22 20 19 19 20 21 22 22 22 23 25 26 27 29 30 31 32 32 30 29 32 33 33 32 30 28 26 26 28 30
25 24 25 27 28 28 27 27 27 26 26 24 23 22 21 21 22 23 24 25 25 26 27 28 29 31 33 34 35 36 35 33 34 35 34 33 31 30 29 28 28 30
26 25 26 28 28 28 28 28 27 27 26 25 24 22 22 22 23 24 25 26 27 28 29 30 32 33 34 36 37 37 34 33 35 36 35 34 33 32 32 32 30 31
27 27 27 28 29 29 28 28 27 27 27 26 24 23 23 24 23 23 24 25 27 29 30 31 31 33 35 36 39 40 36 32 33 35 35 35 35 34 34 34 32 34
28 28 29 29 30 30 29 28 27 26 25 24 24 24 24 23 23 22 24 26 28 30 31 31 31 32 35 36 40 43 38 31 31 32 33 35 36 35 35 34 34 36
29 30 31 31 32 32 30 29 27 25 22 22 22 23 23 23 23 24 26 29 31 31 32 31 30 30 31 34 41 44 37 31 30 30 32 35 36 35 35 35 36 39
32 32 33 33 34 33 31 29 26 24 22 21 21 22 23 24 25 27 28 29 30 31 31 29 26 24 25 30 39 44 38 32 30 30 32 35 35 35 36 37 38 39
34 35 36 36 35 33 30 27 25 23 22 22 22 24 25 26 26 27 27 26 27 27 25 23 21 21 25 30 36 41 39 34 31 31 34 37 36 36 37 38 39 37
36 38 39 39 37 34 30 26 23 23 23 24 26 27 26 25 25 25 23 22 21 18 16 18 21 26 33 37 38 39 39 36 33 33 36 38 37 38 38 39 37 33
37 40 42 42 38 34 31 28 25 24 25 27 28 28 27 25 24 22 19 16 14 14 16 21 28 35 42 43 38 35 36 36 35 36 36 37 37 38 38 36 33 29
40 43 45 43 39 34 31 29 28 27 27 28 29 28 25 23 21 17 14 14 15 19 23 28 34 40 43 41 34 31 33 35 35 36 36 36 36 35 34 31 28 25
43 45 46 44 39 35 32 32 31 30 31 31 29 25 23 22 19 16 15 17 20 24 29 34 38 39 39 35 31 30 32 33 33 33 34 34 33 31 28 25 23 22

ECMWFNIL_700_spd_012.txt.gz
Wind_Speed
23 22 20 18 18 18 17 16 15 15 14 13 13 12 12 13 13 12 9 9 9 8 8 8 4 1 2 3 5 6 8 10 12 15 17 18 18 15 13 13 14 16
25 22 21 20 19 19 18 16 15 14 13 13 15 15 15 15 15 13 10 9 9 9 9 8 5 3 2 2 4 6 8 10 12 15 17 18 18 16 14 14 15 17
25 23 22 21 20 19 17 16 15 15 15 15 17 17 17 16 15 14 12 10 10 9 9 9 7 5 5 3 4 5 7 9 12 15 17 18 18 17 15 16 17 18
26 24 23 22 22 20 18 17 17 16 16 17 18 18 19 18 16 15 13 11 10 10 11 11 9 8 8 6 4 5 6 8 10 13 16 18 18 17 17 18 18 19
26 25 24 24 23 21 19 18 18 18 18 18 18 19 19 18 17 16 14 12 11 11 12 12 10 10 10 9 6 5 6 7 9 12 15 17 18 18 18 19 21 21
27 26 26 26 25 23 21 20 20 20 20 19 19 19 19 18 17 16 14 13 12 12 13 13 12 11 11 11 9 8 7 8 10 12 14 17 18 18 18 19 21 22
27 27 27 27 26 24 22 22 22 21 21 21 21 20 19 19 17 16 15 14 14 14 13 13 13 13 13 12 12 12 11 12 13 15 17 19 19 19 18 18 19 21
27 28 28 28 27 26 24 23 23 23 22 22 21 20 20 19 18 17 16 15 15 13 13 13 13 14 13 13 14 15 15 15 17 19 20 21 22 21 19 18 18 18
27 29 29 29 29 27 25 24 24 24 23 22 21 21 20 19 19 18 17 16 15 13 12 13 13 13 12 11 12 14 16 18 19 21 22 23 23 23 21 19 17 17
27 30 30 30 30 28 26 24 24 24 24 22 22 22 21 20 19 18 17 16 15 13 12 12 11 12 12 11 11 12 15 18 20 21 22 23 24 24 22 20 18 17
27 30 31 31 30 29 27 25 24 24 24 23 23 23 23 22 21 19 18 17 15 13 12 11 11 12 14 14 14 15 16 18 20 21 22 23 24 25 23 21 20 19
26 29 31 31 31 29 27 25 23 23 24 24 24 24 24 23 22 20 19 17 15 14 13 12 12 13 15 16 17 18 18 20 22 22 22 23 24 24 24 23 23 21
27 28 30 31 30 29 28 26 24 24 25 26 26 26 25 24 23 21 18 17 16 16 15 14 14 15 16 16 18 20 20 21 22 23 24 24 23 23 23 23 24 23
28 28 30 31 31 31 30 28 26 26 27 28 28 27 26 25 23 21 20 19 19 18 18 18 19 19 19 19 21 23 23 23 24 26 28 27 26 25 24 23 24 25
30 29 30 31 32 32 31 30 29 29 29 30 30 29 27 26 25 24 24 23 22 21 21 22 22 22 22 23 24 25 26 26 27 29 31 32 30 29 27 24 24 24
32 31 32 33 33 33 32 32 31 31 31 31 30 28 27 26 25 25 24 24 22 22 23 23 23 23 24 25 27 28 29 29 29 31 33 34 34 33 31 29 26 24
33 33 33 34 34 34 33 33 32 32 32 32 31 29 28 27 26 26 25 23 23 23 23 23 24 25 27 28 29 30 30 30 30 32 34 34 34 34 33 32 30 27
34 34 34 35 35 35 34 34 34 34 34 33 32 31 29 28 28 27 26 25 25 24 24 24 25 26 27 29 30 30 31 30 29 32 34 33 32 33 32 31 31 28
35 34 34 35 35 35 34 35 36 36 35 35 34 31 30 30 30 29 28 27 26 24 23 24 25 27 28 30 31 32 33 32 30 31 31 29 29 32 31 30 29 28
36 35 34 35 36 36 35 35 36 36 35 34 32 31 32 32 31 30 28 27 25 23 23 25 27 28 29 31 32 33 34 33 31 31 28 25 27 30 30 28 27 26
35 34 34 35 36 37 37 36 35 35 35 32 29 29 30 30 30 29 27 25 23 23 24 26 28 29 29 29 30 31 32 33 32 32 29 24 25 27 27 26 25 25
34 34 34 35 37 37 37 37 36 36 33 30 29 28 28 28 27 26 25 24 24 25 26 27 28 27 26 26 26 28 31 32 32 34 32 27 25 26 25 23 22 22
32 32 33 35 36 37 37 37 37 35 32 31 31 30 28 26 24 23 23 25 25 25 26 26 25 23 23 24 26 29 31 32 32 34 33 30 28 26 23 21 20 20
33 30 32 36 36 36 37 38 38 35 33 33 33 30 28 26 23 23 25 26 24 24 23 23 22 21 23 25 27 30 32 31 33 34 33 31 29 26 22 20 19 19
35 33 32 35 37 38 38 39 38 35 34 34 32 29 28 27 25 26 27 25 23 23 22 21 21 22 25 28 30 31 31 30 32 32 30 28 27 24 21 19 18 18
34 37 36 35 37 39 40 41 39 36 35 33 30 28 28 28 28 28 26 24 23 22 21 21 21 23 28 31 32 32 31 29 29 28 25 24 23 21 19 18 17 17

ECMWFNIL_700_spd_015.txt.gz
Wind_Speed
27 25 24 24 24 23 21 20 19 19 19 18 17 15 12 11 13 14 14 13 13 13 12 11 9 7 6 5 3 2 1 1 3 5 8 10 12 13 12 11 12 13
28 26 25 25 25 24 23 21 20 19 19 19 18 16 14 14 15 15 15 14 14 14 14 12 10 9 7 6 4 3 2 2 3 5 7 9 11 13 14 14 14 15
31 29 27 27 26 25 23 22 21 20 19 19 19 17 16 16 17 17 16 15 15 15 15 14 12 10 9 8 7 5 4 2 3 4 6 8 11 13 14 14 15 15
33 31 28 27 27 26 24 23 23 21 20 20 19 18 18 18 19 19 17 16 16 16 16 15 13 12 11 11 10 8 6 4 4 5 6 8 10 12 13 13 13 14
34 32 30 29 28 27 26 25 24 22 21 21 20 18 19 20 21 20 19 18 18 17 17 15 14 13 13 13 12 11 9 8 8 7 8 8 9 11 12 13 12 12
34 33 31 30 30 29 27 25 24 23 22 21 21 20 20 21 22 22 21 20 19 18 17 16 15 15 15 14 13 13 13 13 12 11 10 10 10 11 12 13 13 12
33 32 31 31 31 30 28 26 25 24 23 22 22 22 22 23 23 23 23 21 20 19 18 18 17 17 16 16 15 14 15 16 15 14 13 12 11 11 13 14 14 14
31 31 30 30 31 31 29 27 26 25 24 24 24 23 23 24 24 25 24 23 22 20 19 18 18 18 18 17 16 15 15 16 17 17 16 15 14 13 14 16 15 15
30 30 30 30 31 31 29 27 27 26 26 25 24 23 23 24 26 26 26 25 23 22 20 19 19 19 18 17 16 15 14 15 17 18 18 18 17 17 17 17 16 16
28 28 29 29 29 30 29 27 27 27 27 26 25 24 25 25 26 27 27 26 24 23 21 20 19 19 18 17 16 15 15 15 17 18 18 19 20 19 19 18 17 16
28 27 27 27 27 28 28 27 27 29 29 27 26 26 26 26 28 28 28 27 25 23 21 20 19 19 18 18 18 18 18 18 19 20 19 20 20 20 20 20 19 18
29 27 26 25 25 27 27 27 28 29 29 28 27 27 27 28 29 29 28 27 24 23 22 20 19 19 19 19 19 20 20 21 21 21 21 21 20 21 21 21 21 20
30 28 26 25 25 26 27 28 28 29 29 28 28 28 28 29 30 29 28 26 25 24 22 21 21 20 20 20 21 21 21 21 22 22 22 22 21 22 23 24 23 21
32 30 27 25 25 26 27 28 28 29 29 28 28 29 30 30 30 29 28 27 26 25 23 23 23 22 22 22 22 23 22 23 23 22 22 22 23 23 24 25 24 22
34 32 29 27 26 26 27 27 28 29 29 29 29 30 31 31 31 30 30 29 28 26 25 25 25 24 23 23 24 25 25 25 25 24 23 23 24 25 26 27 25 23
35 34 32 30 28 26 26 27 28 29 30 29 29 30 32 33 32 32 32 31 29 28 27 27 26 25 25 25 27 27 27 28 27 26 25 25 26 28 30 29 28 26
35 35 34 32 30 28 27 28 29 29 30 30 30 32 33 34 34 34 33 31 30 29 29 29 28 26 26 27 28 29 30 31 29 28 28 28 28 30 30 29 29 28
36 36 36 34 33 31 29 29 29 30 30 31 33 33 34 36 36 35 34 32 31 31 31 30 28 26 26 27 29 30 31 32 30 29 30 30 29 29 29 28 29 29
36 37 37 36 35 34 32 31 31 31 31 33 34 35 36 37 37 36 36 34 34 33 31 29 28 27 27 28 29 31 31 32 31 28 27 25 24 25 26 26 27 28
36 37 37 37 37 36 36 34 33 32 33 34 36 37 38 39 39 39 39 37 35 33 31 30 29 28 29 29 30 31 32 34 33 26 21 20 20 21 23 23 25 26
33 35 36 37 38 38 38 37 35 34 35 36 38 38 39 39 40 41 41 38 36 34 32 32 31 30 30 30 31 32 32 35 35 25 18 19 22 23 23 22 22 22
33 33 33 35 38 38 38 38 38 37 36 37 40 41 39 39 41 43 43 41 38 36 35 34 32 32 32 31 32 34 33 35 34 27 21 21 23 24 23 19 17 17
33 33 33 33 36 38 38 39 39 39 38 38 40 41 40 40 42 44 44 42 39 37 37 35 33 33 32 31 32 34 35 34 31 28 26 24 23 23 23 18 17 18
30 33 35 34 34 35 37 39 40 40 40 40 40 40 40 39 41 43 42 40 38 37 36 34 33 33 32 32 33 36 38 35 28 25 27 26 24 24 24 22 21 21
24 27 31 33 35 37 37 38 39 41 41 41 41 40 39 39 40 41 40 38 35 34 33 33 34 34 32 32 32 36 39 35 27 24 26 26 25 25 25 23 22 20
21 20 20 23 29 34 37 37 39 40 41 41 41 40 39 39 40 40 39 37 34 32 31 33 35 33 32 31 31 32 36 34 28 26 27 26 24 25 24 21 19 16

ECMWFNIL_700_spd_018.txt.gz
Wind_Speed
24 23 22 21 20 19 18 18 17 16 15 15 16 16 15 15 14 13 13 13 13 13 14 14 13 12 11 10 10 10 9 7 5 2 2 4 7 10 11 11 11 11
26 25 24 23 22 21 19 18 18 17 15 15 16 17 17 17 16 15 15 14 15 16 17 17 15 14 13 13 12 11 9 7 5 3 1 3 6 8 9 9 9 10
28 27 26 25 24 22 20 19 19 18 17 16 17 19 19 18 18 17 16 16 17 18 19 18 17 16 15 14 13 11 9 7 6 4 1 3 5 6 7 7 7 8
30 28 27 27 26 24 23 21 20 19 18 18 18 19 21 20 20 19 18 19 19 20 20 20 19 18 17 15 13 12 10 8 7 5 3 4 5 6 6 7 7 8
31 30 29 29 28 27 26 24 22 20 20 19 18 20 22 22 22 22 21 21 21 21 22 21 20 19 18 17 15 14 13 11 9 8 7 7 7 7 7 7 8 9
33 33 32 31 31 30 28 26 24 22 21 20 20 21 23 23 24 23 23 22 23 23 23 23 22 20 19 17 15 15 15 15 14 12 11 10 10 9 9 9 10 10
32 33 33 33 33 32 30 28 26 24 23 22 22 22 24 25 25 25 25 24 25 25 25 25 23 21 20 18 17 16 17 17 17 16 15 14 13 12 12 12 12 11
29 31 32 33 34 33 32 29 28 26 24 24 24 24 25 26 26 27 27 27 27 27 27 26 24 23 22 20 19 19 19 19 18 17 17 16 16 15 15 15 15 14
25 27 29 32 33 34 33 31 29 28 26 26 26 25 26 27 28 29 29 29 29 29 29 27 26 25 23 22 21 21 20 19 18 17 16 17 18 17 17 17 17 16
24 25 27 29 31 31 32 31 30 29 27 27 27 27 26 27 29 30 31 32 32 31 30 29 27 26 25 24 23 22 21 20 18 17 16 17 19 19 19 19 18 17
26 26 27 28 28 29 29 29 29 29 28 28 29 28 27 28 30 31 33 34 33 32 31 29 28 27 26 25 25 24 22 21 19 18 18 19 20 20 20 20 19 18
28 28 28 28 27 27 27 27 28 29 28 30 31 30 28 29 30 32 34 35 34 33 32 30 28 27 27 27 26 25 24 22 20 20 21 22 22 21 21 21 20 20
30 30 30 29 27 25 25 25 27 28 29 31 33 31 30 30 30 32 35 35 35 35 33 31 30 29 28 28 27 26 25 23 22 22 23 24 23 22 22 21 20 20
31 30 30 29 28 26 24 25 26 27 29 32 34 33 32 31 31 32 35 36 36 36 35 33 32 31 30 29 28 27 26 24 24 24 25 25 24 23 22 22 21 21
31 29 29 30 30 28 26 25 26 26 29 33 35 35 34 33 32 34 35 36 37 37 36 35 34 34 32 31 30 28 26 25 25 26 27 26 25 24 23 22 23 23
31 29 30 31 32 31 28 27 26 27 29 33 35 35 35 35 35 36 37 37 38 39 38 38 37 36 34 32 30 28 28 27 27 28 29 28 27 26 24 23 24 27
31 30 31 32 33 33 31 29 28 27 29 32 34 35 37 37 37 38 38 38 39 40 40 39 38 37 35 32 31 30 30 30 30 30 30 30 29 27 25 24 27 30
30 30 31 32 34 35 34 32 31 29 29 31 34 35 37 38 38 39 39 39 40 41 41 40 39 37 35 33 32 32 32 32 32 32 32 32 30 28 27 28 30 31
29 29 30 31 33 36 36 35 34 32 30 31 33 35 37 38 39 39 40 41 42 42 41 41 40 38 36 35 34 34 34 34 33 33 32 31 30 30 30 30 30 28
29 30 29 29 31 34 38 38 37 36 33 31 33 35 37 39 39 40 40 41 42 43 42 42 40 39 37 37 36 36 36 35 34 33 32 30 30 30 29 27 26 25
31 31 31 29 29 33 38 41 41 39 36 34 34 36 37 38 39 40 40 41 41 43 43 42 41 39 39 38 38 37 37 36 34 33 32 31 31 30 27 24 23 24
32 33 33 31 30 33 39 42 43 42 40 38 37 37 37 39 39 40 41 41 41 42 42 42 40 40 40 40 39 38 38 37 36 33 32 32 32 30 27 24 23 23
32 33 34 32 31 33 37 41 43 44 42 41 40 39 38 40 41 41 41 41 42 42 41 41 41 42 42 41 40 39 39 39 37 34 32 31 29 26 23 22 22 22
27 28 29 30 30 32 35 37 40 43 43 43 43 42 40 40 41 42 42 42 43 43 42 42 42 43 44 42 41 41 41 40 37 36 35 30 23 20 18 17 18 20
22 24 27 29 31 32 33 34 36 39 42 44 46 45 43 42 41 42 43 44 45 46 45 44 45 46 46 44 42 41 41 39 37 37 37 32 25 20 19 17 16 18
20 23 26 29 31 32 32 33 35 36 39 43 46 47 47 46 44 43 44 45 46 48 47 46 46 46 46 44 43 42 41 40 38 36 35 34 30 24 20 17 16 20

ECMWFNIL_700_spd_021.txt.gz
Wind_Speed
26 25 24 23 22 20 19 19 18 17 15 13 12 13 16 18 18 19 19 18 18 18 17 17 18 18 17 15 14 14 12 11 11 9 6 4 4 4 4 5 6 7
26 25 25 24 23 21 20 20 20 19 17 15 13 13 16 19 21 21 21 21 21 20 20 20 20 20 18 17 16 15 14 14 13 10 7 4 2 3 4 5 5 5
28 26 25 24 23 21 21 21 21 20 19 18 16 14 16 20 22 22 23 23 23 22 22 22 22 21 20 19 18 17 17 16 14 11 8 5 2 1 2 4 4 4
29 28 26 25 24 23 23 23 23 22 21 19 18 17 16 19 22 23 24 24 24 24 24 24 24 23 21 20 20 20 19 17 14 12 9 6 3 1 1 2 2 3
30 29 28 27 26 25 25 25 24 23 22 21 20 19 18 19 21 24 24 25 25 25 25 26 26 25 23 22 22 21 20 17 15 12 9 7 5 4 4 4 4 4
31 31 31 30 29 28 28 27 26 25 24 23 22 22 20 19 21 23 25 26 26 26 27 27 27 26 25 23 23 22 20 18 16 13 11 9 8 7 7 8 8 8
33 33 32 32 31 31 30 29 28 28 27 25 24 23 23 21 21 23 25 27 27 28 28 28 28 28 27 25 24 23 21 19 17 15 13 12 12 11 11 11 11 11
33 34 34 34 33 33 33 32 31 31 29 28 26 25 25 24 23 23 26 28 30 30 30 30 29 29 28 27 26 24 22 20 19 17 15 15 15 14 14 14 14 14
28 31 34 35 35 34 34 34 33 33 32 31 29 28 27 26 25 25 26 29 31 32 32 31 31 31 30 29 27 25 23 22 20 19 18 18 18 17 17 17 16 16
24 26 29 32 34 34 34 34 34 34 33 33 32 30 29 29 27 27 28 30 33 34 34 33 33 32 32 31 29 27 25 23 21 21 20 20 20 20 20 19 18 17
24 24 25 27 29 31 32 33 33 34 34 35 34 32 31 31 31 30 29 31 34 36 36 35 34 34 33 32 30 29 26 24 23 22 22 22 22 21 21 21 19 19
26 26 26 25 26 27 28 29 31 32 33 33 33 31 32 33 33 32 32 32 34 37 37 37 36 35 35 34 32 30 28 26 25 24 23 23 24 24 23 22 21 21
28 28 27 26 26 26 26 26 27 28 29 29 30 31 32 34 34 34 33 33 34 37 38 38 38 37 36 35 34 33 31 29 27 26 25 24 25 25 25 24 24 24
29 29 28 28 28 28 27 27 26 26 27 27 28 30 32 33 35 35 35 34 35 37 39 40 40 39 38 37 36 34 33 31 29 27 26 25 26 27 27 26 26 26
31 30 29 29 30 30 30 29 27 26 26 26 27 28 30 33 35 36 37 36 36 37 40 41 41 41 40 38 37 35 34 33 31 29 27 26 27 29 29 28 27 27
32 32 31 31 32 32 32 32 29 28 27 27 27 27 29 32 35 37 39 38 37 38 40 42 43 42 41 40 38 36 35 35 33 31 29 28 29 30 30 29 29 28
33 33 33 33 34 33 33 34 32 30 28 28 28 27 28 31 35 38 40 40 39 38 39 42 43 42 41 41 40 38 36 36 35 34 32 30 30 31 31 31 31 30
35 34 34 35 35 35 35 35 34 32 30 30 30 29 28 30 34 39 40 40 40 39 40 41 42 41 42 42 41 40 38 38 37 36 34 32 32 32 32 33 34 33
35 34 34 35 35 35 35 34 34 34 32 32 31 31 29 30 34 38 40 41 41 41 41 41 42 41 42 43 42 41 40 40 40 38 36 34 34 34 35 36 37 36
34 33 34 34 34 34 34 34 34 34 34 34 33 32 32 32 34 37 39 40 42 43 42 42 42 42 42 43 43 42 42 42 41 39 38 37 36 36 38 39 39 38
33 32 32 32 33 34 34 34 34 34 35 35 35 34 34 35 35 36 38 40 42 43 43 44 44 44 43 43 44 43 43 43 43 41 40 39 39 39 41 42 41 40
32 33 33 33 33 33 34 34 35 35 35 36 36 36 36 37 37 37 38 40 43 44 45 46 46 45 44 44 45 44 44 45 44 44 43 42 41 41 42 43 43 40
33 33 33 33 32 33 34 35 35 35 36 36 37 38 38 38 39 39 39 41 43 45 46 47 47 46 46 46 46 46 45 46 46 46 46 45 43 43 44 44 44 41
33 33 32 33 33 33 34 35 35 36 36 36 37 38 40 39 39 41 42 42 43 45 47 47 48 48 47 47 47 47 47 47 48 48 48 47 45 45 45 45 44 41
32 32 33 34 34 32 33 34 34 35 35 36 37 39 40 41 41 42 43 44 44 45 47 49 49 49 48 48 48 48 48 48 49 50 50 49 47 47 47 46 45 43
33 32 32 32 30 29 30 31 32 33 34 35 37 38 39 41 42 42 43 45 46 46 47 49 50 51 50 50 50 49 49 50 51 52 51 50 49 49 49 48 46 43

ECMWFNIL_700_spd_024.txt.gz
Wind_Speed
29 27 25 23 22 22 21 20 19 19 18 16 14 13 13 15 17 20 20 21 22 21 20 20 19 19 19 20 20 19 17 14 12 11 11 9 7 6 4 3 2 1
30 29 27 25 24 23 22 21 21 21 20 19 17 14 13 15 18 21 22 23 23 23 22 22 21 20 21 21 21 20 18 16 14 14 13 10 7 6 4 3 2 1
30 30 28 27 25 24 23 23 22 22 22 21 20 17 16 15 17 19 22 24 24 25 25 24 23 22 22 22 22 21 20 18 16 16 15 12 8 6 4 3 2 1
30 30 29 28 27 26 26 25 24 24 23 23 21 20 18 17 16 18 20 23 25 26 27 26 25 23 23 24 23 23 23 20 18 19 17 13 10 7 6 5 4 3
29 29 29 28 28 28 27 27 26 25 24 24 23 22 20 19 18 18 19 21 24 27 27 27 26 25 25 25 25 25 25 22 21 21 18 14 11 9 7 7 7 6
30 30 30 29 29 28 28 27 27 26 26 26 25 24 22 21 20 19 19 20 22 25 27 28 28 27 26 26 26 26 25 23 23 23 19 16 13 11 9 9 9 9
31 31 30 30 30 29 29 28 28 28 27 28 27 26 24 23 22 21 21 20 21 24 26 28 29 29 28 27 27 27 25 25 25 24 21 18 16 13 12 11 12 12
30 31 31 31 31 31 30 29 29 29 29 29 29 28 27 26 24 23 23 22 22 24 26 28 30 30 30 29 29 27 26 26 27 26 22 20 18 16 14 13 14 14
29 30 31 32 32 32 32 31 30 30 30 31 30 29 29 29 27 26 26 25 24 25 27 29 31 32 32 31 30 29 27 28 28 27 24 22 20 18 17 16 16 17
26 28 29 31 32 33 32 32 32 32 32 32 32 32 32 31 30 29 29 28 27 27 28 30 32 33 34 33 32 31 29 29 29 29 27 24 23 21 20 19 18 19
26 26 27 29 30 32 33 34 34 34 34 34 33 34 34 34 33 32 31 30 29 29 29 30 32 34 35 35 33 32 31 31 31 30 29 27 25 24 23 22 21 21
28 27 27 27 27 29 31 34 35 36 36 35 35 36 36 36 36 35 34 33 31 31 30 31 32 34 36 36 35 34 33 32 32 32 30 29 27 27 26 25 24 23
30 30 29 28 27 27 29 31 32 33 34 34 35 36 37 37 37 36 35 34 34 34 33 32 33 34 37 38 37 36 35 35 34 34 33 31 30 29 29 28 27 26
32 31 30 30 29 28 28 28 28 29 30 31 32 34 35 37 37 36 35 35 36 36 36 35 34 35 37 39 39 38 37 37 36 35 34 33 32 31 31 31 30 29
34 34 32 31 31 30 29 28 28 27 27 28 29 29 30 33 34 34 34 35 37 38 38 37 36 36 37 39 40 40 39 39 38 37 36 35 34 33 33 33 32 31
36 35 34 33 32 32 31 30 29 29 29 29 28 27 28 29 30 31 32 34 36 38 39 39 39 38 38 38 40 41 41 41 40 39 38 37 36 35 34 34 34 33
36 36 35 34 33 32 32 32 31 31 31 31 30 29 28 28 29 30 30 32 35 37 39 40 40 40 38 38 39 41 43 42 42 42 41 40 38 37 36 35 35 34
36 36 36 35 34 34 34 34 33 33 34 33 32 31 29 30 30 31 31 32 34 36 38 39 40 40 39 38 38 41 43 44 44 44 43 42 41 39 37 36 36 36
35 35 36 35 35 35 36 35 34 34 35 35 34 33 32 31 32 32 32 33 35 36 37 38 40 41 40 39 38 40 43 45 46 46 45 44 43 41 40 39 38 38
33 34 35 35 36 36 37 36 35 35 36 35 36 36 35 33 33 34 34 34 36 37 37 38 39 40 40 40 39 40 43 46 47 48 48 47 45 44 43 41 39 39
32 33 34 35 36 37 38 37 36 36 36 37 37 38 37 35 34 34 34 35 37 38 38 38 38 39 40 40 40 40 42 46 48 50 49 49 48 47 45 43 42 42
32 33 35 36 37 38 37 37 36 36 36 37 38 38 38 37 36 35 35 36 37 38 40 40 38 38 39 40 40 40 42 46 49 50 50 50 50 49 48 46 45 44
33 34 35 36 37 37 36 35 35 35 36 37 38 38 39 38 37 37 36 36 36 37 40 42 41 40 39 40 41 41 42 46 49 50 51 50 50 50 50 49 47 47
34 34 34 35 36 35 35 35 35 35 36 37 37 38 38 37 38 38 37 37 37 38 39 41 43 43 41 41 42 42 43 46 49 50 51 51 51 51 51 50 50 50
34 34 34 35 35 35 36 36 37 37 38 38 37 38 38 38 39 39 39 39 40 40 40 41 43 44 44 43 43 43 45 47 49 52 53 53 53 52 52 52 52 52
36 36 36 36 37 38 39 39 39 39 39 39 39 39 40 40 41 41 41 42 42 43 43 42 42 44 46 46 46 45 45 48 50 53 54 55 54 54 54 54 54 54

ECMWFNIL_700_spd_027.txt.gz
Wind_Speed
26 26 27 26 25 24 24 23 20 18 17 15 13 13 13 13 15 17 18 18 18 19 20 20 20 20 19 18 17 17 17 17 15 14 12 10 10 9 7 6 4 3
26 26 27 27 26 25 25 23 21 20 18 16 15 14 14 13 14 16 18 19 19 20 21 21 21 21 20 19 19 18 18 18 16 15 14 12 12 11 9 7 6 4
27 27 27 27 27 26 25 23 22 21 19 18 18 17 16 15 15 15 17 18 20 21 22 22 22 22 22 21 21 20 19 18 18 17 15 15 14 12 10 8 6 5
28 27 27 27 28 27 26 25 24 22 21 20 20 19 19 18 16 15 16 17 19 21 23 23 23 23 23 23 22 21 20 19 20 20 18 16 17 15 12 10 7 6
27 27 27 28 29 29 28 27 25 23 22 22 22 22 21 20 19 18 17 17 17 19 22 23 23 24 24 24 23 23 22 21 21 22 20 18 18 17 14 11 9 8
28 27 27 28 30 30 29 28 26 25 24 23 24 24 23 22 21 20 19 19 18 17 19 21 23 25 26 25 25 25 24 23 23 23 21 20 20 20 17 14 12 11
28 28 27 28 29 30 29 28 27 26 26 25 26 25 25 24 23 22 21 21 21 20 19 20 22 24 26 26 26 26 26 25 25 24 23 22 22 22 20 16 14 13
29 29 28 28 29 30 29 28 28 28 27 27 27 27 26 26 25 24 24 23 23 22 21 21 21 22 25 26 27 27 27 27 26 26 24 24 24 24 22 19 16 15
29 30 30 29 29 29 29 29 29 28 28 28 28 28 28 28 27 27 27 26 25 25 24 23 22 21 23 25 26 28 29 28 28 27 26 26 26 26 25 22 19 17
27 28 29 30 30 30 29 29 29 29 29 29 29 29 30 30 30 29 29 29 28 27 26 25 23 22 22 24 26 27 29 29 29 29 29 28 27 27 27 25 22 20
24 26 27 28 29 29 29 29 29 29 30 30 30 30 31 32 32 32 32 31 30 30 28 27 25 24 23 23 25 26 28 30 31 31 30 29 28 29 29 28 25 23
24 25 26 26 27 28 28 28 28 30 30 31 30 30 32 33 33 33 33 33 33 32 31 29 28 27 26 25 25 26 28 30 32 32 32 31 30 31 31 31 29 26
26 25 25 25 25 26 26 27 28 30 31 31 31 31 32 34 35 34 34 34 34 34 33 32 31 30 29 28 27 27 28 30 32 34 34 34 33 33 33 33 32 30
28 27 26 25 25 25 25 26 27 29 31 32 32 32 33 34 35 36 35 35 35 35 35 34 34 33 32 32 30 29 29 30 32 35 36 36 36 35 36 36 35 33
30 29 28 27 27 26 26 26 27 28 29 30 30 30 31 32 34 36 36 36 36 36 36 36 36 35 34 34 33 32 32 32 32 34 37 38 38 37 38 38 38 36
33 32 31 30 29 29 28 27 28 28 28 28 29 29 29 29 30 33 35 35 35 35 36 36 36 36 35 35 35 34 34 34 34 34 37 39 40 40 40 40 40 39
36 35 34 33 31 31 30 29 29 30 30 30 30 31 30 29 28 31 33 33 33 33 34 34 34 34 34 34 35 35 35 35 35 35 36 39 41 42 42 42 42 41
37 36 36 35 34 33 32 32 32 32 32 33 33 33 33 32 30 30 31 32 32 31 31 31 31 31 32 32 33 35 36 36 37 37 37 38 40 42 43 43 43 43
36 36 36 35 34 34 34 34 34 33 33 34 35 35 35 35 33 32 32 32 33 32 32 31 31 31 30 30 30 32 35 36 37 38 38 38 38 40 42 43 44 44
32 34 35 35 34 35 35 35 35 33 33 34 35 35 35 35 35 35 34 33 33 34 33 32 32 32 32 31 30 30 32 35 37 38 39 38 38 39 41 43 43 44
27 29 32 34 34 34 34 35 34 33 33 34 35 35 35 35 36 37 36 35 35 35 35 33 32 32 32 32 31 30 31 34 36 38 39 39 39 39 40 42 43 44
23 26 28 30 31 32 32 32 33 33 33 35 36 36 36 36 36 37 37 37 37 36 36 34 33 33 33 33 32 31 32 34 36 38 40 40 40 40 40 41 42 43
23 24 26 27 28 28 28 29 31 33 34 35 36 37 37 37 37 37 38 38 38 37 36 35 34 35 34 33 33 32 33 35 36 38 40 41 41 41 41 41 42 43
27 26 27 28 27 27 28 29 31 33 34 36 37 38 38 38 38 38 38 38 38 38 37 35 35 35 35 35 34 34 34 35 37 39 40 41 42 43 43 43 43 44
30 29 29 29 30 29 30 32 33 34 36 37 38 39 40 41 41 40 40 40 40 39 38 37 36 37 36 35 35 35 35 36 37 39 41 41 41 43 45 46 46 46
33 32 31 31 32 33 33 34 35 37 38 38 39 40 42 43 42 42 42 41 41 41 40 39 38 39 38 37 36 36 37 38 39 40 42 42 43 44 45 47 49 49

ECMWFNIL_700_spd_030.txt.gz
Wind_Speed
23 23 23 23 23 22 22 20 19 19 17 15 13 11 10 10 11 13 13 13 13 13 13 14 15 15 15 15 15 15 13 12 11 11 10 9 8 8 7 7 6 4
24 24 24 23 23 23 22 22 21 20 18 16 13 12 11 11 11 12 12 12 13 14 14 14 14 15 16 16 16 16 14 13 12 12 11 10 9 9 9 8 7 6
24 24 24 23 22 22 22 22 22 22 20 17 15 14 13 12 11 11 11 11 12 14 15 15 14 15 17 17 17 17 16 14 13 13 13 12 11 10 10 10 9 8
25 24 23 22 22 21 22 23 23 23 22 20 17 15 14 13 13 13 12 11 10 11 14 15 15 15 17 18 18 18 17 16 15 15 14 13 13 12 12 11 11 10
25 24 23 22 22 22 23 24 24 25 23 21 19 18 16 15 15 14 14 13 11 10 11 13 15 15 16 18 19 19 19 17 17 17 16 14 14 14 13 13 12 11
26 25 24 23 23 23 24 24 25 25 24 23 21 20 18 18 17 15 14 15 14 13 11 12 13 14 15 17 19 19 20 19 19 19 18 16 15 16 16 15 14 13
27 27 26 25 24 24 24 25 26 26 25 24 23 21 20 20 19 18 16 15 16 16 15 13 13 14 14 15 16 18 19 20 20 21 20 19 17 16 17 17 16 15
28 27 27 26 25 25 25 26 27 27 26 25 25 23 22 21 21 21 20 18 17 17 18 17 15 14 15 15 14 16 18 19 20 22 22 21 20 18 17 18 18 18
28 28 28 28 27 27 26 26 27 28 28 27 26 24 23 23 22 23 23 22 20 18 19 19 18 16 16 16 14 14 16 18 20 22 23 22 22 20 19 19 20 20
29 29 29 29 29 27 27 26 27 28 28 28 27 26 25 24 24 24 24 24 23 21 20 20 20 19 18 18 17 16 15 17 19 22 23 23 23 22 21 20 21 22
29 30 30 30 29 28 27 26 26 27 28 28 28 27 26 25 25 26 25 25 24 24 22 21 21 22 22 21 20 19 18 18 19 21 23 24 24 25 24 23 22 23
28 30 30 30 30 29 28 27 27 27 27 27 28 27 27 27 26 27 27 26 26 25 25 24 24 24 25 24 23 23 22 20 20 21 23 24 24 25 27 27 25 25
26 28 29 28 29 29 28 28 28 27 27 27 27 27 27 28 27 27 28 28 28 27 27 27 27 27 27 27 26 25 25 24 23 23 23 24 25 25 27 28 29 28
24 25 26 26 26 27 28 28 27 27 27 27 27 27 26 27 28 27 28 28 29 29 28 28 29 30 30 30 29 27 27 27 26 25 24 25 26 26 27 28 30 31
25 24 25 25 25 26 26 26 26 25 26 26 26 26 25 26 27 28 28 28 29 29 29 29 31 32 31 31 30 29 28 28 28 28 26 26 27 27 27 28 29 31
28 26 26 25 25 26 25 25 25 24 25 25 26 25 25 25 26 27 28 28 28 29 29 29 30 31 30 31 30 30 29 28 30 30 29 29 29 29 29 29 29 31
32 30 29 28 27 26 26 25 24 24 24 25 25 25 24 24 24 25 26 27 26 26 27 27 27 28 28 28 28 29 29 29 30 31 31 31 31 31 31 31 31 31
33 33 32 31 29 28 28 26 26 26 26 26 26 26 26 25 24 24 24 26 26 25 24 25 24 25 25 25 25 25 27 28 29 30 31 31 31 31 31 31 32 32
32 34 34 34 32 30 29 29 29 29 28 28 27 28 28 28 27 26 26 26 27 26 25 24 24 24 24 25 25 24 25 26 27 28 29 30 30 31 31 31 32 33
27 30 33 35 34 33 32 31 31 31 30 30 30 30 31 30 29 29 28 28 28 28 27 26 25 24 24 24 25 25 25 26 27 28 29 30 30 30 31 30 31 32
21 24 29 33 35 35 34 33 33 32 32 32 32 32 31 31 30 30 29 29 29 29 29 28 27 26 26 25 25 26 27 27 27 28 29 30 31 32 31 31 31 32
19 20 23 28 32 35 35 35 34 34 34 33 34 34 33 32 32 31 30 30 30 30 31 30 29 28 28 27 27 27 28 28 28 29 30 31 32 33 33 33 32 33
19 20 21 23 27 30 33 34 34 35 35 34 35 35 34 34 33 33 32 32 32 32 31 31 31 30 30 29 29 29 30 30 30 30 31 31 32 33 34 34 34 35
19 21 21 22 24 27 30 32 34 35 35 35 36 36 35 35 34 34 34 34 34 33 32 32 32 32 32 31 31 31 32 32 32 33 33 33 33 34 34 35 35 36
21 22 22 23 24 26 28 29 32 33 34 35 36 36 36 37 36 35 34 34 35 34 34 33 33 34 34 33 33 34 34 34 35 36 35 34 34 35 36 35 35 36
19 22 24 24 24 25 27 29 31 32 33 34 35 35 36 37 37 36 35 35 36 36 36 35 35 35 36 35 36 36 37 37 38 37 35 35 36 38 38 37 37 38

ECMWFNIL_700_spd_033.txt.gz
Wind_Speed
24 24 23 23 22 21 21 20 19 18 17 14 12 11 12 13 13 13 13 13 12 11 10 10 10 10 10 9 8 7 7 6 6 5 6 6 5 5 5 6 6 4
25 25 24 23 23 22 21 20 20 19 17 15 13 12 13 14 14 13 12 13 13 12 11 10 10 10 10 9 8 7 7 7 6 6 6 7 7 7 6 7 7 6
26 26 25 24 22 21 20 20 20 20 19 17 15 14 14 14 13 13 12 12 12 12 11 10 10 10 9 9 8 7 7 7 7 6 6 7 8 8 8 8 8 7
27 26 25 23 21 20 19 20 20 20 19 19 17 16 15 14 13 13 11 10 10 11 11 9 9 9 10 10 8 7 7 7 7 7 7 7 8 9 9 8 9 9
26 26 25 24 22 20 20 21 20 19 19 19 18 17 17 16 14 12 11 10 9 9 8 7 6 6 8 9 9 8 8 8 8 7 7 7 8 9 10 9 9 9
27 26 25 24 23 22 21 21 19 19 19 19 18 18 18 17 15 13 11 10 9 9 8 7 6 5 5 6 7 8 8 8 9 9 8 7 8 9 10 11 10 10
28 27 26 24 24 23 22 21 20 20 19 19 19 20 19 18 17 15 13 11 10 9 8 8 7 6 5 5 5 6 7 8 8 9 8 8 9 9 10 11 12 11
28 27 27 26 25 25 23 22 22 21 20 20 20 20 20 19 18 16 15 14 13 11 10 9 8 8 7 6 5 6 7 8 8 8 8 9 9 10 10 11 13 13
29 29 29 28 27 26 25 24 23 21 21 21 21 20 20 20 19 17 16 14 14 13 12 11 10 9 8 8 7 7 7 8 10 9 9 9 9 9 10 12 13 14
30 30 30 30 29 28 27 25 24 23 22 22 22 21 21 21 20 19 18 17 15 14 13 13 12 11 10 10 9 9 9 10 11 11 11 10 10 10 10 12 13 15
30 30 31 31 30 29 28 27 25 24 24 23 23 23 22 22 21 21 21 20 17 15 13 13 12 13 13 12 11 11 11 12 12 13 13 12 12 12 11 12 13 14
29 30 31 31 31 30 29 28 27 26 25 24 24 24 23 23 22 22 21 20 19 17 16 14 14 14 14 14 14 14 14 14 14 15 15 15 14 14 13 13 14 14
27 28 29 29 30 30 29 28 28 27 26 25 24 24 24 24 23 23 22 21 20 19 18 17 16 17 16 16 16 16 16 16 16 16 17 18 17 16 16 15 16 16
23 25 26 27 28 29 29 29 28 27 27 25 25 25 25 24 24 23 22 21 20 20 19 19 19 19 18 18 18 18 18 18 17 18 18 19 19 19 19 18 18 18
21 22 24 26 27 28 29 29 28 28 27 26 26 25 25 24 23 23 22 22 21 20 20 20 20 20 19 19 19 19 20 19 19 19 19 19 20 21 21 20 20 20
22 21 22 24 26 27 27 28 28 27 27 26 26 25 24 24 23 23 23 22 21 20 20 20 20 20 20 20 20 21 21 21 21 20 20 20 21 22 22 21 21 21
25 23 22 23 24 25 26 27 26 26 26 26 25 24 23 23 23 23 22 21 20 19 19 19 19 19 19 20 20 21 21 22 21 20 20 20 21 22 22 22 22 22
28 27 25 24 24 23 24 25 25 26 26 25 24 23 22 22 22 21 21 20 20 19 19 18 18 17 18 19 19 19 19 19 20 20 20 20 20 21 22 22 23 23
28 30 30 28 27 25 24 24 25 26 25 24 23 22 22 21 21 20 20 20 20 19 19 18 18 17 17 18 18 18 18 19 20 21 21 21 21 22 22 23 23 24
22 27 30 32 31 29 27 26 26 26 25 24 24 23 23 22 21 20 20 20 20 20 20 20 19 19 19 19 19 19 20 20 21 22 23 24 24 24 24 24 24 25
15 18 23 28 32 33 32 31 29 28 27 26 26 26 25 23 23 22 22 22 22 22 22 22 21 21 21 21 22 22 22 23 24 25 25 26 26 26 26 27 27 27
13 13 14 19 25 31 35 35 33 31 30 29 28 28 27 26 26 25 25 24 24 24 25 24 23 23 23 23 24 25 26 26 27 27 27 28 28 28 28 29 29 30
14 13 13 13 16 22 28 33 35 35 33 32 31 31 30 29 29 28 27 27 26 26 26 25 24 24 25 25 26 27 28 29 29 29 30 30 30 30 31 32 32 32
15 14 14 14 15 17 20 25 30 34 35 35 34 34 33 32 31 31 30 29 29 28 27 27 26 27 27 28 29 29 30 31 32 32 32 31 31 32 33 34 34 34
16 15 15 16 17 17 18 19 23 28 32 35 36 36 35 35 34 34 32 31 30 29 29 29 29 29 30 30 31 32 33 34 35 34 33 33 34 34 34 35 35 36
17 16 15 16 18 19 19 20 21 23 27 31 33 35 36 36 36 35 34 33 32 31 31 31 30 31 31 32 33 35 36 37 37 36 35 36 37 37 36 37 37 37

ECMWFNIL_700_spd_036.txt.gz
Wind_Speed
27 26 25 24 24 24 24 23 21 20 19 17 16 16 15 14 14 15 15 14 14 14 13 13 13 12 12 11 10 10 10 9 8 8 8 8 8 7 7 7 7 6
28 27 26 25 24 24 24 23 22 21 20 17 16 16 16 16 16 16 16 17 16 15 14 13 12 12 11 11 11 11 10 10 9 9 9 10 10 9 8 8 8 7
28 28 27 26 25 24 24 23 23 22 20 19 18 17 17 18 18 17 17 17 16 15 15 13 12 11 10 10 10 10 10 10 10 10 10 11 11 10 10 9 9 9
29 28 27 26 25 24 23 23 24 23 21 20 18 18 18 18 19 17 16 16 16 15 14 13 12 11 9 9 9 9 10 10 10 10 11 11 11 11 11 10 10 10
29 29 28 26 25 24 24 24 23 23 21 20 18 18 19 19 19 18 16 15 14 13 13 13 12 10 9 8 7 8 8 9 10 10 10 11 11 12 12 12 11 11
29 29 28 27 26 25 25 24 22 21 21 20 19 19 19 19 20 19 17 14 13 13 12 11 10 9 7 6 5 6 7 7 9 10 10 11 12 13 14 14 13 12
30 30 28 27 27 26 25 23 22 21 20 20 21 20 19 20 20 19 17 15 14 12 11 10 9 8 6 5 5 4 5 5 6 7 9 11 12 13 13 13 13 13
30 30 29 28 28 27 26 25 23 22 21 21 21 20 19 19 20 19 18 17 16 14 12 11 9 7 6 6 5 4 4 3 3 4 5 8 10 11 12 13 13 14
30 30 30 29 29 29 27 26 24 22 22 22 21 20 20 19 20 20 19 18 17 16 15 13 11 9 8 6 5 4 4 3 2 2 3 4 5 7 10 12 13 14
31 32 32 31 31 30 28 26 25 24 23 22 21 21 21 20 20 21 21 20 19 17 16 15 13 12 10 9 7 6 6 5 5 4 3 3 3 5 7 9 11 12
30 32 32 33 32 30 29 27 25 25 24 23 22 21 21 20 21 22 23 22 20 19 17 16 14 14 13 11 10 9 9 9 8 8 7 6 6 6 7 7 9 10
30 31 32 32 32 31 29 28 26 26 25 24 22 22 21 21 21 22 22 22 20 19 18 17 17 16 15 14 13 12 12 12 11 11 10 10 9 9 9 9 10 9
29 30 30 31 31 30 29 28 28 27 26 25 23 23 22 21 21 22 21 21 19 18 18 18 18 18 17 17 16 15 15 14 13 13 12 12 12 12 13 13 13 12
26 27 28 29 29 29 29 29 28 28 27 25 25 24 24 22 22 21 21 21 20 19 19 18 18 19 19 18 18 17 16 15 14 14 14 14 15 15 16 16 16 16
22 23 25 26 27 28 28 28 28 28 27 27 26 26 25 24 23 22 22 22 21 21 21 20 20 19 18 18 17 16 16 15 15 15 16 16 17 18 18 19 19 19
20 20 21 23 24 25 26 27 28 28 28 28 27 27 26 25 24 23 23 22 21 21 22 22 21 19 17 17 16 16 16 16 16 16 17 18 19 19 20 20 20 21
20 20 20 20 21 23 24 25 26 27 28 28 27 27 26 26 25 24 23 22 21 21 21 21 20 18 17 17 16 16 16 17 17 18 19 20 20 20 20 20 20 21
23 22 21 20 20 21 22 23 25 27 27 27 27 27 26 26 26 25 24 22 21 21 21 21 19 18 17 17 17 17 17 18 19 19 19 19 19 19 19 18 19 19
26 25 23 22 21 20 20 22 24 25 26 26 26 26 26 26 26 25 24 22 22 21 21 20 19 18 18 18 17 17 18 19 20 19 20 19 19 19 19 19 19 19
28 28 27 25 24 22 22 22 23 23 24 24 25 25 26 25 25 24 23 23 22 21 21 21 20 19 18 18 17 17 17 19 20 20 21 21 21 21 21 21 20 21
30 30 30 29 28 26 25 25 24 23 23 23 24 24 24 24 23 23 23 23 22 22 21 21 20 19 18 18 18 17 18 20 21 23 23 24 24 24 24 24 24 24
27 29 31 32 31 31 30 28 26 25 24 23 23 24 23 23 23 23 23 23 23 23 23 23 21 20 20 20 20 20 21 23 24 25 26 26 26 26 27 27 27 27
21 24 27 30 32 33 34 33 31 29 27 26 26 25 25 24 24 24 24 24 24 24 24 24 23 23 23 23 23 23 24 26 27 27 28 28 28 28 28 28 29 29
15 18 22 25 29 31 33 34 34 34 32 30 29 28 28 27 26 26 26 26 26 26 26 26 25 25 26 26 27 27 28 29 29 29 30 29 29 29 29 30 30 30
14 15 18 22 25 26 27 29 31 34 35 35 34 33 32 31 30 30 29 28 28 28 28 28 28 28 28 29 30 30 30 30 31 31 31 31 31 31 30 31 31 31
16 15 16 20 22 23 23 24 25 28 31 34 36 37 36 36 35 34 32 31 30 30 30 30 30 31 31 32 32 32 32 33 33 33 33 32 32 32 32 32 32 32

ECMWFNIL_700_spd_039.txt.gz
Wind_Speed
27 26 26 25 25 26 25 25 24 23 22 21 19 18 17 16 16 15 14 14 14 14 15 17 17 16 15 14 13 13 12 12 12 12 12 12 11 9 8 7 6 5
28 27 26 26 26 26 26 25 24 23 22 21 20 19 18 18 17 15 14 15 16 15 16 17 18 17 16 15 14 14 14 13 13 12 13 13 12 11 10 9 8 7
29 28 27 26 25 25 26 25 25 24 23 22 22 21 20 19 18 17 15 16 17 17 17 17 17 16 15 15 15 15 15 14 14 14 14 14 14 13 12 10 9 8
30 29 28 27 26 25 26 26 26 25 24 23 22 21 20 19 19 18 17 17 18 18 18 18 16 15 14 14 15 15 15 15 15 15 15 15 15 14 13 12 11 10
30 30 29 28 27 26 26 27 26 26 25 23 22 21 20 20 19 20 19 18 18 18 18 18 16 15 14 13 14 14 15 16 16 16 15 15 15 15 14 13 12 11
30 31 30 29 29 28 28 27 26 26 25 24 23 22 21 21 20 20 20 18 17 17 17 17 16 15 14 13 13 14 15 15 16 16 15 15 15 15 16 15 14 13
31 31 30 30 30 29 29 28 27 26 26 25 25 24 22 22 21 20 20 18 16 16 17 16 15 14 14 13 13 14 14 15 15 15 14 15 15 16 16 16 15 14
31 31 31 30 30 30 29 28 27 26 26 26 26 25 23 23 22 21 20 19 17 16 16 16 15 14 14 13 13 14 14 14 14 13 13 14 15 15 14 15 15 15
32 31 31 31 31 30 29 28 27 26 26 26 25 24 23 23 22 21 21 21 19 17 17 16 16 16 15 14 13 13 12 12 11 11 11 12 13 13 13 14 15 15
33 32 32 32 31 30 29 28 27 26 26 25 24 24 24 23 22 22 23 23 21 19 18 17 17 16 15 14 13 12 11 10 10 10 10 10 10 10 12 13 13 14
33 33 33 33 32 31 29 28 27 27 26 25 24 24 23 22 23 23 24 24 23 21 20 19 17 16 15 14 13 13 12 11 10 10 9 9 8 8 9 9 9 9
34 34 34 33 32 31 29 28 28 27 26 25 24 24 23 22 23 23 24 25 23 22 22 21 19 18 17 16 14 14 13 12 12 11 9 9 8 8 8 8 7 7
33 33 33 32 31 30 29 29 29 28 27 26 25 24 24 23 23 22 22 24 24 24 23 22 22 21 20 18 17 16 15 14 13 12 11 10 10 9 9 9 9 9
32 32 32 31 30 30 30 30 29 29 28 27 26 26 25 24 23 22 21 22 23 24 24 24 24 24 23 21 20 18 17 16 15 14 13 13 12 12 12 12 12 12
29 30 30 30 29 29 29 29 29 29 28 28 27 27 25 24 23 22 22 22 23 24 24 25 26 25 24 23 22 20 19 18 17 16 16 15 15 15 15 15 15 15
25 27 28 28 28 28 28 29 29 29 29 28 28 27 26 25 24 23 23 23 23 24 24 25 26 25 24 24 23 21 21 20 19 18 18 18 18 18 18 18 18 18
22 24 26 27 27 28 28 28 29 29 29 29 29 28 27 26 25 25 24 23 23 24 24 25 25 24 23 23 22 22 21 21 20 19 19 19 19 19 19 19 19 19
22 22 23 24 25 26 27 27 28 28 29 29 29 28 28 27 27 25 24 23 23 24 24 25 24 23 23 22 22 21 21 20 20 19 20 20 20 20 20 19 19 19
24 24 23 22 23 23 24 25 26 27 27 27 27 27 27 27 26 25 24 23 23 23 23 24 24 22 22 22 21 20 20 20 21 21 21 21 21 21 20 19 18 18
26 26 25 23 23 22 22 23 24 24 24 25 25 25 25 25 24 24 24 23 23 22 22 23 23 21 21 21 20 19 19 20 21 22 22 23 22 21 20 19 18 18
27 27 26 25 24 24 23 23 23 22 22 23 24 24 23 23 23 24 23 23 23 22 22 23 22 20 20 20 19 18 19 20 22 22 23 23 22 21 20 20 20 21
28 28 28 27 26 25 24 24 23 22 22 22 23 23 23 23 23 23 22 22 23 22 23 23 22 20 20 20 19 19 20 22 23 23 24 24 23 22 22 23 23 24
27 29 29 29 29 28 27 26 25 24 23 23 23 23 23 23 22 22 22 23 23 23 23 24 23 21 21 20 20 20 22 23 24 25 25 25 25 24 25 26 26 27
25 27 28 30 31 31 30 30 29 27 26 25 25 24 23 23 23 23 23 23 23 23 24 25 24 22 22 22 22 22 24 25 26 26 27 27 27 27 28 28 28 28
21 23 24 27 29 30 32 32 32 31 30 29 28 27 26 25 25 25 24 23 24 24 25 26 25 24 24 24 24 25 26 27 28 28 28 28 29 30 30 30 30 29
20 21 22 23 25 26 27 29 31 32 33 34 34 32 30 29 28 27 27 26 26 26 26 27 27 27 27 27 27 28 29 29 30 30 30 30 31 32 32 31 31 30

ECMWFNIL_700_spd_042.txt.gz
Wind_Speed
27 27 26 25 25 25 25 26 26 26 25 24 23 21 20 19 18 17 16 15 15 14 14 14 14 15 15 15 14 12 12 11 11 11 10 10 8 7 5 4 3 1
28 27 26 25 25 25 25 26 26 26 26 25 24 23 22 21 19 18 16 16 16 16 15 15 15 16 16 16 15 14 14 13 13 13 12 11 11 9 8 6 5 4
29 28 27 26 25 25 25 25 26 26 26 26 25 24 22 21 20 19 18 16 16 17 17 17 17 17 17 17 16 16 15 14 14 14 13 13 12 11 10 8 6 6
30 29 27 26 25 25 25 26 26 26 27 26 25 24 23 22 21 21 19 18 17 17 18 18 17 18 17 17 17 17 17 16 16 16 15 13 13 13 12 11 8 7
30 29 28 27 26 26 27 27 26 26 26 26 26 25 24 24 23 22 21 19 17 17 17 18 17 17 16 16 16 17 18 17 17 17 16 14 14 14 14 13 11 9
31 31 30 28 28 28 28 27 27 26 26 26 26 26 26 26 25 24 22 20 18 17 17 17 17 17 16 15 16 16 17 18 18 18 17 15 15 15 15 14 13 12
31 31 30 29 29 29 28 28 27 27 27 27 27 27 26 26 25 24 22 20 19 18 18 17 16 16 16 16 16 16 16 17 18 19 17 16 15 15 14 14 14 13
31 31 31 31 31 30 29 29 28 28 27 28 28 27 26 26 25 24 22 21 19 18 18 17 16 17 18 18 17 16 16 16 17 17 17 16 15 15 14 14 14 14
31 31 32 32 32 31 30 29 29 28 28 28 27 27 26 25 24 24 23 22 21 19 18 17 17 17 19 19 17 17 16 16 16 16 15 14 14 14 14 14 14 13
32 32 32 32 32 32 31 30 29 29 29 28 28 27 27 25 24 24 24 23 22 20 18 17 17 18 19 19 18 17 17 16 15 14 13 13 13 13 13 14 13 12
33 32 32 32 32 32 31 30 30 29 29 28 28 27 26 26 25 25 25 24 23 20 18 17 17 19 20 19 19 18 17 16 15 14 12 12 11 11 11 11 11 10
33 33 32 32 32 31 31 31 30 29 28 28 27 27 27 27 26 26 25 25 23 21 19 18 18 20 21 20 20 19 18 17 15 14 13 12 11 10 10 8 7 7
33 33 32 31 31 31 31 31 30 29 28 27 27 27 27 27 27 26 25 24 23 22 21 19 19 21 22 22 21 20 19 18 16 14 13 12 12 11 10 9 7 7
30 31 32 31 31 31 31 30 30 29 28 27 27 28 27 27 26 26 25 24 24 24 23 22 22 23 23 23 22 21 20 18 16 15 14 13 12 12 11 10 10 9
26 28 30 31 31 31 31 30 30 29 28 28 28 27 27 27 26 25 25 25 24 24 24 25 24 24 24 23 22 21 20 19 17 16 15 14 13 13 12 12 11 11
24 25 27 29 31 31 30 30 30 29 29 28 27 27 26 26 26 25 25 25 24 25 25 26 26 25 24 23 23 22 21 20 19 18 17 16 15 14 14 13 13 13
23 23 25 27 29 29 29 29 29 29 29 28 27 27 26 26 26 25 24 24 24 24 25 26 26 25 24 25 24 24 23 23 22 20 19 19 18 17 16 16 16 16
24 23 24 26 27 28 28 28 28 29 29 28 28 27 26 26 26 25 24 24 24 24 24 25 25 25 25 25 25 25 25 24 23 22 22 21 20 19 19 19 19 19
24 23 23 24 25 26 27 27 28 28 28 28 27 27 27 27 27 26 25 24 23 23 23 24 24 24 24 24 25 25 25 25 24 24 24 23 22 22 21 20 20 20
23 22 21 21 22 24 25 27 27 27 27 27 27 27 28 28 27 27 26 26 25 24 23 23 23 22 23 23 23 24 24 25 25 25 25 24 23 22 21 20 19 20
26 25 23 22 21 22 23 24 25 26 26 26 26 27 27 27 27 27 27 27 27 26 25 24 22 21 22 22 22 22 24 25 26 26 25 24 23 22 20 19 19 20
29 28 26 24 24 23 23 23 23 23 23 24 25 25 26 25 26 26 26 26 26 26 25 23 21 21 21 21 21 22 23 25 25 25 25 24 22 21 21 20 20 21
29 29 28 27 26 26 25 24 23 23 22 23 23 23 23 23 24 24 24 24 24 25 24 22 20 21 21 21 21 22 23 24 25 24 24 24 23 23 22 22 22 22
27 27 28 28 28 27 26 26 25 24 23 23 23 22 22 22 22 22 23 23 23 23 22 21 21 21 22 22 22 22 23 25 25 25 26 26 25 25 24 24 24 24
25 25 26 26 27 26 26 26 25 25 24 24 23 23 23 22 22 22 22 22 22 22 22 22 22 22 23 23 23 23 25 26 27 28 28 28 27 27 26 26 27 27
24 25 24 25 25 24 24 24 24 25 25 25 25 24 24 24 23 23 23 22 22 22 22 23 23 23 23 23 24 25 26 28 29 30 30 29 29 29 29 29 29 29

ECMWFNIL_700_spd_045.txt.gz
Wind_Speed
28 27 27 28 29 29 28 28 27 26 25 25 23 21 19 18 18 17 16 15 14 13 13 12 12 12 13 13 12 10 9 8 8 8 7 7 6 4 3 2 2 1
29 28 27 28 28 29 28 28 27 27 26 26 25 23 22 21 20 19 17 16 16 15 15 15 14 13 14 14 14 13 12 10 10 10 9 8 8 7 5 4 3 2
30 29 28 27 27 28 28 28 27 27 27 27 27 25 24 23 21 20 19 18 17 17 17 17 16 15 15 16 16 15 14 12 12 12 11 10 10 9 8 7 5 4
30 30 28 27 26 27 28 28 28 28 28 28 28 27 26 24 23 21 20 19 19 19 19 18 18 17 16 17 17 16 15 14 14 13 12 11 11 11 11 9 7 6
30 30 29 27 27 27 28 29 28 28 29 29 29 28 27 26 25 23 22 21 20 19 19 19 19 18 18 18 18 18 17 16 15 15 14 13 13 13 13 12 10 9
31 31 30 28 28 27 28 29 28 28 28 29 29 29 28 27 26 25 23 22 21 19 19 19 19 19 19 19 18 18 18 17 17 17 16 15 14 14 14 14 13 11
31 32 31 30 29 28 28 28 28 28 28 29 29 29 29 28 27 25 24 23 21 20 19 18 19 19 19 19 18 17 17 18 18 18 17 16 16 15 15 15 15 14
31 32 32 32 31 30 29 29 28 28 28 29 29 29 29 28 27 26 25 24 22 21 19 19 19 19 19 19 18 17 17 18 18 19 18 18 17 16 16 16 16 15
32 32 32 32 32 31 30 29 29 29 29 29 29 29 29 28 28 27 26 25 24 22 20 20 19 19 18 19 19 18 18 18 19 19 19 19 18 17 17 17 16 15
32 32 31 32 32 31 31 30 29 29 29 29 29 29 29 29 28 28 28 27 26 24 21 20 19 19 18 18 19 19 19 19 19 20 19 19 18 17 18 17 16 15
33 32 32 32 32 32 31 30 30 30 30 29 29 29 29 29 29 29 29 28 26 24 22 20 19 19 19 19 19 20 20 20 20 20 19 18 17 17 17 17 15 14
33 33 32 31 31 31 31 31 31 30 30 29 29 28 28 28 28 28 28 28 26 25 23 21 20 20 19 20 20 22 22 21 21 20 18 17 17 17 16 15 13 13
33 33 31 30 30 30 30 31 31 31 30 29 29 28 28 28 27 27 27 26 26 25 24 22 21 21 21 21 21 22 23 22 21 19 18 17 16 15 14 13 12 12
32 32 31 30 30 30 30 30 31 31 31 30 29 29 28 27 27 26 26 26 26 25 25 24 23 23 22 21 22 23 23 22 21 19 18 17 16 15 14 13 12 12
30 31 31 31 30 30 30 30 30 30 30 30 30 29 29 28 27 26 26 26 25 25 25 25 25 24 22 21 22 23 24 23 22 20 19 19 18 17 16 15 14 13
27 28 30 31 31 30 30 29 29 29 29 29 29 29 29 28 27 27 26 25 25 25 26 26 25 24 22 21 22 24 25 24 23 22 22 21 20 19 18 17 16 15
25 25 27 28 29 30 30 30 29 28 28 27 27 28 28 28 28 27 26 25 25 25 26 26 25 23 23 22 23 24 26 26 25 24 24 23 22 21 20 19 19 18
26 26 25 26 27 28 29 29 29 28 27 26 27 27 27 28 28 27 25 25 24 24 25 26 24 23 23 23 23 25 26 27 27 27 26 25 24 23 22 21 21 20
27 26 26 25 25 26 27 28 28 28 27 26 26 26 27 28 28 27 26 26 25 24 24 24 24 23 23 23 24 25 26 27 28 28 28 27 26 25 24 23 22 22
28 26 26 25 24 25 26 27 27 27 26 26 26 26 27 28 28 27 27 26 25 24 24 23 23 22 23 24 24 25 26 27 28 29 29 28 27 26 25 24 23 23
28 26 26 25 25 25 26 27 28 27 27 27 26 27 27 27 27 27 27 27 26 25 25 24 22 22 23 23 24 25 26 27 28 29 29 29 28 27 26 25 24 24
27 26 26 26 26 26 27 28 29 28 28 27 27 27 27 27 27 28 28 27 27 27 26 25 23 22 23 23 23 24 26 27 28 29 29 28 28 27 26 26 26 26
28 26 24 24 24 25 26 27 27 27 27 27 27 27 26 26 26 26 26 26 27 27 27 26 24 24 24 24 24 25 26 28 28 29 29 28 27 27 27 27 27 27
29 27 26 25 24 23 23 23 23 23 24 24 24 25 24 24 24 24 25 25 26 27 26 26 26 26 26 26 27 27 28 28 28 29 29 28 28 28 28 28 28 27
31 30 28 27 26 24 24 23 22 22 21 22 22 22 22 22 22 23 23 24 25 25 25 26 26 26 27 28 28 29 29 29 29 29 29 28 28 28 28 28 28 28
32 31 29 28 27 27 26 25 25 25 24 24 24 23 22 22 22 22 22 22 23 24 25 26 26 26 27 28 28 29 29 30 30 30 29 28 28 28 29 29 29 29

ECMWFNIL_700_spd_048.txt.gz
Wind_Speed
31 30 29 29 28 29 29 29 28 27 26 25 23 22 20 20 19 18 17 16 14 13 12 11 10 10 10 11 11 10 9 8 7 7 6 6 5 5 4 3 2 2
30 30 30 29 29 29 29 29 29 28 27 26 25 24 23 22 21 21 19 17 16 15 14 13 12 12 12 12 13 12 11 10 9 8 7 7 7 6 5 4 3 3
30 30 30 29 29 28 29 29 29 29 28 27 27 26 25 24 24 23 21 19 18 17 16 15 14 14 14 14 14 14 13 12 11 10 9 9 8 7 7 5 4 4
30 30 29 29 28 28 28 29 30 29 29 28 28 28 27 26 26 24 22 20 20 19 18 17 16 16 16 16 16 16 15 14 13 13 11 11 10 10 9 8 6 5
30 30 30 29 29 29 29 30 30 30 29 29 28 29 28 28 27 25 23 22 21 20 19 19 18 17 17 17 17 17 16 16 15 15 14 13 13 12 11 10 8 8
30 30 31 31 30 30 30 30 29 29 29 29 29 30 30 29 28 27 25 23 22 22 21 20 19 18 18 18 18 17 17 17 17 17 16 15 15 14 13 12 11 10
31 30 31 31 32 31 30 30 29 29 30 30 31 31 30 30 29 28 26 25 24 23 22 20 20 19 19 19 19 18 18 18 19 18 18 17 17 16 15 14 13 13
31 31 31 31 32 32 30 30 29 30 30 31 31 31 31 31 30 29 28 26 25 24 23 21 21 20 19 19 19 18 17 18 19 20 19 19 19 18 17 17 16 15
31 32 32 32 32 32 31 30 30 30 30 31 31 31 31 31 31 30 29 27 27 25 24 22 21 20 20 20 18 17 17 18 20 20 21 20 20 19 19 19 18 17
31 32 32 32 32 32 31 30 30 29 29 30 31 31 31 31 31 30 29 28 27 26 24 23 21 21 21 20 19 18 18 18 20 21 21 21 21 20 20 20 19 18
31 31 32 32 32 32 31 31 30 30 29 30 31 31 31 30 30 30 29 28 27 26 24 23 22 21 21 21 20 19 19 19 20 21 22 22 22 21 21 20 20 19
31 32 32 31 32 32 32 32 31 31 29 29 30 30 30 30 30 29 28 27 26 26 25 23 23 22 21 21 21 20 20 20 21 22 22 23 22 22 21 21 20 19
31 32 32 31 31 31 32 32 32 32 30 29 29 30 30 29 29 29 28 28 27 27 26 25 24 23 22 22 22 22 20 21 22 22 23 23 23 22 21 21 20 19
30 31 31 30 30 31 31 32 33 32 31 30 30 30 29 29 29 29 29 29 28 28 27 26 25 24 24 23 23 23 21 21 22 23 23 23 22 21 21 21 19 19
30 31 31 31 31 31 31 31 32 32 32 31 30 30 29 28 28 28 28 29 29 29 29 28 27 26 25 23 23 23 22 21 22 23 24 23 23 22 22 21 19 19
29 30 31 31 31 30 30 30 30 31 32 31 31 31 30 29 28 28 28 28 28 29 29 29 28 27 25 23 23 22 22 22 22 24 25 24 24 23 23 21 20 19
29 29 30 31 31 30 29 29 29 30 31 31 31 31 31 31 29 29 28 27 27 28 28 28 28 27 25 24 23 23 23 23 22 24 25 25 25 24 23 22 21 20
28 28 28 30 31 31 30 29 29 29 29 29 29 30 31 31 30 30 29 28 28 28 27 27 27 26 25 24 24 23 23 23 23 24 26 26 26 25 24 23 22 22
29 28 28 28 30 30 30 30 30 29 28 28 28 28 29 30 30 30 29 29 28 28 27 26 25 24 24 24 24 24 24 24 24 24 26 27 27 27 26 25 24 24
30 29 28 28 28 29 30 31 30 30 29 28 28 28 28 29 29 29 29 29 29 28 26 25 24 23 22 23 23 24 24 25 24 25 26 28 29 28 28 27 26 26
29 30 29 29 28 28 29 30 30 30 30 29 29 29 28 28 29 29 29 29 29 28 27 25 24 22 21 22 23 23 24 25 26 26 27 28 30 30 30 29 29 28
29 29 29 29 29 29 29 29 30 31 31 30 30 30 30 29 29 29 29 29 29 28 27 26 24 22 21 21 23 23 24 25 26 27 28 29 30 30 31 31 30 30
31 31 30 29 28 28 29 30 30 31 31 31 30 30 31 30 29 29 29 29 28 28 28 26 24 23 22 22 23 25 25 26 26 28 29 29 29 30 31 31 31 31
33 32 31 30 28 27 28 29 29 30 30 30 31 31 31 30 29 29 29 29 28 29 29 27 25 25 24 24 25 26 27 27 27 28 29 29 29 30 31 32 32 32
33 33 32 31 29 28 28 29 29 29 29 30 31 31 31 30 29 29 29 29 29 30 29 28 27 27 27 26 27 28 28 29 29 29 30 29 29 29 30 31 32 32
33 33 32 31 30 28 29 30 30 30 29 30 30 30 30 29 29 28 28 29 29 29 29 28 28 29 28 28 28 29 30 31 31 32 31 30 29 29 30 31 31 31

ECMWFNIL_700_spd_051.txt.gz
Wind_Speed
29 28 28 28 27 27 26 26 25 24 23 21 20 19 19 18 17 16 15 14 13 13 12 11 10 9 9 9 9 9 7 6 6 6 6 6 5 4 3 2 2 3
29 29 28 28 28 28 27 27 26 25 24 23 21 21 21 21 20 19 17 16 15 14 13 12 11 11 10 9 10 10 9 8 8 8 8 7 7 6 5 4 3 2
30 29 29 28 28 28 27 27 26 26 25 24 23 23 23 22 21 21 20 18 16 15 14 14 13 12 11 10 10 11 11 10 10 10 9 9 8 7 6 5 4 4
30 29 29 28 29 28 28 28 27 26 26 26 26 25 24 23 22 22 22 20 18 17 16 15 14 13 12 12 11 11 11 11 12 11 11 10 10 9 8 7 6 5
29 29 29 29 29 29 29 29 28 27 27 27 27 26 26 26 24 23 23 22 20 19 17 16 16 14 13 13 12 11 11 11 12 13 12 12 12 11 10 9 8 8
28 29 29 29 30 30 30 29 28 27 27 28 28 27 27 27 26 25 24 23 21 20 19 18 17 16 14 14 13 12 12 11 12 13 13 14 14 13 12 11 11 10
28 28 28 29 30 30 30 29 29 28 27 28 28 27 27 27 26 26 26 24 23 23 21 20 19 17 16 16 15 14 13 13 14 14 14 15 15 15 14 13 13 12
28 28 28 29 30 30 30 29 29 28 28 29 29 28 28 28 26 27 27 26 25 24 23 22 21 20 19 18 17 15 14 14 15 15 15 16 16 16 16 16 15 15
29 29 29 29 29 30 30 29 29 29 28 29 28 27 27 28 27 27 27 27 26 25 24 23 22 21 20 20 19 16 14 14 14 15 16 17 17 17 17 17 17 16
29 30 30 30 30 29 29 29 29 28 28 29 29 28 27 27 27 28 27 26 26 26 25 25 24 23 21 21 19 17 15 15 15 15 16 17 18 18 18 19 19 18
29 30 30 30 30 29 29 29 29 28 28 27 28 29 28 27 27 28 28 26 25 26 26 25 24 23 22 21 20 18 16 16 16 16 16 17 18 19 19 19 19 19
29 29 29 29 30 30 29 29 29 28 28 27 27 28 29 28 26 27 27 26 24 25 25 25 25 24 22 21 20 18 17 17 17 17 16 17 18 19 19 19 19 19
28 29 29 28 29 30 29 29 29 28 28 28 28 28 29 29 27 25 25 25 24 24 25 25 25 24 22 22 21 20 18 17 17 17 17 17 18 19 20 20 20 20
28 28 28 28 28 29 30 30 29 29 29 29 28 28 28 28 27 25 24 24 24 24 25 25 24 24 23 22 21 20 19 18 18 18 18 18 19 19 20 21 20 20
28 28 28 28 28 29 29 30 30 30 30 30 29 28 28 27 27 26 24 24 24 25 25 26 25 24 24 23 21 20 19 19 18 18 19 19 20 20 21 21 21 20
28 28 28 27 28 28 29 30 30 30 31 31 30 29 28 28 27 27 25 23 24 25 26 26 26 25 24 22 21 20 19 19 19 19 20 20 20 21 22 21 20 20
28 28 28 27 27 27 28 29 30 30 30 31 31 29 29 29 28 28 26 24 24 25 25 26 25 25 24 22 20 20 20 20 21 20 21 21 21 22 22 22 21 21
28 28 28 27 27 27 28 29 30 30 30 31 31 30 29 30 30 29 27 26 26 26 26 26 25 25 24 21 20 21 21 21 22 22 22 22 22 23 23 23 22 22
28 28 27 27 28 27 28 29 31 31 30 30 30 30 29 30 31 30 28 28 28 27 26 25 25 25 24 22 21 21 22 23 23 23 23 23 23 23 23 23 23 23
30 28 27 27 28 28 28 30 31 32 31 30 30 30 30 30 31 31 30 29 29 28 28 26 26 26 25 22 21 22 23 24 24 24 24 24 24 23 23 24 24 24
32 29 28 28 29 30 29 30 32 32 32 31 30 30 30 30 31 32 31 30 30 29 29 27 27 28 26 22 21 22 23 25 25 26 26 25 24 23 23 24 24 24
34 31 28 28 30 31 30 30 32 34 33 33 32 31 31 30 30 31 31 30 30 30 30 28 27 29 27 22 20 22 24 26 27 27 27 26 25 23 23 23 23 24
35 31 27 28 30 32 31 30 32 34 35 35 33 33 32 31 30 30 30 30 30 30 30 29 28 29 27 23 21 23 25 27 27 27 27 26 25 24 23 23 23 24
36 31 27 27 29 31 31 30 31 33 34 35 34 33 33 32 31 30 30 31 31 30 30 29 28 28 27 24 23 24 25 27 28 28 27 26 25 24 24 23 23 23
36 31 27 26 27 30 31 31 31 31 32 33 33 33 33 32 31 31 31 31 31 31 30 29 28 28 27 26 25 25 26 27 28 29 28 26 25 24 24 24 24 24
36 32 28 26 25 27 29 31 31 31 31 31 31 32 33 32 32 32 32 32 31 31 30 29 29 29 29 27 26 26 27 28 29 30 29 27 25 24 24 24 24 24

ECMWFNIL_700_spd_054.txt.gz
Wind_Speed
27 27 26 26 26 25 24 23 22 21 20 18 17 16 15 14 14 13 11 11 11 10 10 9 8 7 6 6 6 5 5 5 5 5 4 3 3 3 3 4 4 4
26 26 27 27 26 25 24 23 23 22 20 19 18 17 17 16 16 15 13 12 12 11 11 10 9 8 7 6 6 6 6 6 6 6 5 4 4 3 3 3 4 4
26 26 26 26 27 26 25 24 23 22 21 20 19 19 19 18 17 17 16 14 13 13 12 11 10 9 7 6 6 7 7 8 8 7 6 6 5 4 4 3 3 4
27 27 26 26 26 26 25 25 24 23 22 21 20 20 19 19 19 18 17 16 15 14 13 12 10 10 8 7 6 7 8 9 9 9 8 7 6 6 5 5 4 4
27 27 26 26 25 25 26 26 25 24 23 23 22 21 20 20 20 18 18 18 17 16 15 13 12 11 9 8 7 7 8 9 10 10 9 9 8 8 7 7 6 5
26 27 27 26 26 26 26 26 25 24 24 24 24 23 22 22 21 19 18 19 18 18 17 15 14 13 11 10 9 9 9 9 10 10 10 10 10 10 10 9 8 7
25 26 26 27 27 27 27 26 25 25 24 24 25 25 24 24 23 20 19 20 20 19 18 17 15 14 13 12 10 9 9 9 10 10 10 11 12 12 11 10 10 9
25 25 25 26 27 28 28 26 26 26 25 25 25 26 25 25 24 22 19 20 22 21 20 18 17 16 15 13 12 10 10 9 10 10 11 12 13 13 13 12 12 12
26 26 25 26 26 27 28 27 26 26 26 25 26 26 26 25 25 23 20 20 22 22 22 20 18 18 17 16 13 12 11 10 10 11 11 12 13 14 14 14 14 13
27 27 27 26 26 26 27 27 26 26 26 26 26 26 27 26 24 24 23 22 22 22 23 22 20 19 19 17 15 14 13 12 11 11 11 11 13 14 15 15 15 14
27 28 28 27 27 26 26 25 26 26 26 27 26 27 27 26 24 24 24 24 23 22 22 23 21 20 19 19 17 15 14 14 13 13 12 11 12 13 14 15 15 15
27 28 28 28 28 27 26 25 25 26 26 27 26 26 27 27 25 24 23 23 22 22 21 22 22 21 20 19 19 17 16 15 14 14 13 12 12 13 14 14 15 15
26 27 27 27 28 28 27 26 26 26 26 26 26 26 26 26 25 24 23 22 21 21 21 21 21 21 21 20 19 18 17 16 15 14 14 13 13 14 14 14 14 15
24 24 25 26 27 27 27 27 26 26 26 25 25 26 26 26 25 23 23 23 21 20 21 22 21 22 22 21 20 19 18 16 16 15 15 15 14 14 15 14 14 14
23 23 24 25 26 27 27 27 27 26 26 26 26 26 27 27 26 23 22 23 22 20 21 23 23 22 22 21 20 19 19 17 16 16 16 16 15 15 15 15 14 15
24 23 24 25 25 26 26 27 27 27 27 27 26 26 27 27 27 25 22 22 23 22 21 23 24 23 21 21 19 19 19 18 17 17 17 17 17 17 16 15 15 15
24 24 24 25 24 24 25 26 27 26 27 27 27 27 27 28 28 26 23 21 22 23 22 23 24 22 21 20 20 19 19 19 18 18 18 18 18 18 17 16 15 15
24 24 24 25 24 24 24 25 26 27 27 28 28 27 27 28 28 28 26 22 22 24 24 23 23 23 21 20 20 20 19 19 19 20 20 20 19 19 19 17 16 16
24 24 23 24 24 24 24 25 26 27 27 28 28 28 27 28 28 29 28 25 23 23 23 23 23 23 22 21 20 19 19 19 19 20 21 21 21 20 20 20 18 17
25 24 23 23 23 24 25 25 26 27 27 27 28 29 29 28 28 29 29 28 26 25 24 24 23 22 21 20 19 18 18 19 20 21 22 23 23 22 22 21 20 18
26 25 25 23 23 24 25 26 26 26 27 28 29 30 30 29 28 28 29 30 29 28 26 25 24 24 23 21 19 17 17 19 20 22 23 24 24 24 23 22 20 19
27 27 26 26 25 25 25 26 26 26 26 27 29 30 31 30 29 28 29 30 30 30 29 27 26 25 24 24 21 18 18 19 21 23 24 25 25 25 24 23 21 20
29 28 28 28 27 26 25 25 26 27 27 27 28 30 32 33 31 29 29 30 30 31 30 29 28 26 25 25 23 20 19 21 22 23 25 26 26 25 25 24 22 21
31 31 30 30 29 28 26 25 26 28 28 28 28 29 32 33 32 30 30 30 31 31 30 29 29 28 27 26 24 22 21 21 22 24 26 27 26 26 25 25 23 21
33 33 32 32 32 29 27 26 26 27 29 29 28 28 30 32 33 32 32 31 31 31 30 29 29 29 28 27 26 24 23 23 23 25 28 28 27 26 25 25 23 22
35 35 34 34 34 32 28 26 26 27 29 30 29 28 29 32 33 34 33 31 31 30 30 29 28 28 29 27 26 25 24 24 25 27 29 29 27 26 25 25 23 22

ECMWFNIL_700_spd_057.txt.gz
Wind_Speed
26 24 23 23 26 26 24 23 22 21 20 19 18 17 16 15 14 13 13 12 12 11 10 10 9 8 7 7 7 7 7 6 6 6 6 7 7 6 5 5 5 5
26 26 25 24 24 25 26 24 23 22 21 19 18 18 17 16 15 14 13 12 12 11 11 10 10 9 8 7 7 7 7 7 7 7 6 7 6 6 6 5 4 4
26 26 26 25 24 23 24 24 23 23 22 21 20 19 19 17 16 15 14 13 13 12 11 11 10 10 8 7 7 7 7 8 8 8 7 7 7 6 6 5 5 4
26 26 25 25 24 23 23 23 23 23 23 22 21 20 20 18 17 17 16 15 14 13 12 11 11 10 9 8 7 7 7 8 8 8 8 8 8 7 6 6 6 5
27 26 25 25 25 24 24 24 23 23 23 22 22 21 21 19 18 18 17 17 16 15 14 13 12 11 10 9 8 8 7 7 8 8 9 9 9 9 8 7 7 7
28 28 27 26 25 25 25 24 23 23 23 23 23 22 21 21 19 18 18 17 17 17 16 15 14 13 12 10 9 8 8 7 8 9 9 10 11 10 10 9 8 8
28 28 28 28 27 26 26 25 24 24 24 24 24 23 22 22 21 20 19 18 18 18 18 17 16 15 14 13 11 10 9 8 8 8 9 11 12 12 12 11 10 10
27 27 28 28 28 28 27 26 25 25 24 25 25 25 24 23 21 20 20 19 19 18 18 18 18 17 16 15 14 12 11 10 9 8 9 11 12 12 13 13 13 12
26 26 27 28 29 30 29 28 26 25 25 25 26 25 25 24 23 21 20 21 21 20 19 19 19 19 18 17 15 14 12 11 10 9 10 11 11 12 13 14 14 14
27 26 27 27 28 29 29 29 28 27 26 26 26 26 26 25 24 22 21 20 22 22 21 20 20 20 19 18 17 16 15 13 12 11 10 11 11 12 13 14 15 15
28 27 27 28 28 28 29 29 29 28 28 27 26 27 27 26 25 24 22 20 21 22 22 21 20 20 20 19 18 17 16 15 14 12 11 11 11 11 12 13 14 15
28 28 28 28 28 27 27 27 28 29 29 28 27 26 26 26 25 24 23 21 20 21 22 21 20 21 21 20 19 19 18 17 16 14 12 12 11 11 11 11 12 14
27 27 28 28 28 27 26 26 27 28 28 28 28 27 27 26 26 24 22 21 20 20 21 20 20 21 21 22 21 20 20 19 17 15 14 13 12 11 12 11 11 12
25 25 26 27 27 28 27 27 27 27 27 27 27 28 28 27 26 24 22 21 20 20 20 20 21 22 22 23 23 22 21 20 18 17 15 14 13 12 12 12 12 12
22 23 24 26 27 28 28 28 27 26 26 26 26 28 28 27 26 24 22 22 21 21 20 20 22 22 22 23 23 23 22 20 19 18 17 16 15 14 13 13 12 12
22 22 23 24 26 27 27 27 27 26 26 26 26 26 27 27 27 25 23 22 21 21 22 22 22 22 22 22 23 23 22 21 20 19 19 18 17 16 15 14 13 13
23 23 23 23 24 24 25 26 26 26 26 26 26 26 27 27 28 27 24 23 22 22 22 22 22 21 21 22 22 23 23 23 22 20 21 20 20 19 17 16 15 15
24 24 24 24 23 23 24 24 25 25 25 26 26 26 26 27 28 28 25 23 23 23 23 22 22 21 21 21 22 23 24 24 23 22 22 22 22 21 19 18 17 16
26 25 24 24 24 24 24 24 25 25 24 25 25 25 26 27 27 28 27 25 24 24 23 23 22 21 21 21 21 22 23 24 24 24 23 23 23 22 21 20 19 18
29 26 25 24 24 25 25 26 26 25 23 24 24 24 25 26 27 28 28 27 25 24 24 23 22 22 21 21 21 22 23 23 24 24 24 24 23 23 23 22 20 19
31 29 27 26 25 26 26 27 27 26 24 24 24 24 24 24 25 27 28 28 27 25 24 24 23 22 22 21 21 21 21 22 23 24 24 25 25 25 24 23 21 20
31 30 29 27 27 27 27 27 27 27 27 25 24 24 23 24 25 26 27 28 29 27 26 25 24 23 23 22 21 20 20 20 21 23 24 25 25 25 25 23 21 20
31 30 30 29 29 28 27 27 27 28 28 28 27 25 24 24 25 26 26 27 28 29 28 26 25 24 24 24 23 21 21 21 21 22 23 24 25 25 25 24 22 21
31 31 31 30 30 29 29 28 28 28 29 29 29 27 25 24 24 25 26 26 27 29 29 28 26 25 25 25 24 23 23 22 22 22 23 24 24 25 25 24 22 21
32 32 32 32 31 30 30 30 29 28 28 29 30 30 28 26 25 25 26 27 27 28 29 29 28 27 26 25 24 24 24 24 24 24 24 24 24 25 25 25 23 21
35 34 33 33 32 32 32 32 31 30 30 30 30 31 31 30 28 27 26 27 28 28 29 30 30 29 28 26 25 25 25 25 26 26 25 25 24 25 25 25 23 21

ECMWFNIL_700_spd_060.txt.gz
Wind_Speed
23 23 24 25 26 25 24 23 22 21 19 18 17 15 15 15 15 15 14 14 14 13 12 11 10 9 9 9 9 10 10 9 9 9 8 8 7 6 5 5 5 4
23 23 24 25 26 26 25 23 22 21 20 19 18 17 17 17 16 16 15 15 14 13 13 12 12 11 10 10 10 10 10 10 9 9 9 8 7 6 6 5 5 5
24 23 24 25 25 24 23 24 24 22 22 21 20 19 19 18 17 17 16 15 15 14 14 13 13 12 12 11 11 11 11 11 11 10 10 9 8 7 7 6 6 6
24 24 23 24 24 23 22 24 25 25 24 23 22 22 21 20 19 18 17 17 16 15 15 14 14 14 13 12 12 12 12 12 12 12 11 10 10 9 8 7 6 6
25 24 23 23 24 24 23 23 25 26 26 25 24 24 23 23 21 20 19 18 17 16 16 16 15 15 15 14 13 13 13 13 13 13 13 12 11 11 9 8 8 7
26 26 25 24 24 25 26 24 23 24 26 26 26 25 25 24 24 22 21 20 19 18 17 17 16 16 16 15 14 14 14 14 14 14 14 14 14 13 12 10 9 8
27 27 26 25 24 25 26 25 24 23 24 25 26 26 26 25 25 23 22 22 21 20 19 18 18 17 17 16 15 15 15 15 15 16 15 16 16 15 14 13 12 11
26 27 27 27 26 26 26 26 26 25 24 24 25 25 26 26 25 24 23 23 23 22 22 21 20 19 19 18 17 16 16 16 16 16 16 17 17 17 16 16 15 14
27 27 27 28 28 28 27 26 26 26 26 26 25 24 25 25 25 25 24 24 24 24 24 24 23 22 21 20 19 18 17 17 16 16 17 17 18 18 18 18 17 16
30 29 28 29 29 28 28 27 26 26 27 27 26 26 26 25 25 25 25 25 25 24 24 25 25 24 24 23 21 20 19 18 17 17 17 17 18 18 19 20 19 19
31 30 30 29 29 29 28 27 27 27 28 28 28 27 27 27 26 26 26 26 26 25 25 25 25 25 25 24 23 22 21 20 20 19 18 18 18 18 20 21 21 20
31 31 30 29 29 28 28 28 28 28 29 29 29 29 28 28 28 28 27 26 26 26 26 26 25 25 26 25 25 24 24 23 22 22 20 19 18 18 19 19 20 21
31 31 30 29 29 28 28 28 28 29 29 29 29 30 30 30 30 29 28 26 25 25 27 27 27 26 26 26 26 26 26 26 25 24 22 21 20 19 19 19 19 20
31 30 30 29 29 29 29 29 29 29 29 30 30 31 31 31 30 30 29 28 26 25 26 27 28 29 28 27 28 28 28 28 27 26 25 23 21 19 19 19 19 19
30 30 31 31 30 30 30 29 29 29 29 30 31 31 31 31 31 31 30 30 28 27 26 27 29 31 30 29 29 29 30 29 28 27 26 24 22 20 20 20 20 20
31 31 32 32 32 31 31 30 30 30 30 30 31 31 31 31 31 31 31 31 30 28 27 28 30 31 30 30 29 30 30 30 30 29 28 26 24 22 21 21 20 20
32 32 32 32 31 30 31 31 31 31 31 31 31 31 31 31 31 32 32 31 31 30 29 29 29 29 29 29 29 29 31 31 31 30 29 28 27 25 23 22 22 21
32 32 31 31 30 29 29 30 31 32 32 32 32 31 30 30 31 31 32 31 31 30 30 30 29 28 28 27 28 29 30 31 32 32 31 30 29 27 25 24 23 23
31 32 32 31 29 28 28 29 31 32 32 32 31 31 31 31 31 31 31 31 31 30 30 29 29 28 27 27 27 28 29 30 32 32 32 31 30 28 27 26 25 24
32 32 32 31 30 30 29 29 30 30 30 30 30 31 31 31 31 31 31 31 30 29 29 29 29 28 27 27 26 27 28 29 31 32 32 32 31 30 29 28 27 27
33 33 33 33 32 32 31 30 30 29 28 28 29 30 30 30 30 31 31 31 30 29 28 28 28 27 27 26 26 26 27 28 30 32 33 32 32 31 30 29 29 28
35 35 35 35 34 34 34 32 31 29 29 29 29 29 29 30 30 31 31 31 30 30 29 28 27 27 27 27 26 26 26 28 29 31 32 32 32 31 31 30 29 29
37 36 36 37 37 36 35 33 32 31 30 31 30 30 29 29 29 29 30 30 30 30 30 28 26 26 27 27 26 26 27 28 29 30 31 31 31 31 30 30 30 29
37 38 38 38 39 38 36 35 33 33 32 32 32 31 30 29 29 28 29 29 30 30 30 28 27 26 27 27 27 27 27 28 28 28 29 29 29 29 29 30 30 29
37 40 40 40 40 40 39 37 35 34 34 34 34 33 32 31 30 30 29 29 29 29 29 29 28 27 27 27 27 28 29 29 29 29 29 28 27 27 28 28 29 29
37 42 43 42 42 42 41 40 39 37 36 35 35 35 34 33 32 31 30 30 29 29 29 29 29 28 28 28 28 29 30 30 31 31 30 29 28 28 28 28 27 28

ECMWFNIL_700_spd_063.txt.gz
Wind_Speed
22 22 23 22 21 21 21 20 19 18 17 16 15 14 14 13 13 13 13 13 13 12 11 10 9 9 10 10 10 9 8 7 6 6 5 5 5 5 4 4 4 5
22 22 22 23 22 22 22 22 21 20 19 17 16 15 16 16 16 15 14 15 14 13 13 12 11 10 10 10 10 10 9 8 8 7 7 6 5 5 4 4 4 5
23 22 22 22 22 22 23 23 23 22 21 20 19 18 17 18 17 16 16 15 15 14 14 13 12 12 11 11 11 11 10 10 10 9 8 7 6 5 5 4 3 4
23 23 22 22 21 22 23 24 24 23 22 21 21 20 19 19 19 18 17 16 15 15 15 14 13 13 13 12 12 11 11 11 11 11 10 9 7 6 6 5 4 4
22 22 22 22 22 22 23 23 24 24 23 22 21 21 21 21 20 19 18 17 16 16 15 15 14 14 14 14 13 13 13 13 13 12 11 10 9 9 8 7 6 6
24 23 22 22 23 23 24 22 21 23 24 23 23 22 22 21 21 20 19 17 17 16 16 15 15 14 14 14 14 14 14 14 14 14 13 12 12 11 10 9 8 8
26 25 24 23 23 24 25 23 22 22 23 25 24 23 22 22 21 21 20 19 19 18 17 16 15 15 15 15 15 15 15 16 16 16 15 14 14 14 12 11 10 9
26 26 25 24 24 25 25 25 24 22 22 25 26 25 25 24 22 22 21 21 21 20 19 18 17 16 16 16 16 16 16 16 17 17 16 16 16 15 14 14 13 12
27 27 27 26 26 25 25 25 25 23 23 24 25 26 26 26 25 24 23 23 23 22 22 21 20 19 18 17 17 17 17 17 17 17 17 17 17 17 17 17 16 14
28 28 28 28 28 27 26 25 25 24 24 24 24 25 27 27 27 26 26 25 25 24 24 23 22 21 20 19 18 18 18 18 18 18 18 18 18 18 18 19 19 17
30 29 29 29 28 28 27 26 25 25 25 25 25 25 26 26 27 27 27 27 26 25 25 24 23 23 22 22 21 20 20 19 19 20 19 18 18 19 20 21 21 20
31 31 30 29 29 28 27 26 27 27 27 26 26 26 26 26 27 27 27 27 27 26 26 25 24 24 24 23 23 22 22 22 22 22 21 20 19 19 20 21 22 21
32 32 31 30 29 28 28 28 28 28 28 27 27 27 27 27 28 28 28 28 27 27 26 26 25 25 25 24 24 24 24 24 24 24 23 22 21 21 21 21 22 22
32 32 32 31 30 30 29 29 29 29 29 28 28 28 28 28 28 28 28 28 28 28 27 27 27 27 26 26 26 26 26 26 26 26 26 25 24 23 23 23 22 22
33 33 32 32 31 31 30 29 29 29 29 29 30 30 29 29 29 29 29 30 29 29 28 28 28 28 28 27 27 28 28 27 27 27 27 27 26 26 26 25 24 22
34 34 33 33 32 31 31 30 30 30 30 31 31 31 30 30 30 31 31 31 31 30 30 30 29 29 28 27 27 28 29 29 29 28 28 28 28 28 28 27 25 24
32 34 34 34 33 32 32 31 31 31 31 31 31 31 31 31 31 32 32 31 31 31 31 31 30 29 28 27 26 27 28 29 30 29 29 29 30 30 30 29 27 26
30 32 34 34 33 32 32 31 32 32 32 32 32 32 32 32 32 32 32 32 32 32 32 31 30 28 28 27 26 26 27 28 30 30 30 30 30 31 31 30 29 28
30 31 33 34 34 33 32 32 33 33 33 33 33 33 33 33 32 32 31 32 32 32 32 31 30 29 28 27 26 26 26 28 29 30 30 30 31 31 32 32 31 30
31 30 31 32 33 33 34 34 34 34 33 33 34 34 34 33 32 32 31 31 31 31 31 31 30 29 28 27 26 26 26 27 29 30 30 30 30 31 32 33 32 32
31 31 31 31 32 33 34 34 34 33 33 33 33 34 34 34 33 33 32 31 31 30 31 30 29 28 27 27 26 25 25 27 28 30 31 31 31 31 32 32 32 32
32 31 31 30 30 31 32 32 32 32 32 32 32 33 33 34 34 33 33 32 31 31 31 30 28 26 26 26 26 25 26 27 29 30 31 32 31 31 31 32 32 32
32 32 32 31 30 30 30 30 30 31 31 31 31 32 33 33 33 32 32 32 32 31 31 30 27 26 26 26 25 26 27 28 29 29 31 32 31 31 31 31 31 31
33 33 32 32 32 31 31 31 30 30 30 30 30 31 32 33 33 33 33 32 31 30 29 29 28 27 26 26 25 27 28 29 29 30 30 31 31 31 30 30 30 30
33 33 33 33 33 33 33 32 32 31 31 31 31 32 32 33 34 34 34 31 30 29 28 28 27 27 27 27 26 27 29 29 30 31 31 30 30 30 30 29 29 28
33 32 33 33 34 34 34 34 34 33 33 33 32 32 32 33 34 35 35 33 31 29 28 28 27 26 27 27 26 27 29 30 31 32 31 31 30 29 28 28 27 26

ECMWFNIL_700_spd_066.txt.gz
Wind_Speed
17 17 18 18 18 19 19 17 16 15 14 13 12 11 10 10 9 8 7 7 7 6 6 5 5 5 6 6 5 5 5 4 4 4 4 3 2 3 3 3 3 3
17 17 18 19 19 19 19 18 17 16 15 14 13 13 12 12 11 10 9 9 8 8 8 7 6 6 7 7 7 6 6 5 5 5 4 4 3 3 3 3 3 2
18 18 18 19 19 19 19 19 19 18 17 16 15 14 13 13 13 12 11 10 9 9 9 8 8 8 8 8 8 7 7 7 6 5 5 4 4 3 3 3 3 2
19 18 18 18 19 19 19 20 20 20 19 18 16 15 14 14 14 14 13 12 10 10 10 9 9 9 9 9 9 8 8 8 7 7 6 6 5 4 4 3 3 2
19 18 18 18 20 21 21 22 22 21 20 19 18 17 16 15 15 15 14 13 11 10 10 10 10 10 10 10 10 9 9 8 8 8 8 7 7 6 5 4 3 3
20 19 19 19 20 21 22 22 22 23 22 20 20 19 18 17 17 16 15 13 12 11 10 10 10 10 10 11 11 10 9 9 9 8 8 8 8 7 6 5 5 5
21 20 20 20 20 21 22 22 23 23 23 22 22 21 20 19 18 17 16 15 14 13 11 10 10 10 10 11 11 11 11 10 10 9 9 9 9 9 8 8 7 7
22 21 21 21 21 22 22 22 22 23 23 24 24 23 21 20 19 18 17 17 16 14 13 12 11 11 11 11 11 11 12 11 11 10 10 10 10 10 10 10 9 9
23 23 23 23 23 22 22 22 22 22 23 23 24 24 23 22 21 20 19 18 17 16 15 14 13 13 13 12 11 11 12 12 12 12 11 11 11 11 12 12 12 11
25 24 24 24 24 24 23 22 22 23 23 23 23 23 24 24 23 22 21 20 19 18 17 16 16 15 15 14 13 13 12 12 13 13 13 12 12 12 13 14 14 13
27 26 25 26 25 25 24 23 23 24 24 23 23 23 24 24 25 25 24 23 21 20 19 18 18 18 17 17 16 15 15 14 14 14 14 14 14 14 14 15 15 15
28 27 27 26 26 26 25 24 25 25 25 24 24 23 23 24 25 26 26 25 24 23 22 21 21 20 20 19 18 17 17 16 16 16 16 16 16 16 16 16 16 16
29 29 28 27 27 26 26 26 26 26 26 26 25 25 25 25 25 25 25 26 25 25 25 24 23 23 22 22 21 20 19 18 18 17 17 17 17 17 18 18 18 18
28 29 29 29 28 28 27 27 27 27 27 27 27 27 26 25 25 25 25 25 26 26 26 25 25 25 24 23 22 22 21 20 19 19 19 19 19 19 20 20 20 20
26 27 28 29 29 29 28 28 28 28 28 28 29 28 27 27 27 26 26 26 26 27 26 26 27 26 25 24 23 23 23 22 21 21 21 20 20 21 22 22 22 22
24 25 27 29 29 29 29 29 29 29 29 29 29 29 29 29 28 28 28 28 28 28 28 28 28 27 26 25 25 24 24 23 23 23 23 23 23 23 23 23 24 24
23 25 27 28 29 29 29 29 30 30 31 30 30 30 30 30 30 30 29 29 29 29 29 30 30 29 27 26 26 25 25 25 25 24 25 25 25 25 25 24 25 25
24 25 26 28 29 30 30 30 30 31 32 32 32 31 30 31 31 31 30 30 30 30 30 30 30 29 28 28 27 26 26 26 25 25 26 26 27 27 27 26 26 26
24 25 27 28 29 29 30 30 30 31 32 33 33 32 32 32 31 31 31 31 31 31 31 30 29 29 29 28 28 27 27 27 26 26 26 27 27 28 28 27 27 27
26 26 27 28 28 29 29 30 30 31 31 32 33 33 33 32 31 31 30 30 31 31 31 30 29 28 28 29 28 28 27 28 28 27 27 28 28 29 29 29 28 28
27 27 28 27 27 27 28 29 30 30 31 31 32 32 32 32 31 31 31 31 30 30 30 30 29 28 28 29 29 28 28 29 29 29 29 28 28 29 29 29 29 29
27 28 28 27 26 27 28 29 30 30 30 30 31 30 30 30 30 31 30 30 30 30 31 30 27 27 27 28 27 28 29 30 31 30 30 29 29 28 29 29 29 29
27 28 28 27 26 28 29 30 30 31 31 30 30 29 29 28 29 29 29 30 30 31 31 30 27 26 27 27 26 27 29 30 30 30 30 30 29 28 29 29 29 29
28 28 27 27 27 28 28 30 31 32 32 32 31 30 29 29 28 29 29 29 30 30 31 30 28 27 28 28 27 28 29 29 29 30 31 31 30 29 29 29 29 28
29 28 28 28 28 27 27 28 30 32 34 34 33 32 31 30 30 30 30 30 30 30 29 29 27 27 28 28 28 29 29 29 29 30 30 31 30 30 29 29 28 27
30 30 29 29 28 27 27 26 28 31 34 34 34 33 33 32 32 32 31 30 29 29 29 28 27 26 26 27 28 29 30 30 30 30 30 30 31 31 31 30 28 27

ECMWFNIL_700_spd_069.txt.gz
Wind_Speed
16 16 17 17 17 17 17 16 15 14 13 12 11 10 10 9 8 8 7 7 6 5 4 4 4 4 4 5 4 4 4 4 5 5 5 5 5 5 5 4 4 4
16 16 17 18 18 18 18 17 16 14 13 13 12 12 11 10 9 9 8 8 7 6 6 5 4 4 4 4 4 4 4 3 4 4 5 5 4 4 4 4 3 4
17 16 16 18 18 18 18 18 17 16 15 14 14 13 13 12 11 10 9 9 8 8 7 6 5 5 4 4 4 4 4 4 4 4 4 3 3 3 3 3 2 2
18 16 16 17 18 19 19 19 19 18 16 15 15 14 14 13 12 12 11 10 9 8 8 7 6 6 5 4 4 4 4 4 4 4 4 3 3 2 2 3 3 2
18 17 17 17 18 20 20 20 19 18 18 17 17 16 15 14 14 13 12 11 10 9 8 8 7 7 6 5 5 5 5 5 5 5 5 4 4 3 3 3 3 3
18 18 18 18 18 19 20 20 19 19 19 19 19 18 17 16 15 14 13 12 12 10 9 8 8 8 8 7 6 6 6 6 6 6 6 6 6 5 5 4 4 5
19 19 19 19 19 19 20 21 20 20 20 20 20 20 19 18 16 15 14 13 13 12 11 10 9 9 9 8 7 7 7 7 7 7 7 7 7 7 7 7 6 6
21 20 20 19 19 19 20 21 21 21 21 22 21 21 20 19 18 17 16 15 15 14 13 12 11 10 9 8 8 7 8 8 8 8 8 9 9 9 9 9 8 8
23 22 21 21 20 20 20 20 21 21 22 22 22 22 21 20 20 19 18 17 16 16 15 14 13 12 11 9 9 8 8 9 9 9 9 10 10 10 11 11 10 10
25 24 23 22 22 21 20 20 21 22 22 22 22 23 23 22 21 21 20 19 18 17 17 16 15 14 13 12 11 10 10 10 10 10 10 11 11 11 12 12 12 12
26 26 25 24 23 22 21 21 21 22 22 23 23 23 23 23 23 23 22 21 20 19 18 18 17 17 16 15 14 13 13 12 12 12 12 12 12 12 13 13 13 13
26 27 27 26 25 24 23 23 23 23 23 23 23 23 23 23 23 24 24 23 22 21 20 20 19 19 18 17 17 16 16 15 15 14 14 14 13 14 14 15 15 15
24 26 27 27 26 26 25 25 24 24 24 24 24 24 24 24 23 23 24 24 24 23 23 22 21 21 21 20 20 19 18 18 17 17 17 16 16 16 16 17 16 16
24 24 25 26 27 27 27 27 26 26 26 25 25 25 25 25 24 24 24 24 25 25 25 25 24 24 24 23 22 21 21 20 19 19 19 18 18 18 19 19 19 18
24 24 24 25 26 27 28 28 28 28 28 28 27 27 27 26 26 25 25 25 25 26 26 26 27 27 26 25 24 24 23 22 22 21 21 21 20 21 21 21 21 20
24 24 24 25 26 27 28 29 29 29 29 29 29 29 29 28 28 28 27 27 27 27 27 28 28 28 26 25 25 25 24 24 24 23 23 23 23 23 23 23 22 22
24 25 25 26 27 27 28 29 30 30 30 30 30 30 30 30 30 30 30 29 29 29 29 30 29 28 27 26 26 26 25 26 26 25 25 25 25 25 25 24 24 24
24 25 25 26 26 27 27 28 29 30 30 31 31 31 31 31 32 32 32 31 31 31 31 31 31 30 29 28 28 27 27 27 27 27 27 27 27 27 27 26 25 25
23 24 25 26 26 27 27 28 29 30 30 30 30 31 31 32 32 32 33 33 33 32 32 32 32 31 30 30 30 29 29 29 30 29 29 29 29 29 28 28 27 27
23 24 24 25 25 26 27 28 29 29 30 30 30 31 31 31 32 32 32 33 33 33 32 33 32 31 30 31 31 31 31 31 32 32 31 31 31 30 30 30 29 29
24 25 25 25 26 27 28 29 29 30 30 30 31 31 31 30 31 32 32 32 32 32 32 32 31 29 29 30 30 30 31 32 33 32 32 32 32 31 31 30 30 30
25 25 26 26 27 28 29 30 30 30 30 30 31 31 30 30 30 31 31 31 31 31 32 31 29 28 29 29 29 29 31 32 33 32 32 32 31 30 30 30 30 31
24 26 26 27 27 28 29 29 30 30 30 31 31 31 31 30 30 29 29 29 30 31 31 30 28 28 29 28 28 29 30 32 32 32 32 32 31 30 30 30 31 31
24 25 26 27 27 28 28 28 28 29 30 31 31 32 32 31 30 29 29 29 29 29 29 29 28 28 28 28 28 29 30 30 30 31 32 32 31 30 30 31 31 31
27 26 26 27 27 27 27 28 28 28 29 31 32 33 33 32 32 31 29 29 28 28 28 28 27 27 27 28 28 28 29 30 30 30 31 30 29 29 30 30 30 30
29 29 28 28 27 28 28 29 29 30 30 31 31 32 33 34 34 32 30 29 28 28 28 28 27 26 27 27 27 28 29 29 30 30 29 28 28 28 29 29 29 30

ECMWFNIL_700_spd_072.txt.gz
Wind_Speed
18 18 18 18 16 16 16 17 17 16 14 14 13 13 13 12 11 11 10 9 8 7 6 6 6 5 5 5 5 5 6 6 7 8 7 7 7 7 6 6 6 7
18 18 18 18 17 16 16 17 18 17 16 15 15 14 14 13 12 11 11 10 9 8 7 6 6 6 5 5 5 5 5 5 6 7 7 7 7 7 6 6 6 6
18 18 18 18 18 17 17 18 18 18 17 17 16 15 15 14 13 12 11 11 10 9 8 7 6 6 6 6 6 5 5 5 5 6 6 6 6 6 6 6 5 5
18 18 18 19 19 19 19 19 18 18 18 18 17 16 16 15 14 13 12 11 11 10 9 8 7 7 6 6 6 6 6 5 5 5 5 5 5 5 5 6 6 5
18 19 19 20 21 21 20 20 19 19 19 18 18 17 16 15 14 14 13 12 11 11 10 10 9 8 7 7 7 7 6 6 6 6 5 5 5 5 5 5 5 5
19 19 20 20 21 21 21 21 20 20 19 19 19 18 18 17 16 14 14 13 12 12 11 11 10 10 9 9 8 8 7 7 7 7 6 6 6 6 6 5 5 5
19 20 20 20 20 21 22 22 22 21 20 20 20 19 19 18 17 16 15 14 14 13 12 12 11 11 11 11 10 9 9 8 8 8 8 7 7 7 7 6 6 5
21 21 21 21 20 21 22 23 23 22 22 21 20 20 20 20 19 18 17 16 15 14 13 13 12 12 12 12 11 11 10 10 9 9 9 9 8 8 8 7 7 6
23 23 22 21 21 21 21 22 23 23 23 22 21 21 21 21 20 20 19 18 17 16 15 14 14 13 13 13 12 12 12 11 11 11 10 10 10 10 10 9 8 8
26 25 24 23 22 21 21 21 22 23 24 23 22 22 22 22 22 22 21 20 19 18 17 16 15 15 15 14 14 14 13 13 12 12 12 12 11 11 11 11 10 10
28 26 25 24 23 22 21 21 22 23 23 23 24 24 23 23 23 23 22 21 20 20 19 19 18 17 17 16 16 16 15 14 14 13 13 13 13 13 12 12 12 12
29 28 27 26 25 24 23 22 22 23 23 23 24 24 24 24 24 24 24 23 22 21 21 21 20 20 19 18 18 18 18 17 16 15 15 14 14 14 14 14 13 13
29 29 28 28 27 26 25 24 24 24 23 24 24 25 25 25 25 24 24 24 23 23 23 22 22 22 22 21 21 20 20 19 18 17 17 16 16 16 16 16 15 15
29 29 29 29 28 28 27 26 26 25 25 24 25 25 25 25 25 25 24 24 24 25 25 25 24 24 24 23 23 23 22 21 20 20 19 18 18 18 18 18 17 17
30 30 29 29 29 29 29 28 28 27 27 27 27 26 26 26 26 26 26 25 25 25 26 26 27 26 26 25 25 24 24 23 22 22 21 21 20 20 20 20 20 19
31 31 30 30 30 31 30 30 30 30 29 29 29 28 28 28 28 28 28 27 26 26 26 27 28 28 28 27 26 26 25 25 24 24 24 23 23 23 23 23 22 22
32 31 30 30 31 31 31 32 32 32 32 31 31 31 30 30 30 30 30 29 28 28 28 28 28 28 28 28 27 27 27 27 27 27 26 26 26 26 25 25 24 24
31 32 32 31 31 31 32 33 33 33 33 33 33 33 32 33 33 32 32 31 30 30 30 30 29 28 27 27 27 28 28 29 29 29 29 28 28 28 27 26 26 26
30 32 33 32 32 32 32 33 34 34 34 34 34 34 34 34 34 34 33 33 33 32 32 31 30 29 28 27 26 27 27 28 29 30 30 29 29 29 28 28 28 28
29 30 32 33 33 33 33 34 35 34 34 35 35 35 36 35 34 34 34 34 34 34 33 32 31 30 29 27 27 27 27 28 29 30 30 30 29 29 29 29 28 28
28 29 32 32 33 34 34 35 35 35 35 35 35 36 36 35 34 35 35 34 34 34 34 33 32 30 29 28 27 28 28 29 30 31 31 31 30 29 29 29 29 29
30 30 31 33 34 34 35 35 35 35 35 35 36 36 36 35 35 35 35 34 33 34 34 33 31 30 29 28 27 28 29 31 31 31 31 31 30 29 29 29 29 29
32 32 31 33 34 35 36 36 36 36 35 35 36 36 36 35 35 35 35 34 33 33 33 32 30 29 29 28 27 28 30 31 32 32 32 31 31 30 29 29 29 29
29 30 30 32 34 35 36 37 37 36 36 36 37 37 36 36 35 35 35 34 33 33 32 31 29 29 29 29 28 29 31 31 32 32 32 32 31 30 30 30 30 29
25 26 28 31 33 35 36 37 37 36 35 34 35 36 36 35 35 35 35 34 33 32 31 30 29 29 29 29 29 30 31 31 31 32 32 31 30 30 30 30 30 29
22 23 25 29 32 34 36 36 36 35 35 33 31 32 35 35 34 34 34 34 32 31 30 29 29 29 29 29 29 30 30 31 31 31 30 29 29 29 30 30 29 29

ECMWFNIL_700_spd_075.txt.gz
Wind_Speed
18 18 18 17 16 16 16 16 15 14 13 12 11 11 11 10 10 9 8 7 6 6 6 6 6 7 7 7 7 7 7 7 7 7 7 7 8 8 8 7 7 7
18 18 18 17 17 17 17 17 16 16 15 14 13 12 12 12 11 10 9 8 7 6 6 6 6 7 7 7 7 7 7 6 7 7 7 7 7 8 8 8 7 7
18 17 18 17 17 17 17 18 17 17 16 15 15 13 13 12 12 12 11 9 8 7 7 7 7 7 7 7 7 7 7 7 7 7 7 7 7 8 8 8 8 7
18 17 18 18 18 18 18 18 18 18 17 16 16 15 14 13 13 13 12 11 10 8 8 7 7 7 7 7 7 7 7 7 7 8 7 7 7 8 8 8 8 7
18 18 18 18 19 19 18 19 19 19 18 17 17 16 15 14 14 13 13 12 11 10 9 8 8 8 7 7 7 7 7 7 8 8 8 8 7 8 8 8 8 7
19 19 19 19 19 19 19 19 19 19 19 19 18 17 17 16 15 14 13 13 12 11 10 10 9 9 8 8 8 7 7 8 8 8 8 8 7 8 8 7 7 7
19 20 20 20 20 20 20 21 20 20 20 20 20 19 18 17 17 16 14 14 13 12 12 11 11 11 10 9 9 8 8 8 8 8 8 8 7 7 7 7 7 7
20 20 20 20 20 20 21 21 21 21 21 21 20 20 19 19 18 18 16 16 15 14 13 12 12 12 11 11 10 10 9 9 9 9 9 9 8 8 8 7 7 7
22 21 21 21 21 21 21 21 21 21 21 21 21 21 21 20 20 19 18 18 17 15 14 14 13 13 12 12 12 11 11 10 10 10 10 10 9 9 9 8 8 7
24 23 22 22 22 22 22 21 21 22 22 21 21 21 22 21 21 21 20 20 19 17 16 15 14 13 13 13 13 12 12 12 11 12 11 11 11 10 10 10 9 9
25 25 24 24 23 22 22 22 22 23 23 22 23 22 23 23 22 23 22 21 20 19 17 16 16 15 15 14 14 13 14 13 13 13 13 12 12 12 11 11 11 10
27 27 26 25 24 22 22 23 23 24 23 23 24 24 23 23 23 24 23 22 21 21 20 19 18 18 17 17 16 15 15 15 14 14 14 14 13 13 13 12 12 12
27 28 27 27 26 24 24 23 24 24 24 24 25 25 25 24 24 24 23 23 23 22 22 21 21 20 19 19 19 18 18 17 16 15 15 15 14 14 14 14 14 14
28 29 28 29 28 27 25 25 25 24 24 25 25 25 25 25 25 25 24 24 24 24 24 24 23 23 22 21 21 21 21 20 20 19 18 17 17 16 16 16 16 15
29 30 31 32 31 29 28 28 28 26 25 26 25 25 25 25 25 25 24 24 24 25 25 26 25 25 24 23 23 23 23 23 22 22 21 20 20 19 19 19 18 18
29 30 32 33 32 31 31 31 30 29 28 27 26 25 26 26 26 25 25 25 25 25 26 26 27 26 25 25 24 24 24 24 24 24 23 23 23 22 22 22 21 21
31 32 33 33 32 33 34 34 33 32 32 30 29 28 27 27 27 26 26 26 25 25 25 26 27 27 26 26 25 25 25 24 25 25 25 25 25 25 25 24 24 24
31 34 35 35 34 34 36 36 35 35 35 34 32 31 30 29 29 28 27 27 26 25 25 25 26 26 26 26 25 25 26 26 26 26 26 26 26 26 26 26 26 26
31 34 35 36 36 35 36 37 36 36 36 35 34 34 33 31 31 30 29 29 28 27 26 26 26 26 27 26 24 24 25 27 28 28 28 28 28 28 28 27 27 27
32 33 34 36 37 37 37 37 37 37 37 36 34 34 35 35 33 32 32 31 31 30 29 28 27 27 27 26 24 22 23 25 27 29 30 30 30 30 29 28 28 28
34 33 34 36 37 37 37 36 36 36 37 38 34 31 32 35 36 35 34 33 32 31 31 30 28 28 28 27 24 22 23 25 27 29 30 30 30 30 30 29 28 28
36 36 36 36 36 36 37 37 37 37 37 38 37 33 31 32 34 35 34 32 32 32 32 31 29 28 28 27 25 23 24 26 28 29 30 31 31 30 29 28 28 27
36 36 37 36 35 36 37 38 38 38 37 36 36 36 34 33 32 31 30 31 31 31 32 32 30 29 28 26 25 24 25 26 28 30 31 31 31 29 29 28 27 27
34 34 35 37 35 35 36 38 37 36 35 35 35 35 35 34 33 32 31 30 30 29 30 31 30 30 28 27 26 25 26 27 28 29 31 31 30 29 29 28 27 26
31 31 32 35 36 36 36 36 37 37 35 34 35 35 34 34 34 33 33 33 31 31 31 30 29 29 29 28 27 26 27 28 29 30 31 31 30 29 29 28 27 26
24 26 27 29 32 35 37 36 36 37 37 37 37 36 35 35 33 32 32 33 33 33 33 31 29 29 30 30 28 27 28 29 30 31 31 30 30 29 29 28 27 26

ECMWFNIL_700_spd_078.txt.gz
Wind_Speed
18 17 16 16 15 14 14 14 14 13 12 11 11 10 10 9 8 7 7 6 6 5 5 4 4 4 4 5 6 6 6 7 8 8 7 8 8 8 7 8 8 8
18 17 17 16 15 14 15 15 14 14 13 12 12 11 10 10 9 8 7 7 7 6 6 5 5 5 5 5 5 6 6 6 8 9 8 8 8 8 7 7 8 8
17 17 17 16 15 15 15 16 16 15 14 13 12 11 10 10 9 8 7 7 7 7 7 6 5 6 6 6 6 6 6 7 8 8 9 9 8 8 8 7 7 8
17 16 16 16 15 15 16 17 17 16 15 15 13 12 11 10 10 9 8 8 8 8 7 7 6 6 7 6 6 6 6 7 8 8 8 9 8 9 8 7 7 7
17 17 17 16 16 16 17 18 18 17 16 15 14 14 13 11 11 10 9 9 8 8 7 7 6 6 7 6 6 6 6 7 7 7 7 8 8 8 8 8 8 7
18 17 17 17 16 16 16 17 17 17 17 16 15 15 14 13 11 10 9 9 9 9 8 7 7 7 7 7 7 6 6 7 7 8 7 7 8 8 8 8 8 8
19 18 18 18 17 16 16 16 17 17 17 17 17 16 15 14 13 12 10 10 10 10 9 8 8 7 7 7 7 7 7 7 7 7 8 7 7 8 8 8 8 8
20 19 18 18 18 17 17 16 17 17 17 18 18 17 16 15 14 14 13 11 11 10 10 9 9 9 8 8 7 7 7 7 7 8 8 8 8 8 8 7 7 8
22 21 19 18 18 18 17 17 17 17 18 18 18 18 18 17 16 15 15 14 13 12 11 11 10 10 10 9 8 8 8 8 9 9 9 9 9 9 9 8 7 8
24 22 21 19 18 18 18 18 18 17 18 18 18 18 19 19 18 17 16 16 15 14 13 12 12 11 11 10 9 9 9 9 9 9 10 10 10 10 10 9 8 8
26 25 23 21 20 19 19 19 19 19 18 18 19 19 20 20 20 19 18 17 16 15 14 13 13 12 11 11 10 10 10 10 10 10 10 10 11 10 10 10 10 10
26 26 24 22 21 21 20 19 19 20 19 19 19 19 20 21 20 20 20 19 18 17 16 15 15 14 14 13 12 12 12 11 11 11 11 11 11 11 11 11 10 10
29 29 26 24 23 23 22 20 19 20 20 19 19 19 20 21 20 20 20 19 19 18 18 18 17 17 17 16 15 14 14 13 13 12 12 12 12 12 12 12 12 12
30 29 27 26 25 25 24 23 21 20 19 18 18 19 20 20 20 20 20 20 20 19 20 20 20 20 20 19 18 17 17 16 16 15 15 14 14 13 13 13 13 13
28 28 27 27 28 29 29 27 24 22 21 18 16 17 19 19 20 21 21 21 20 20 21 22 22 22 22 21 20 20 20 19 18 18 17 17 17 16 16 16 15 15
27 27 27 27 28 30 30 28 26 25 23 20 18 17 18 18 19 21 22 22 21 20 21 22 23 24 24 23 22 22 22 21 21 20 20 20 20 19 19 18 18 17
26 25 26 27 28 29 28 26 26 26 25 24 23 21 19 19 20 21 22 22 22 21 21 22 24 24 25 24 23 23 23 23 23 23 22 22 22 22 21 21 20 20
25 24 26 29 29 28 27 27 28 27 27 27 27 25 23 22 21 21 21 21 21 22 22 21 22 22 24 24 24 23 24 24 25 25 25 24 24 24 23 23 22 22
26 26 28 29 28 25 25 27 29 29 29 30 30 27 25 25 25 23 23 22 22 22 22 21 21 21 22 23 23 22 21 23 24 25 26 27 26 26 25 25 24 23
30 29 28 27 26 26 27 29 30 30 31 32 31 30 28 28 28 27 25 25 25 24 23 22 21 21 22 23 23 21 19 20 21 24 26 27 28 28 27 27 26 26
32 31 30 28 27 28 29 29 29 29 30 30 30 31 31 30 30 30 28 27 27 27 28 27 24 22 22 24 23 22 20 20 20 22 24 26 27 28 28 28 28 27
33 34 33 31 29 29 28 28 27 28 30 31 31 32 33 33 33 32 31 30 29 29 31 31 28 24 24 25 24 23 22 21 21 21 23 25 26 27 27 28 27 27
31 32 31 31 31 31 30 28 27 27 30 32 34 34 34 34 33 32 31 31 31 31 31 31 30 27 26 26 26 25 25 24 22 22 22 24 25 26 27 27 27 26
24 24 26 29 32 32 30 28 28 28 30 32 34 35 35 34 32 31 29 29 30 31 31 30 29 29 29 28 28 28 29 28 26 25 24 24 25 26 27 27 27 26
15 17 20 26 29 29 29 29 29 30 31 32 34 34 34 34 32 32 31 29 29 30 30 30 29 29 29 30 30 30 30 31 31 31 29 27 26 27 27 28 28 27
10 11 13 17 21 24 26 27 29 31 31 32 33 33 33 33 33 32 32 31 30 31 31 31 31 31 31 31 31 32 31 31 32 33 32 31 30 30 30 29 28 28

ECMWFNIL_700_spd_081.txt.gz
Wind_Speed
16 15 14 13 12 11 11 11 10 10 9 8 8 9 9 8 8 8 8 7 6 6 5 5 5 5 5 5 5 6 7 8 8 7 8 7 8 8 8 8 8 8
16 16 15 14 13 12 11 11 12 11 10 10 9 10 9 8 8 8 8 7 7 6 5 4 5 5 5 5 5 5 6 7 8 8 8 8 8 8 8 8 8 8
17 16 16 14 13 13 12 12 12 12 12 11 10 10 9 8 8 8 8 8 8 7 6 4 4 4 5 5 5 5 5 7 8 9 8 8 8 8 8 8 7 7
16 16 16 15 14 13 13 13 13 13 12 12 11 11 10 9 9 8 8 8 8 8 7 6 5 4 4 4 4 5 5 6 7 8 8 8 8 8 8 8 8 8
16 16 16 15 15 14 13 13 13 13 13 12 12 12 11 10 10 9 8 8 8 7 7 7 6 5 5 4 4 4 5 6 6 7 8 8 8 7 8 8 8 9
17 17 16 16 16 15 14 13 13 13 13 13 13 13 12 11 10 9 8 8 8 7 7 7 6 6 5 5 4 4 4 5 6 6 7 7 8 7 7 7 7 8
18 18 17 17 17 16 14 13 13 13 13 13 14 14 14 12 11 10 8 8 8 8 7 7 7 7 7 6 5 5 5 5 6 6 6 6 7 7 7 6 6 6
18 17 17 17 17 16 15 14 14 13 13 14 14 14 14 13 12 11 10 9 8 8 8 8 7 7 7 7 6 6 6 6 6 7 7 6 6 6 6 6 6 6
19 19 18 17 17 16 15 14 14 13 14 14 14 14 14 14 13 13 12 11 10 9 8 8 8 8 7 7 7 7 7 7 6 7 7 7 7 6 6 6 6 6
21 21 21 20 19 18 17 16 15 14 15 15 15 15 15 15 15 14 14 13 12 10 9 9 8 8 8 7 7 8 8 8 8 8 8 8 8 8 7 7 7 7
23 25 25 24 23 21 20 19 18 16 16 16 16 16 16 16 16 16 15 14 13 12 11 10 9 9 9 8 8 9 9 10 10 10 9 9 10 10 9 9 9 9
23 24 23 22 20 19 17 17 17 17 17 17 16 17 17 17 16 16 16 15 14 13 13 12 11 10 10 9 9 9 10 10 11 11 11 11 11 11 11 10 10 11
21 21 20 20 20 19 17 17 17 17 17 16 16 16 17 17 17 17 16 16 15 15 15 14 13 13 12 11 11 11 11 11 11 11 11 11 11 12 12 12 12 12
20 20 19 20 21 21 20 18 17 17 17 17 17 17 18 18 18 17 16 16 16 16 16 15 15 15 14 14 13 13 13 13 12 12 12 12 12 12 12 12 12 13
21 20 19 21 21 21 20 19 18 18 19 19 18 18 18 20 20 19 17 17 17 17 16 16 17 16 16 15 15 15 15 15 15 14 14 14 14 14 14 13 13 13
18 18 19 21 23 23 23 21 21 21 21 21 20 18 17 19 21 21 19 18 18 18 18 18 18 17 17 16 16 16 17 17 18 18 17 16 16 16 16 15 15 15
16 15 16 19 23 26 26 24 23 23 23 23 23 20 18 18 18 20 20 19 18 18 18 19 19 18 18 17 16 16 16 17 18 19 19 19 19 18 18 17 17 17
16 15 15 17 20 23 25 23 23 23 24 25 24 23 22 20 19 18 18 19 18 17 17 17 18 19 19 18 17 16 16 16 16 18 19 20 20 20 20 19 19 18
19 17 17 17 18 21 23 24 24 23 24 25 26 26 25 23 22 20 18 18 18 17 16 15 15 17 18 19 18 17 17 17 16 16 18 18 19 20 20 21 21 21
21 20 20 20 19 19 22 25 25 23 23 24 25 27 27 26 25 25 23 21 20 19 18 17 16 15 16 17 18 17 17 17 17 17 17 18 18 19 19 20 20 21
23 23 23 24 22 20 21 23 22 21 23 24 25 27 28 27 28 27 27 26 25 23 22 20 20 19 19 19 19 19 19 18 18 18 18 19 19 19 19 19 19 19
24 25 26 26 24 23 23 22 20 21 23 23 24 26 27 28 29 29 29 29 29 27 25 24 23 22 23 23 23 23 23 23 22 21 21 21 21 21 21 21 21 21
21 22 23 22 21 22 23 22 23 23 23 22 23 24 25 27 29 29 30 30 30 30 29 27 26 25 26 26 27 27 27 26 25 24 23 23 22 22 23 23 23 24
18 18 18 17 17 20 22 23 25 25 24 23 23 24 25 26 26 27 28 30 30 31 31 30 30 30 30 29 28 28 28 27 26 24 23 23 23 23 24 25 25 25
11 10 10 11 13 16 19 22 24 25 26 26 25 25 26 26 25 24 25 28 30 31 32 32 32 30 29 28 28 28 29 29 28 28 26 25 25 25 25 26 26 26
6 6 5 6 6 8 12 17 20 22 24 25 26 26 26 26 26 25 25 26 28 30 32 31 29 27 25 25 26 27 28 29 29 29 29 29 28 29 29 29 28 28

ECMWFNIL_700_spd_084.txt.gz
Wind_Speed
18 16 14 13 11 10 9 8 7 7 6 6 5 5 6 6 5 6 6 6 6 6 6 6 6 5 5 6 6 7 8 7 8 8 8 9 8 8 7 8 8 8
18 17 16 15 13 11 10 9 8 9 8 7 7 7 7 6 6 6 6 6 7 7 7 7 6 6 5 6 6 6 7 7 8 8 8 8 7 7 8 8 8 9
19 18 16 15 14 12 11 10 9 10 10 9 8 8 7 7 7 7 7 7 7 7 7 7 7 6 6 6 6 6 6 7 8 8 8 8 7 8 8 8 9 9
18 18 17 16 15 13 12 12 11 11 11 10 9 8 8 8 8 8 8 7 7 7 7 7 7 7 6 6 5 5 5 6 7 8 8 8 8 9 9 9 9 9
17 18 18 17 16 15 14 13 12 12 12 11 11 10 9 9 8 8 8 7 7 7 7 6 7 7 7 6 6 5 5 5 6 8 8 9 8 9 9 9 9 9
18 18 18 17 17 16 15 15 14 14 13 13 13 11 11 10 8 8 8 8 8 7 6 6 6 7 7 6 6 6 5 5 6 7 8 8 9 9 9 9 8 9
20 19 19 18 18 17 17 16 16 16 15 15 14 13 12 11 9 8 8 8 8 8 7 7 7 7 7 7 7 6 6 6 6 6 7 8 9 9 8 8 8 8
21 21 20 19 19 18 18 17 17 17 16 16 16 15 14 13 11 10 9 9 9 9 9 8 7 7 8 8 8 7 6 6 6 7 7 8 8 8 8 8 8 9
22 20 19 19 18 17 17 17 17 18 17 17 16 16 15 14 13 12 11 10 10 9 10 9 9 8 8 8 8 8 8 7 7 7 8 8 8 8 8 8 8 8
21 20 19 18 18 17 16 16 17 18 18 17 17 17 16 14 14 13 12 12 11 10 10 10 10 9 9 8 8 8 9 9 9 9 9 9 9 9 9 8 8 8
21 21 20 19 19 18 18 18 18 18 18 18 17 17 17 16 15 14 14 13 12 11 11 11 10 10 10 9 9 9 9 10 10 10 10 11 11 11 11 10 9 9
21 21 21 21 20 19 18 18 18 18 18 18 18 17 18 18 17 16 16 15 14 14 13 12 12 12 11 10 10 10 10 10 11 11 11 12 12 12 13 12 12 12
21 21 22 23 22 21 19 19 18 18 18 18 18 17 18 18 19 18 17 16 16 16 15 14 14 13 13 12 12 11 11 11 11 11 11 11 12 13 14 14 14 14
21 22 23 23 22 21 20 19 19 18 19 19 18 17 18 18 20 20 19 18 17 17 17 17 16 16 15 15 14 13 13 12 12 11 11 11 11 12 13 14 15 15
21 22 21 21 22 21 20 19 19 19 19 20 19 19 19 19 20 20 20 20 19 19 19 19 18 17 17 17 16 16 15 15 14 14 13 13 13 13 13 14 15 15
21 22 22 22 23 22 20 20 20 20 20 20 21 21 20 20 20 21 21 20 20 21 21 20 20 19 18 18 18 18 18 18 17 17 16 16 15 15 15 15 15 15
19 21 21 21 21 21 21 21 21 20 20 20 21 22 21 21 21 21 21 20 20 20 21 21 21 20 20 20 20 20 20 20 20 20 19 19 18 17 17 16 16 16
14 16 18 18 18 18 19 21 22 22 21 20 21 23 23 23 22 21 21 20 19 19 20 21 21 20 21 21 21 22 22 22 21 21 21 21 20 20 19 18 18 18
10 12 15 17 16 15 15 17 20 22 22 21 22 24 25 25 24 22 21 20 19 18 18 19 19 20 20 21 21 21 22 22 22 22 22 22 22 22 20 20 20 19
13 14 16 15 14 13 13 13 15 17 19 20 22 24 25 26 25 24 22 21 20 18 17 17 17 18 18 19 20 20 20 21 21 21 21 21 22 22 21 21 20 20
16 16 17 17 15 15 15 14 14 15 17 19 21 23 25 26 26 25 24 23 22 21 20 19 18 18 18 18 18 19 19 20 20 20 20 21 21 21 22 21 20 20
17 17 18 19 19 19 18 17 17 17 17 18 20 23 25 27 27 26 26 25 24 24 23 23 22 21 20 19 19 19 19 20 21 21 21 22 22 22 22 23 23 23
16 16 18 20 21 21 22 22 22 22 21 21 21 22 25 27 28 28 27 26 26 25 24 24 24 23 23 23 23 23 23 22 23 23 23 23 23 23 23 24 24 25
15 16 18 20 21 22 24 25 27 28 27 27 26 25 26 28 28 29 28 26 25 25 24 24 24 25 26 26 26 26 26 25 26 27 27 26 25 24 24 25 25 25
16 16 17 18 20 21 22 24 27 29 29 30 30 30 30 30 29 30 29 26 23 23 24 24 25 26 27 28 28 28 28 27 27 28 29 29 28 28 27 27 27 26
15 15 15 16 17 19 21 24 26 28 29 30 31 31 31 31 31 32 31 27 24 24 24 24 26 27 28 30 30 29 29 29 28 28 29 29 30 30 30 30 30 29

ECMWFNIL_700_spd_087.txt.gz
Wind_Speed
15 14 13 12 10 10 10 10 9 8 7 6 6 6 5 5 5 6 6 5 5 5 5 5 6 6 5 5 6 6 7 7 7 7 8 9 9 9 8 7 8 7
17 16 15 13 12 11 10 10 10 9 9 8 7 7 6 6 6 6 6 5 5 5 5 5 5 6 6 6 6 6 7 7 7 8 8 9 9 8 8 8 8 7
19 18 16 15 14 12 11 11 10 10 10 10 9 7 7 7 6 6 6 5 5 5 5 5 5 5 5 5 6 6 7 7 8 8 8 8 8 8 9 8 7 7
19 19 18 17 16 14 13 13 12 11 11 10 9 8 7 7 7 7 6 6 5 5 5 5 5 5 5 5 5 6 6 7 8 8 8 9 9 9 9 8 8 8
19 19 19 18 17 16 15 14 13 12 12 11 10 10 8 7 7 7 7 6 6 6 5 5 5 5 5 5 5 5 6 6 7 7 8 8 8 8 9 9 8 8
18 19 19 19 19 18 16 15 14 14 13 13 12 12 10 9 9 8 8 8 7 7 6 6 5 6 6 6 6 5 6 6 6 6 6 7 8 8 8 8 8 8
19 19 20 20 20 20 18 17 16 15 15 14 14 13 12 12 10 10 10 10 9 9 8 7 7 7 6 6 6 6 6 6 6 6 5 6 7 7 7 7 7 8
20 19 20 20 21 21 20 19 18 17 16 16 15 14 14 14 13 12 11 11 10 10 10 9 8 8 7 7 7 7 6 6 6 7 6 6 6 7 7 7 7 7
21 20 20 20 20 20 20 19 19 18 18 17 17 16 16 15 14 14 13 12 12 12 11 11 10 9 8 8 8 8 7 7 7 7 7 6 6 6 7 6 6 7
23 22 20 20 20 20 19 19 19 19 19 18 17 17 17 16 16 16 15 14 13 13 13 12 12 11 10 10 9 9 9 9 8 8 8 7 8 7 7 7 6 7
25 24 22 21 21 20 20 19 19 19 19 18 18 18 18 17 17 17 17 16 15 14 14 13 13 13 12 11 11 10 10 10 10 10 9 9 9 9 9 8 8 8
26 26 24 23 22 21 21 20 20 20 20 19 19 18 19 18 18 19 18 18 17 16 16 15 14 14 14 13 12 12 11 11 11 11 11 11 10 10 10 10 10 10
27 26 25 25 23 22 22 21 21 20 20 20 19 19 20 20 19 19 19 19 19 18 18 17 16 16 15 15 14 13 13 12 12 12 12 12 12 12 12 12 12 12
28 26 26 26 25 24 24 22 21 20 20 20 20 20 20 20 20 20 19 19 20 20 20 19 18 17 17 16 16 15 15 14 13 13 13 13 13 13 13 13 13 14
28 26 26 26 26 26 25 24 22 21 21 21 21 21 21 21 20 20 20 20 20 20 21 21 21 19 18 18 18 17 17 16 16 15 14 14 14 14 14 14 14 14
26 25 25 26 26 26 26 25 24 23 22 22 22 22 22 22 21 20 20 20 20 20 21 23 23 22 21 20 20 19 19 19 19 18 18 17 16 16 15 15 15 15
25 24 23 25 26 25 25 25 25 25 24 23 23 23 22 23 22 21 21 20 20 21 22 23 23 23 22 22 22 22 21 21 21 21 21 21 20 19 18 18 18 17
24 23 22 22 24 23 23 24 26 26 25 24 24 23 23 23 23 22 21 20 20 20 20 21 23 23 23 23 23 23 23 23 23 23 23 22 22 21 20 20 20 20
20 20 18 19 21 22 22 23 25 26 26 25 25 24 24 24 24 23 23 21 20 19 18 19 21 23 24 23 22 23 23 23 22 22 22 22 21 21 21 21 21 21
15 15 15 17 20 21 22 23 24 25 27 27 26 26 25 24 24 24 24 23 22 20 18 18 19 22 23 23 22 23 23 24 23 22 21 20 20 20 20 20 20 20
13 13 13 15 17 19 21 21 22 23 25 26 27 27 27 27 26 25 24 23 23 22 20 19 20 21 21 21 21 21 22 23 23 23 22 21 20 20 20 20 20 20
15 14 14 14 15 16 18 19 19 19 20 23 26 27 27 27 26 25 23 22 22 23 23 23 23 23 22 22 21 20 19 20 21 22 22 21 21 20 21 21 21 22
17 16 16 17 17 17 18 19 20 20 21 23 25 25 24 23 23 23 24 23 22 23 24 24 25 26 26 25 24 22 21 20 21 22 22 22 22 22 22 23 23 23
17 17 18 18 19 19 20 21 23 24 25 26 27 25 23 22 21 22 24 24 23 23 23 23 24 26 28 28 28 27 26 24 24 25 25 25 24 25 25 25 25 25
17 17 17 18 18 19 20 22 24 26 27 27 28 27 26 25 24 23 24 24 25 25 24 22 23 26 28 30 31 31 30 28 27 28 28 27 27 27 27 27 27 26
16 17 17 18 18 19 20 21 22 24 25 26 27 28 29 29 28 26 26 26 26 26 25 24 24 26 27 30 33 34 33 31 31 30 29 29 29 29 28 28 27 27

ECMWFNIL_700_spd_090.txt.gz
Wind_Speed
15 14 13 12 11 10 10 10 8 8 7 6 6 6 5 5 5 5 4 4 5 4 4 4 5 6 6 5 5 5 5 5 5 6 7 7 8 8 7 7 7 7
17 16 15 14 12 12 11 10 9 8 7 7 7 6 6 6 5 5 5 5 5 4 4 4 4 5 5 5 5 6 6 6 6 5 6 7 7 7 7 7 7 7
18 17 16 14 13 13 12 12 11 10 9 8 8 7 7 7 6 6 6 6 6 5 4 4 4 5 5 5 6 6 6 7 6 6 6 6 7 7 7 7 7 7
19 18 17 16 15 14 13 13 13 12 12 10 10 9 9 8 7 7 7 7 7 6 5 5 5 5 4 5 5 6 6 6 7 7 6 7 7 7 7 7 7 7
20 19 19 18 17 16 15 14 14 14 13 12 12 11 10 10 9 9 9 8 8 7 6 6 5 5 5 5 4 4 5 5 6 7 7 7 8 8 7 8 8 7
20 21 20 20 19 18 17 16 15 14 14 13 13 13 12 11 11 11 10 9 9 8 7 7 7 6 6 5 5 5 5 6 6 7 8 8 8 7 7 8 8 7
18 19 20 21 20 20 18 17 16 16 15 15 14 14 13 13 12 12 11 10 10 9 9 9 8 7 7 6 6 6 6 6 7 7 8 8 8 8 7 8 8 8
18 18 19 20 20 20 19 18 17 17 16 16 16 15 15 14 13 13 12 12 11 10 10 10 9 9 8 7 7 7 7 7 7 8 8 8 8 8 8 8 8 8
19 19 18 19 19 19 19 19 18 18 17 17 16 16 16 15 14 14 14 13 12 12 12 11 11 10 9 9 8 8 7 7 7 8 8 8 9 9 9 8 8 8
21 21 20 19 18 18 18 19 19 19 19 18 17 17 17 16 16 15 15 15 14 13 13 12 12 12 11 10 10 9 8 7 7 7 8 8 9 9 9 9 9 9
23 23 22 20 19 18 18 18 19 19 19 19 18 18 18 17 17 17 17 16 15 15 14 13 13 13 12 11 11 10 9 9 8 7 8 8 8 9 9 9 9 9
24 24 24 24 22 20 20 19 20 20 20 20 20 20 19 19 18 18 18 18 17 17 16 15 14 14 14 13 13 12 11 10 9 9 9 9 8 9 9 9 9 10
25 25 26 26 26 25 23 22 21 21 21 21 21 22 21 20 19 19 19 19 18 18 18 17 16 16 15 15 14 14 13 12 11 11 10 10 10 10 11 11 11 11
26 27 26 26 27 26 25 24 23 22 22 22 22 23 22 21 20 19 19 20 19 19 19 19 18 18 17 16 16 15 15 14 14 13 13 12 12 12 12 12 12 12
28 29 27 26 26 26 26 25 25 24 23 23 23 23 22 22 21 20 20 20 20 20 20 21 20 19 18 18 17 17 17 16 16 16 15 15 14 14 14 14 13 13
31 30 29 28 27 27 26 27 27 26 24 23 23 23 22 22 21 20 20 20 20 21 21 21 21 20 19 19 19 19 19 19 19 18 18 17 16 16 15 15 15 14
31 30 30 31 29 27 27 28 29 29 27 24 23 23 22 21 21 21 21 21 21 22 22 22 22 21 20 20 20 21 22 22 21 21 20 19 18 18 17 16 16 16
25 26 29 31 29 27 27 28 28 29 28 25 23 23 23 22 22 22 22 22 23 23 23 23 22 22 22 21 21 22 23 23 23 23 22 21 21 20 19 19 19 18
22 24 26 26 25 25 25 26 27 28 28 25 24 25 25 23 22 23 23 24 24 24 23 23 23 23 22 22 22 22 24 24 24 24 24 23 22 22 21 21 21 21
19 20 21 22 23 24 24 25 27 28 27 25 25 25 24 23 22 23 24 25 25 25 24 24 24 23 22 22 21 22 23 25 25 25 25 24 23 23 22 22 22 23
17 18 19 20 22 23 23 25 27 28 26 24 24 23 23 23 23 24 25 25 26 25 25 24 23 22 22 22 22 22 22 24 26 26 25 25 24 24 23 23 23 23
14 16 17 19 20 21 23 24 25 25 24 23 21 21 22 23 24 24 25 26 26 25 24 24 23 23 23 23 22 21 21 23 25 26 26 25 25 25 25 24 23 23
12 14 15 16 17 19 21 21 20 21 21 20 20 21 22 23 24 25 25 26 26 25 25 25 26 26 26 25 24 22 22 22 23 24 24 24 24 24 25 24 24 24
13 13 14 15 16 17 18 17 16 18 18 19 19 20 20 21 21 22 23 25 26 27 27 27 27 27 27 26 26 25 24 24 24 24 24 23 24 24 25 25 25 25
14 14 15 15 16 16 17 17 17 18 18 19 20 20 20 21 20 21 21 22 24 26 27 27 27 26 26 26 28 28 27 27 28 27 27 27 27 27 27 28 28 28
14 14 15 16 16 16 16 17 18 19 20 20 21 21 22 24 24 24 24 24 24 24 24 25 25 25 25 26 28 28 28 29 31 32 32 31 31 31 31 31 31 32

ECMWFNIL_700_spd_093.txt.gz
Wind_Speed
14 13 11 10 10 10 10 9 9 8 7 7 7 7 6 6 5 5 6 5 5 5 5 5 6 6 6 6 6 6 7 7 7 7 8 8 8 8 8 8 8 7
15 14 13 12 11 10 10 10 9 9 8 7 7 6 6 6 6 6 6 6 6 5 5 5 6 6 7 6 6 7 7 8 7 8 8 8 9 8 8 8 8 8
16 15 15 14 12 11 11 10 10 9 9 8 7 6 6 6 7 6 6 6 6 6 5 5 5 6 7 7 6 7 8 8 8 8 8 8 9 9 8 8 8 8
17 16 16 15 14 13 13 12 11 10 10 9 8 7 6 7 7 7 7 7 7 7 6 6 6 6 6 6 6 7 8 8 8 8 8 9 9 9 9 8 8 8
18 18 17 16 16 15 14 13 12 12 11 10 9 8 8 8 8 8 8 8 8 7 7 7 7 6 6 6 6 7 8 8 8 9 9 10 10 9 9 9 9 9
19 19 19 18 18 17 16 15 14 14 13 12 11 10 10 9 9 10 10 9 9 8 8 8 7 7 6 6 6 7 7 8 8 9 10 10 10 10 10 9 9 9
19 20 20 20 20 19 18 17 16 15 15 14 13 12 11 11 11 11 11 11 10 10 9 9 8 7 7 7 7 7 7 7 8 8 9 10 11 11 10 10 10 10
18 19 20 22 22 21 20 19 18 17 17 16 14 13 13 12 12 12 12 12 12 11 10 10 9 8 7 7 7 7 7 7 7 8 9 9 10 11 11 11 10 10
19 19 19 21 22 22 21 20 20 19 18 17 16 15 14 14 14 13 13 13 13 13 11 11 10 9 9 8 8 8 7 7 7 8 8 8 9 10 11 10 10 10
22 21 20 21 21 21 21 21 21 21 20 19 18 17 16 15 15 15 15 14 14 14 13 12 11 10 10 9 9 9 8 8 8 8 8 8 8 9 9 10 10 11
24 23 22 21 21 21 21 21 21 22 22 21 20 19 18 17 17 16 16 16 15 15 14 13 13 12 11 11 10 10 10 9 9 8 8 8 8 9 9 9 10 11
26 25 24 23 22 21 20 21 21 22 22 22 21 21 20 19 18 18 17 17 17 16 15 15 15 14 12 12 11 11 11 11 10 9 9 9 9 9 10 10 10 11
28 27 27 26 24 23 22 22 22 22 22 22 22 22 21 20 20 19 19 19 18 18 17 17 16 16 14 13 13 13 12 12 12 11 11 11 11 11 11 11 11 11
28 30 29 28 27 26 25 24 23 23 23 22 23 23 23 22 21 20 20 19 19 19 19 19 18 17 17 15 15 14 14 14 14 14 13 13 13 13 12 12 12 12
27 29 30 30 28 26 26 27 26 25 24 23 23 23 23 22 21 21 20 20 20 20 20 20 20 19 19 18 18 17 16 15 15 16 15 15 15 14 14 14 14 13
26 28 29 31 29 25 24 26 27 27 25 23 23 23 22 22 22 21 21 20 20 20 20 20 21 20 20 20 20 19 19 18 18 17 17 17 16 16 15 15 15 15
27 27 28 30 29 26 26 28 28 27 24 23 23 23 22 22 22 22 22 21 20 20 20 20 21 21 21 21 21 21 21 20 20 19 18 18 18 17 17 17 16 16
25 25 25 26 27 28 30 32 29 26 24 22 23 23 23 23 22 22 23 22 21 20 20 21 21 21 21 22 22 22 22 22 21 21 20 20 20 20 19 19 18 18
22 23 24 26 29 30 32 32 30 26 24 24 24 24 24 23 23 23 23 23 22 21 21 22 22 22 22 23 23 23 24 23 23 22 22 22 22 22 22 22 21 21
21 22 22 23 25 27 28 30 29 26 24 24 25 24 23 23 24 24 24 23 22 21 21 22 22 22 23 23 23 24 24 24 24 24 23 23 23 23 23 23 23 23
19 19 18 18 19 22 24 26 26 24 24 25 25 24 23 24 25 25 25 24 23 22 23 23 23 23 23 23 24 24 24 25 25 24 24 24 23 24 24 24 24 24
15 15 16 17 18 19 19 21 22 23 24 25 24 23 23 25 25 25 25 26 25 23 23 24 24 24 24 24 24 25 25 25 25 25 24 24 24 24 24 25 25 25
13 14 15 17 18 17 17 18 21 22 22 22 22 21 21 23 24 24 25 26 25 23 23 24 25 25 25 25 25 25 25 25 25 25 25 24 24 23 23 24 25 26
13 12 11 13 15 16 16 18 19 20 20 20 20 20 21 22 22 23 24 24 24 23 23 24 25 25 24 24 25 25 26 26 26 26 25 24 23 23 23 23 24 25
14 13 12 11 11 11 12 14 15 16 17 17 18 19 20 20 21 22 22 21 21 21 22 23 25 25 25 25 25 26 27 28 28 28 27 26 25 24 24 24 24 24
18 16 14 13 12 12 13 14 15 15 16 17 18 18 19 21 22 21 21 20 20 20 21 21 22 22 23 24 25 26 27 28 29 29 28 28 27 27 27 27 27 27

ECMWFNIL_700_spd_096.txt.gz
Wind_Speed
14 13 13 12 12 12 11 11 10 10 9 9 8 8 8 8 8 7 7 6 6 6 6 7 7 8 8 8 9 9 10 10 9 9 9 9 9 9 9 9 9 9
15 14 13 13 12 12 11 11 10 10 9 9 8 7 7 7 7 7 7 7 7 7 6 6 7 7 8 8 8 8 9 10 9 9 9 9 10 10 10 10 9 9
17 15 15 14 13 12 11 11 11 10 9 9 8 7 7 8 7 7 7 7 7 7 7 6 6 6 7 7 7 8 8 9 9 9 9 9 10 11 11 10 10 10
18 17 16 16 15 14 12 11 11 11 10 9 8 8 8 8 8 8 8 8 7 7 7 6 6 6 6 6 7 7 8 9 9 9 9 9 10 10 11 11 11 10
19 18 18 17 17 15 14 13 12 12 12 11 10 9 8 8 8 8 8 8 8 8 7 7 7 7 7 6 7 7 8 8 9 9 10 9 9 10 11 11 11 11
20 19 19 19 18 17 16 15 14 13 12 12 11 10 9 8 8 8 8 8 8 8 8 7 7 7 7 7 7 7 7 7 8 9 10 10 10 10 11 11 12 11
21 21 20 20 19 19 18 17 16 15 14 13 12 11 10 9 9 9 9 9 9 9 8 8 8 8 7 7 7 7 7 7 7 8 9 10 11 11 11 11 12 12
21 21 21 21 21 20 20 19 18 17 16 15 14 13 12 11 11 11 11 10 10 10 9 9 9 9 8 8 8 7 7 7 7 8 8 9 10 11 12 12 12 12
21 21 22 22 22 22 21 20 20 19 18 17 15 14 14 13 13 13 12 12 11 11 10 10 10 10 10 10 9 8 8 8 8 8 8 8 9 10 11 12 12 12
21 21 21 22 23 23 23 22 21 21 20 19 18 17 16 16 15 15 14 13 12 12 12 11 11 11 11 11 10 10 9 9 8 8 8 8 9 10 10 11 12 12
23 22 22 22 22 23 24 24 23 22 21 20 20 19 19 17 17 16 15 14 14 13 13 13 13 12 11 11 11 11 10 10 9 9 9 9 9 9 10 11 12 12
24 24 23 22 22 23 23 24 24 24 23 22 22 22 21 20 18 18 17 16 16 15 15 14 14 13 13 12 11 11 11 11 10 10 10 10 9 9 9 10 11 12
24 25 25 24 23 22 22 23 24 24 23 23 24 23 22 22 21 20 18 17 17 17 17 16 16 15 14 13 12 12 12 11 11 11 11 11 11 10 10 10 10 11
24 25 26 26 24 23 22 22 22 23 23 23 23 23 23 23 22 21 20 19 18 18 18 18 17 17 16 15 13 13 13 13 13 12 12 12 12 12 12 12 11 11
26 26 26 26 25 25 24 23 22 23 23 23 23 22 22 23 23 22 21 20 20 19 19 19 19 18 18 17 16 15 14 14 14 14 14 14 14 14 14 13 13 13
27 26 26 26 26 25 25 25 25 24 24 25 24 24 23 23 23 22 22 21 20 20 20 20 20 20 19 18 18 17 16 16 16 15 15 15 15 15 15 15 14 15
27 27 27 28 28 27 27 26 26 26 27 27 27 26 25 23 23 23 22 22 21 21 20 20 21 21 20 19 19 19 18 17 17 17 17 17 16 16 16 16 16 16
26 28 29 30 30 30 29 28 28 29 30 30 29 28 27 25 24 24 23 22 21 21 20 21 22 22 20 20 21 20 19 19 18 18 18 18 18 18 18 18 17 17
27 28 29 30 30 30 31 30 31 32 33 33 31 29 28 27 26 25 23 22 22 21 21 22 22 21 21 21 21 21 21 20 19 19 19 20 20 20 19 19 19 19
27 28 28 28 29 30 31 31 31 32 35 37 36 33 29 27 28 26 24 23 22 21 22 23 22 20 21 22 22 22 21 21 20 20 20 21 21 21 21 21 20 20
24 24 24 25 26 28 28 29 30 31 32 33 35 35 31 28 28 27 24 24 24 23 24 24 22 20 22 22 22 22 22 21 21 21 21 21 22 22 22 23 23 23
21 21 21 22 23 23 24 26 28 29 31 32 33 34 32 29 28 26 25 25 25 24 25 24 21 21 22 23 23 23 22 22 22 22 22 22 22 22 23 24 25 25
19 18 18 18 19 19 20 21 22 24 29 32 33 33 32 29 27 25 24 24 24 24 25 25 22 22 23 23 23 23 23 23 23 22 23 23 23 23 23 24 25 24
18 17 15 14 15 16 17 18 18 21 25 27 29 32 32 29 26 25 25 25 25 25 25 24 23 23 23 23 24 24 24 24 23 23 23 23 23 23 24 25 25 23
18 16 14 13 13 15 17 16 16 20 23 23 24 27 28 27 27 27 27 26 24 24 24 23 23 24 24 25 25 25 25 24 24 25 24 23 24 25 26 27 25 23
18 15 13 13 13 14 17 17 17 18 19 19 21 23 23 25 27 27 25 24 22 22 23 23 24 24 25 25 25 25 25 24 24 25 25 23 24 26 27 27 27 26

ECMWFNIL_700_spd_099.txt.gz
Wind_Speed
14 13 13 12 12 11 11 11 11 10 10 9 8 8 7 8 7 7 7 6 6 6 6 6 7 8 8 8 8 9 9 10 10 9 9 10 9 9 9 9 9 10
15 15 14 13 12 11 11 11 10 10 10 9 8 7 7 8 8 8 8 7 7 7 7 6 6 7 7 7 7 8 9 10 10 10 10 10 10 10 10 10 10 10
16 15 15 14 13 12 12 11 11 10 10 10 9 8 8 9 9 9 9 8 8 7 7 6 6 6 6 6 7 8 8 9 10 10 10 10 10 10 10 10 10 10
17 16 16 15 14 13 13 12 12 11 11 10 9 9 9 9 8 9 9 8 8 8 7 7 6 7 6 6 7 7 7 8 9 10 9 9 9 10 10 11 11 11
18 17 17 17 16 15 14 14 13 13 12 11 10 9 9 8 8 9 9 9 8 8 8 7 7 6 6 6 7 7 7 8 8 9 9 9 9 9 10 11 11 11
19 19 18 18 18 16 15 14 14 13 13 12 11 10 10 9 9 9 9 9 9 8 8 8 7 6 6 6 7 7 7 7 7 8 8 8 8 9 9 10 11 11
20 20 20 19 19 18 17 16 14 13 13 13 12 11 10 10 9 9 9 9 9 9 9 8 8 7 6 6 6 7 7 7 7 7 7 7 8 9 9 10 11 11
20 20 20 20 20 19 19 18 16 15 14 14 13 12 11 11 10 10 10 9 10 10 9 9 9 8 7 6 6 6 7 7 7 7 7 7 8 8 9 10 11 11
21 20 20 20 20 20 20 19 18 18 17 15 14 13 13 13 12 12 11 10 10 10 10 10 9 9 8 8 7 7 7 7 7 7 7 8 8 8 9 9 10 11
22 22 21 21 21 21 21 21 20 19 19 18 17 16 15 15 14 14 13 12 11 11 10 11 10 10 10 9 9 8 8 8 8 8 7 7 8 8 8 9 9 10
22 22 22 22 22 22 22 21 21 21 20 19 19 19 18 16 16 16 14 13 13 12 12 12 11 11 11 10 10 10 9 9 9 9 8 8 7 7 7 8 9 9
22 22 22 22 22 22 22 21 21 22 21 20 20 20 20 18 17 17 16 15 15 14 14 13 12 12 12 11 11 11 11 10 10 10 9 9 8 7 7 7 8 9
24 23 22 22 22 21 21 21 21 21 21 21 21 21 21 20 20 19 18 17 16 15 15 15 14 13 13 12 13 13 12 12 11 11 10 10 10 9 8 8 8 8
27 26 25 24 23 22 22 22 22 21 21 21 21 21 21 21 21 21 19 19 17 17 16 16 15 15 14 14 14 14 14 13 13 12 11 11 11 10 10 9 9 9
28 28 27 27 26 25 25 24 23 23 22 22 22 21 21 21 21 21 20 20 19 19 18 17 16 16 15 16 16 15 15 15 14 14 13 13 13 12 11 11 10 10
30 29 28 28 28 28 28 27 26 25 25 24 22 22 22 22 22 21 21 21 21 20 20 18 17 17 17 17 17 16 17 16 15 15 14 14 14 13 12 12 12 12
33 32 31 31 31 31 30 29 28 28 28 27 25 24 24 23 23 23 22 22 22 21 20 19 19 20 19 18 17 17 18 17 17 16 15 15 15 15 14 14 14 13
36 35 35 35 34 34 33 31 29 29 29 29 28 27 26 25 24 24 24 24 23 22 21 21 21 21 20 19 19 19 19 18 18 18 17 17 16 16 16 16 16 15
35 34 36 37 36 36 35 33 32 31 31 31 30 30 29 29 28 26 26 25 24 23 23 24 24 23 21 19 19 20 20 19 19 19 19 19 18 18 18 18 17 17
32 32 33 34 35 36 36 35 34 34 34 33 32 32 32 32 31 31 30 28 27 26 26 26 25 23 22 20 19 20 20 20 20 20 20 20 20 19 19 20 20 19
30 31 32 32 33 35 36 35 35 36 36 35 34 34 35 35 34 33 32 31 31 30 28 27 26 24 22 20 20 20 20 20 20 20 21 21 21 21 21 21 21 20
28 28 28 28 30 32 34 34 35 36 36 35 33 34 36 37 36 35 34 34 34 31 28 27 26 25 23 21 20 21 21 21 21 22 23 23 23 23 23 23 23 22
26 25 24 25 26 29 31 32 33 34 34 33 32 34 36 36 34 35 37 39 35 29 26 26 25 24 23 21 21 22 22 22 23 24 25 25 24 24 24 24 24 22
25 24 24 25 25 26 28 29 31 32 30 28 29 31 33 32 30 33 37 38 33 26 24 24 23 21 21 21 21 23 23 23 24 25 26 25 25 24 23 24 23 21
22 21 22 24 23 23 25 26 28 29 27 25 25 27 28 27 27 29 32 32 30 25 22 22 21 20 21 21 22 23 24 25 25 25 27 27 26 25 23 22 22 21
20 19 21 21 22 23 24 24 24 26 25 23 23 24 26 25 25 27 28 28 28 25 22 21 20 21 22 22 23 23 23 25 25 26 28 28 27 25 22 21 21 21

ECMWFNIL_700_spd_102.txt.gz
Wind_Speed
11 11 11 10 10 10 8 8 7 7 7 6 6 6 5 6 5 5 4 4 4 4 4 4 4 5 6 6 6 7 7 7 7 7 6 7 7 7 7 6 7 7
12 12 11 10 10 9 8 8 7 6 7 6 5 5 5 6 6 5 5 5 5 5 4 4 4 5 5 6 6 6 7 7 8 7 7 7 7 7 7 7 8 8
13 12 11 10 10 9 8 9 8 7 8 7 6 6 6 5 5 5 5 6 5 5 5 5 5 5 5 5 6 5 6 7 8 8 7 7 7 7 8 9 9 8
14 13 12 12 11 10 10 9 9 8 8 7 7 7 6 5 5 6 6 6 6 6 5 5 5 5 5 5 5 5 5 6 7 7 7 7 6 7 8 8 9 8
15 14 14 13 12 11 11 10 10 9 8 8 8 7 6 6 6 6 6 6 6 6 6 6 6 6 6 5 5 5 5 5 5 6 6 6 7 7 7 8 9 9
15 15 15 14 13 13 12 11 10 9 8 8 8 7 6 7 6 6 6 6 6 7 7 6 6 6 5 5 5 5 4 4 4 5 5 6 7 7 7 7 7 8
16 16 16 16 15 14 13 12 11 10 8 9 9 8 8 8 8 7 7 7 7 7 7 6 6 6 5 5 5 4 4 4 4 4 4 5 6 6 6 6 6 7
16 16 17 16 16 16 15 14 12 11 10 10 10 9 9 9 9 8 8 8 8 8 8 7 7 7 6 6 5 4 5 5 4 3 3 4 4 5 5 6 6 7
17 16 16 17 17 17 17 16 15 14 13 12 11 11 11 11 10 10 9 9 9 8 8 7 8 8 8 7 6 5 6 6 5 4 4 4 4 5 5 6 6 6
18 18 17 17 17 17 17 17 17 16 15 15 14 13 13 12 12 12 11 11 10 10 9 8 8 9 9 8 7 7 8 7 6 5 5 5 4 5 5 5 5 5
19 19 18 18 17 17 17 17 18 18 17 17 16 15 15 15 14 13 12 12 12 11 10 10 9 9 10 10 9 9 9 9 8 7 6 6 5 5 6 5 5 5
20 20 19 19 18 18 18 18 18 18 18 18 17 17 17 17 16 15 14 13 12 12 12 11 11 11 10 10 10 10 10 10 9 8 8 7 7 6 6 6 5 5
20 20 20 20 19 19 19 19 18 18 18 18 18 17 18 18 18 17 16 14 14 14 13 13 13 12 12 11 11 11 11 10 11 10 9 9 8 7 7 6 6 6
20 20 20 20 20 19 19 19 19 19 19 19 19 18 17 18 18 18 18 16 15 15 15 15 15 14 13 12 13 12 12 12 12 11 11 10 9 8 7 7 8 8
22 22 22 22 21 21 20 19 19 20 20 21 21 19 18 18 18 18 19 17 16 16 16 16 16 15 14 14 14 14 14 14 13 12 12 12 11 10 9 8 9 10
24 24 24 24 24 23 22 22 21 22 22 22 22 21 20 20 19 18 18 18 17 16 16 17 17 17 17 16 15 15 15 15 15 13 12 13 13 12 10 9 10 11
27 27 26 26 26 26 26 26 25 25 25 25 24 24 23 22 20 20 19 18 17 16 17 19 19 17 18 17 16 16 15 15 15 14 14 14 15 14 12 11 11 12
32 30 30 29 29 29 29 28 28 28 28 28 28 28 27 26 24 22 22 21 20 19 20 22 20 17 18 19 18 17 17 16 16 15 15 15 14 15 16 15 15 16
35 34 33 33 33 33 32 32 32 31 31 31 31 31 31 30 27 26 26 26 25 23 22 22 22 20 19 20 19 19 18 18 18 17 16 16 16 17 18 17 16 17
37 36 36 35 35 36 36 35 35 36 36 35 35 35 34 33 31 30 30 29 28 26 24 23 23 23 22 22 21 19 18 19 20 19 18 18 19 20 20 19 18 18
35 36 37 37 37 37 36 36 36 36 37 36 37 37 36 34 33 33 33 32 31 30 28 25 25 26 25 24 23 21 19 20 21 21 20 19 19 21 21 21 21 19
29 30 32 33 34 35 34 34 34 34 34 34 35 36 35 35 36 36 35 35 34 34 33 29 28 29 28 26 25 23 22 22 23 22 21 20 20 21 22 22 22 21
25 26 26 28 30 32 33 33 33 33 33 33 34 33 32 34 36 36 35 35 36 38 37 34 30 30 30 28 26 25 24 24 25 24 23 21 21 21 21 22 22 21
26 26 26 26 26 28 30 31 31 30 30 30 30 29 30 32 34 34 34 35 37 38 38 37 33 31 31 30 27 25 25 25 26 25 24 22 22 22 22 22 21 21
25 26 26 25 25 27 29 29 27 26 25 24 25 26 27 29 31 33 33 33 34 35 34 32 32 32 32 32 29 26 25 26 26 26 25 23 23 23 23 23 22 21
21 22 23 24 26 29 30 29 26 24 22 21 22 24 25 26 29 32 32 29 27 27 26 25 28 31 30 30 30 28 27 26 26 26 26 24 24 23 23 23 23 22

ECMWFNIL_700_spd_105.txt.gz
Wind_Speed
9 9 10 9 8 8 8 7 6 6 6 5 4 4 4 4 4 3 3 3 3 3 4 4 5 5 5 5 5 5 5 5 5 6 5 5 6 6 6 6 6 6
9 9 9 9 8 8 8 7 7 6 6 6 5 4 3 4 4 3 3 3 3 3 3 4 4 4 4 5 5 5 5 6 6 6 5 5 6 6 6 6 7 7
10 9 9 8 8 8 8 8 7 6 6 5 4 3 3 3 3 3 3 3 3 3 3 3 3 3 3 4 4 4 5 5 5 5 5 5 6 6 7 7 7 7
11 10 10 9 9 9 8 7 6 6 5 4 4 4 3 3 3 3 3 3 3 3 3 3 2 2 3 3 3 4 4 4 4 5 5 6 6 7 7 7 7 7
13 12 11 11 10 10 8 6 5 5 4 3 3 3 3 3 2 2 3 3 3 2 2 2 2 2 2 2 3 3 3 3 4 5 5 6 6 6 7 7 6 7
14 14 13 12 11 10 8 7 6 5 4 4 4 3 2 2 2 2 2 2 1 2 2 2 2 2 2 3 3 3 3 3 4 4 4 5 6 6 6 6 6 6
14 14 14 13 12 11 9 8 7 6 5 5 5 4 4 4 3 3 3 1 1 2 2 2 2 2 3 3 3 3 3 3 3 3 3 5 6 6 6 6 6 6
14 14 14 14 13 12 11 10 9 8 7 6 6 6 5 5 4 4 3 2 2 2 2 2 3 3 3 3 4 4 3 3 3 3 3 4 5 6 6 6 6 6
15 15 14 14 14 14 13 12 10 10 9 8 8 7 6 6 5 4 4 4 3 3 3 3 4 4 4 5 5 5 4 4 4 4 4 4 4 5 5 5 6 6
16 15 14 14 14 14 14 13 12 12 11 10 9 8 8 7 7 6 5 5 5 4 4 4 5 5 5 5 6 6 6 5 5 5 5 4 4 5 5 5 5 6
17 16 15 15 14 13 13 13 14 13 13 12 11 11 11 10 9 8 8 7 6 6 6 6 6 6 6 6 7 7 7 7 6 6 6 6 6 5 5 5 5 6
18 17 16 15 15 14 13 13 13 14 14 14 14 14 14 13 12 11 11 10 8 8 9 8 8 8 8 8 8 8 8 8 7 7 7 7 7 6 7 7 6 7
19 18 17 16 16 15 14 14 14 15 15 15 16 15 15 15 15 14 13 13 12 12 12 10 10 10 10 10 10 9 9 9 9 8 8 8 8 7 8 9 9 9
18 17 17 17 17 17 16 15 16 16 16 16 17 16 16 16 16 16 16 15 15 15 14 13 13 12 12 12 11 11 11 11 10 10 9 9 9 9 11 12 12 11
18 18 17 17 18 18 17 16 17 17 17 17 17 16 16 16 16 17 17 17 16 16 16 17 16 15 13 13 13 13 13 12 12 11 11 11 11 11 14 15 12 9
21 20 20 19 19 19 18 17 17 17 17 16 16 16 16 16 16 16 17 17 17 17 17 18 17 16 14 14 14 14 14 13 13 12 12 13 13 14 16 16 12 10
20 20 20 20 20 20 19 19 18 18 18 17 17 17 17 17 18 18 18 18 19 20 19 18 17 16 15 15 15 16 15 14 13 13 13 15 15 16 17 16 13 12
20 20 20 21 22 23 22 21 20 20 20 20 20 21 21 21 21 22 22 22 22 23 22 20 17 17 16 15 16 16 16 16 15 14 15 16 16 16 16 15 14 14
21 21 23 24 25 25 25 23 22 22 22 22 23 23 23 24 25 26 26 26 26 26 25 23 21 19 18 17 16 17 17 17 17 17 17 17 17 16 16 15 15 15
24 24 26 27 28 28 28 26 24 24 24 25 25 25 26 27 28 29 29 30 31 30 29 27 25 23 22 20 18 18 18 17 17 18 19 18 18 17 16 16 16 17
23 24 26 28 28 29 30 29 28 27 28 28 28 29 30 30 30 31 33 34 35 34 33 32 30 27 26 24 22 20 19 19 19 19 20 20 19 18 17 18 18 18
22 22 22 23 25 27 28 29 30 30 30 30 30 30 31 31 31 31 32 33 34 33 34 35 34 31 29 28 25 23 23 24 24 22 22 22 21 20 18 18 19 20
23 20 18 17 19 20 22 24 25 27 28 29 30 30 30 30 30 31 32 33 33 33 32 33 33 33 32 31 29 28 28 29 29 26 24 23 22 21 20 20 20 20
24 22 20 18 18 19 20 21 21 22 24 25 26 26 26 27 28 30 32 33 32 30 30 30 31 32 33 34 34 33 32 31 31 29 25 23 23 23 22 21 21 21
25 26 24 22 20 20 21 21 20 20 21 22 21 21 20 22 24 26 29 30 29 27 26 27 29 31 33 34 35 37 36 31 29 29 28 24 23 24 23 23 23 22
26 26 25 23 21 20 20 20 19 20 21 21 20 19 20 22 23 25 27 27 27 26 26 26 28 30 31 33 35 39 40 35 31 30 31 28 25 24 24 23 23 23

ECMWFNIL_700_spd_108.txt.gz
Wind_Speed
11 10 9 10 10 9 8 8 8 7 6 6 6 6 6 6 6 5 4 4 4 5 5 5 6 6 7 7 7 8 8 7 7 7 7 7 8 8 7 6 6 5
10 9 9 9 9 9 8 8 8 7 6 6 6 6 6 6 6 5 5 4 4 4 4 4 5 5 6 7 8 7 7 7 7 7 7 7 7 8 8 7 6 6
10 9 8 9 9 9 9 9 8 7 7 7 7 6 6 5 5 5 5 5 4 4 4 4 4 5 5 6 7 7 7 7 8 8 8 8 8 8 8 7 7 6
11 10 9 9 10 10 10 8 7 7 7 7 7 7 6 5 5 5 5 5 5 4 4 4 4 4 5 5 6 6 7 7 7 8 8 8 9 9 8 7 7 7
12 11 10 10 10 10 9 8 7 7 7 7 7 7 6 6 6 5 6 6 5 5 5 5 5 5 5 4 5 6 6 6 7 8 9 9 9 9 8 7 7 7
14 13 12 12 11 11 10 9 8 8 8 7 7 7 6 6 6 5 5 6 6 6 6 6 6 6 5 5 5 5 6 6 6 7 8 8 9 9 8 7 7 7
16 15 14 14 13 12 11 11 10 9 9 8 7 7 7 7 7 6 6 6 6 6 6 6 7 6 6 6 6 6 6 6 6 5 6 7 8 8 8 8 8 7
16 16 16 15 14 14 13 12 11 11 10 9 8 8 8 8 7 6 6 6 6 7 7 7 7 7 6 6 6 6 6 6 6 6 6 7 7 7 8 8 8 8
17 17 16 16 15 15 14 13 13 12 12 10 9 9 9 8 7 7 7 7 7 6 6 7 7 7 7 7 7 7 6 6 6 6 6 6 6 7 7 8 8 9
17 17 17 16 16 16 15 15 14 13 12 12 11 10 9 9 9 8 8 7 7 7 7 7 7 7 8 8 8 8 8 8 8 8 7 7 7 7 7 8 9 10
17 17 16 16 15 15 15 15 15 14 13 13 12 12 12 12 11 10 9 9 9 9 9 9 8 8 8 9 9 9 9 9 10 10 9 8 9 9 9 9 10 10
18 17 16 16 15 14 15 15 15 15 15 14 14 14 15 14 13 12 11 11 11 11 11 10 10 10 10 10 10 10 10 10 11 10 10 11 12 11 10 10 10 10
18 17 17 16 15 15 15 16 16 16 16 15 15 15 15 15 14 14 14 13 13 13 13 12 12 12 12 12 11 11 11 12 12 11 12 13 13 11 11 11 11 11
20 19 18 18 17 17 17 17 17 17 16 15 15 15 15 15 15 15 15 15 15 15 15 16 15 14 13 13 12 12 12 13 13 13 14 15 13 12 12 12 12 12
19 19 19 19 19 18 18 18 18 18 18 17 16 16 16 16 16 15 15 15 15 16 17 18 18 16 15 14 14 15 14 14 14 14 15 16 14 13 13 13 13 13
18 18 18 18 18 18 18 18 18 19 19 18 17 17 16 17 16 16 16 16 15 16 16 17 18 17 17 17 17 17 17 16 16 15 16 17 16 15 14 14 13 13
17 17 17 17 17 18 17 17 17 18 19 18 18 17 17 17 17 17 17 17 17 17 17 17 17 17 18 18 18 19 19 19 18 17 17 18 18 17 16 15 14 13
17 17 17 17 18 18 18 18 18 18 19 19 19 19 19 19 18 17 17 18 18 19 19 19 19 19 19 19 19 20 21 20 19 18 18 18 19 18 17 16 15 15
17 17 17 17 18 18 19 20 20 20 20 21 22 22 21 21 21 20 20 20 21 21 22 22 22 22 22 21 21 21 22 22 21 20 19 19 19 19 18 17 16 16
19 17 17 17 17 18 20 21 22 22 23 23 24 24 23 23 24 24 24 24 24 25 25 25 26 26 26 25 24 24 24 24 23 22 21 20 20 20 19 19 18 18
18 17 18 18 19 20 21 23 25 26 26 25 25 26 26 26 28 28 28 28 28 29 29 29 30 30 30 30 29 28 27 27 26 24 23 22 21 20 19 19 20 19
18 18 19 20 20 20 21 24 27 28 28 27 28 28 29 30 31 32 31 30 31 31 32 32 33 34 34 34 33 32 31 31 29 27 25 24 23 21 20 20 20 20
18 19 20 21 20 20 20 21 23 23 23 26 28 29 30 32 34 34 33 31 32 33 33 34 36 37 35 34 34 35 36 35 33 31 29 27 25 23 21 20 21 22
19 21 22 23 22 22 21 20 19 18 19 21 23 25 27 29 32 33 32 30 30 32 33 34 36 36 33 30 31 34 37 39 38 35 32 31 29 26 24 23 23 24
20 22 22 23 22 23 23 22 21 19 19 20 21 23 25 26 28 29 27 25 26 28 29 29 30 31 30 28 29 31 34 38 39 37 35 33 31 30 29 28 26 25
21 21 21 22 22 23 24 24 23 22 20 20 22 23 24 24 26 26 23 21 21 22 22 23 24 26 27 27 27 28 29 33 36 36 36 35 34 34 33 32 29 28

ECMWFNIL_700_spd_111.txt.gz
Wind_Speed
12 12 12 11 11 11 11 10 10 9 9 8 8 8 8 8 8 8 8 8 7 7 7 8 8 9 9 9 10 10 10 10 10 10 10 10 10 9 8 8 8 7
12 12 12 11 12 12 11 11 10 10 10 10 9 9 9 8 8 7 7 7 7 7 7 7 8 8 9 10 10 10 10 10 10 10 9 10 10 10 9 9 9 8
13 12 12 11 12 12 12 12 11 10 10 10 10 9 9 9 9 8 7 7 7 6 6 7 7 8 8 9 10 10 10 11 11 10 10 10 10 10 10 10 9 9
13 12 12 12 13 13 13 13 12 10 10 9 9 9 9 9 9 9 8 8 7 7 7 7 7 7 7 8 9 10 10 10 10 10 10 11 11 11 10 10 10 10
14 13 13 13 13 13 13 13 12 11 10 9 9 8 9 9 8 8 8 8 8 8 7 7 7 7 7 7 8 9 9 10 10 10 10 10 11 11 11 10 10 10
16 15 14 14 14 14 13 12 12 11 11 10 9 9 9 9 8 8 8 8 8 8 8 8 8 8 7 8 8 8 8 9 9 9 9 10 10 11 11 10 11 11
16 15 15 14 14 14 13 13 12 12 11 11 10 10 10 9 9 8 8 8 9 8 8 8 8 8 8 8 8 8 8 8 9 9 9 9 9 10 10 11 11 11
17 16 16 15 15 15 14 14 13 13 12 11 11 10 10 10 10 9 9 9 8 8 8 8 8 8 8 8 8 8 9 9 8 8 8 9 9 9 10 10 11 11
18 17 17 16 16 15 15 14 14 13 12 11 11 11 11 10 10 10 10 10 9 7 7 8 9 9 9 9 8 8 9 9 9 8 8 9 9 9 9 10 10 11
19 18 18 17 16 16 16 15 14 14 13 12 12 12 12 11 11 10 10 10 9 8 8 9 9 9 9 9 9 10 10 10 10 9 9 10 10 10 10 10 10 10
19 19 18 17 17 16 16 16 16 15 14 14 14 14 13 13 12 11 10 10 10 10 10 10 9 10 10 10 10 11 11 11 11 11 11 11 11 11 10 10 10 10
19 19 18 17 16 16 16 16 17 17 16 16 16 15 15 14 13 12 12 12 11 11 11 10 10 10 11 11 11 12 12 12 12 13 13 13 13 12 12 12 11 11
19 18 18 17 16 16 16 17 18 18 18 18 18 17 17 17 15 14 14 14 13 13 12 12 12 13 12 12 13 13 13 13 13 13 14 14 14 14 13 13 13 13
21 20 19 18 18 18 18 18 18 18 18 18 18 18 18 18 17 16 16 15 15 14 14 14 15 15 14 14 14 14 14 14 15 15 15 15 15 15 15 15 15 15
23 22 21 20 20 20 20 19 19 18 18 18 18 18 18 18 18 17 17 17 16 16 16 17 17 16 15 15 15 16 16 16 16 17 17 16 16 16 17 17 17 16
22 23 23 22 22 21 21 21 20 20 19 19 19 19 19 19 18 18 18 18 17 17 17 18 18 17 16 15 16 16 17 18 18 19 19 18 17 17 17 17 17 17
23 23 24 23 22 21 22 22 21 21 20 20 20 20 20 20 20 19 19 19 18 18 19 19 18 18 18 17 17 17 18 19 20 20 20 20 19 19 18 18 18 18
22 24 24 23 21 21 21 22 22 21 20 20 21 21 22 21 21 20 20 19 19 19 19 18 18 18 18 18 19 19 20 21 21 21 21 21 21 20 20 19 20 20
21 22 23 22 21 21 21 21 22 22 22 21 22 22 23 23 22 22 21 20 19 19 19 19 19 19 19 19 19 21 22 22 23 23 23 23 22 22 22 21 21 21
20 21 22 21 20 20 20 22 23 23 22 22 22 23 24 24 24 24 23 22 22 21 21 21 21 21 21 21 22 23 24 25 25 26 26 25 24 23 24 24 23 22
22 22 22 21 20 20 21 22 23 23 23 22 23 25 25 26 27 27 26 26 25 24 23 23 24 25 25 25 25 26 27 28 28 28 28 28 28 26 26 26 25 24
23 23 22 21 21 21 22 23 23 24 24 24 26 27 29 31 32 32 30 28 27 27 27 28 28 28 28 29 29 30 30 31 31 30 30 31 31 30 28 28 27 27
21 22 22 21 22 22 22 22 24 25 26 27 27 29 31 34 35 34 31 30 30 30 31 31 31 31 32 32 32 33 33 33 33 33 32 33 34 35 33 31 30 29
21 21 21 22 22 23 24 24 26 27 27 28 27 26 27 28 30 32 33 33 33 33 33 34 33 33 34 34 34 35 35 35 36 36 35 36 36 37 37 36 33 32
21 22 23 25 27 29 29 30 30 29 29 28 26 24 23 22 23 27 30 31 31 32 32 33 33 32 32 33 33 33 34 35 37 37 37 38 38 37 38 39 38 35
20 22 24 28 31 32 31 31 32 31 29 28 27 26 24 22 21 23 25 26 26 28 29 30 30 29 28 28 28 29 30 33 35 36 36 36 36 36 37 39 40 37

ECMWFNIL_700_spd_114.txt.gz
Wind_Speed
13 13 13 12 12 12 11 10 10 10 9 9 9 9 8 8 8 8 8 9 9 9 9 10 10 10 10 10 10 10 10 10 10 9 10 9 8 9 9 9 9 9
14 14 14 13 13 12 12 11 11 10 10 10 10 9 9 9 8 8 9 9 9 9 9 10 10 10 10 11 11 11 11 11 11 10 10 10 10 10 10 10 10 10
15 15 14 14 13 13 13 12 11 11 11 11 11 10 10 10 9 9 9 9 9 9 9 9 10 10 10 11 11 11 11 11 11 11 11 11 11 11 11 11 11 11
15 15 15 14 14 14 14 13 12 12 11 11 11 11 11 10 10 10 10 9 9 9 9 9 9 9 10 10 10 10 11 11 11 11 11 12 12 12 12 11 11 11
15 15 15 15 15 15 15 14 14 13 13 12 12 11 11 11 11 11 11 10 10 10 10 10 9 10 10 10 10 10 10 10 10 10 11 12 12 12 12 12 12 11
16 15 15 15 15 16 16 15 15 15 14 13 12 11 11 11 10 11 11 11 11 11 10 10 10 10 10 10 10 10 10 9 10 10 11 11 12 12 12 12 12 12
16 16 15 15 16 16 16 15 15 15 15 14 13 12 11 11 10 11 11 11 11 11 11 10 10 10 10 10 10 10 9 9 10 10 10 11 11 11 12 12 11 12
18 17 17 16 16 16 15 15 15 15 15 14 13 12 12 11 11 11 11 11 10 11 11 10 10 10 10 10 10 10 9 10 10 10 10 11 11 11 11 10 10 11
19 19 18 17 17 16 15 15 15 15 15 14 13 13 13 12 12 11 11 11 10 10 10 10 10 10 10 10 10 10 10 10 10 10 10 11 10 10 10 9 9 9
21 20 19 18 17 16 16 16 16 16 15 14 14 14 13 13 13 12 12 11 10 10 10 10 10 10 10 10 10 10 10 10 10 10 10 11 10 10 9 9 9 9
20 20 20 19 18 17 17 17 17 17 16 15 15 15 14 14 14 13 12 11 11 11 11 11 11 11 10 10 10 11 11 11 11 11 11 11 11 11 10 10 10 10
20 20 19 19 18 18 18 18 18 18 18 17 16 16 15 14 14 14 13 13 12 13 13 12 12 12 11 11 11 11 11 12 12 12 13 13 13 13 12 12 12 12
20 20 20 19 19 19 20 20 20 20 19 18 18 17 16 15 15 15 15 14 14 14 14 14 14 14 13 13 12 12 12 12 13 13 14 14 14 14 14 14 13 13
21 21 21 21 20 21 21 21 21 21 20 20 19 19 18 17 17 17 17 16 16 15 16 16 16 16 15 14 14 13 14 14 14 15 15 15 15 15 15 15 15 15
23 22 22 22 22 22 22 22 22 22 21 21 21 21 20 19 19 19 19 19 18 18 18 19 19 18 17 17 16 16 16 16 16 16 16 16 16 16 16 17 17 16
24 24 23 23 23 22 23 23 23 23 22 22 22 21 21 21 21 21 20 20 20 20 20 21 21 21 20 20 20 19 19 19 19 19 18 18 18 18 18 18 18 18
25 25 24 24 23 23 23 23 23 23 23 23 22 21 21 21 21 21 21 21 21 21 21 21 22 22 22 22 22 22 21 21 21 21 21 21 20 20 20 20 20 19
26 26 25 25 24 24 24 25 25 24 23 23 22 21 21 21 21 22 22 21 22 21 21 22 22 22 22 22 22 23 23 23 22 22 22 22 22 21 22 22 22 22
26 26 26 25 25 26 26 26 26 25 25 24 24 24 24 24 23 23 23 22 22 22 23 23 23 22 22 21 22 22 22 22 22 23 23 22 22 22 22 23 24 24
26 27 27 26 26 26 26 27 27 27 27 27 26 26 25 24 23 23 23 23 23 23 24 24 24 24 23 23 22 22 23 23 23 23 24 23 23 23 24 24 25 26
25 27 28 26 26 26 26 27 29 30 30 29 27 27 25 23 23 23 24 25 25 25 25 25 25 25 25 25 25 24 24 25 25 25 25 25 25 26 27 28 28 29
25 26 29 27 26 26 26 28 30 30 29 25 24 26 25 23 23 24 24 25 26 26 27 28 28 28 28 28 28 28 27 27 27 28 28 28 28 28 29 30 31 32
25 25 27 27 25 25 27 29 30 27 25 23 23 25 24 22 23 25 25 25 26 28 31 32 31 31 31 30 31 30 31 31 31 30 31 31 31 32 32 33 33 34
26 23 23 24 25 25 26 28 26 23 22 23 24 25 23 21 23 25 25 24 26 29 32 35 36 36 35 33 33 33 33 34 33 33 33 34 34 35 35 36 36 36
24 24 23 23 25 27 27 27 25 23 23 25 25 25 23 22 22 23 23 24 26 27 28 31 35 37 37 36 35 35 35 35 35 35 34 33 33 34 35 36 37 37
22 23 23 23 24 26 27 28 27 26 26 27 27 27 27 27 27 27 27 28 28 27 26 26 28 32 34 35 35 36 36 36 35 35 33 32 32 33 34 35 36 37

ECMWFNIL_700_spd_117.txt.gz
Wind_Speed
13 13 14 14 14 14 14 13 12 12 12 11 11 11 11 11 10 10 10 10 10 10 10 10 10 10 9 9 10 9 9 9 10 10 10 9 9 9 9 9 10 10
13 13 14 14 14 13 13 13 12 12 12 12 12 11 11 10 9 9 10 10 10 10 10 10 11 11 11 11 11 11 10 10 10 10 10 10 10 10 10 10 10 11
12 12 13 13 13 13 13 12 12 12 13 12 12 11 10 10 10 10 10 10 10 10 10 11 11 11 11 12 12 12 11 11 11 11 11 11 11 11 11 11 11 11
13 12 13 13 13 13 13 12 12 13 13 13 12 12 11 10 10 10 10 10 10 10 10 10 11 11 11 12 12 12 12 12 12 11 11 12 12 12 11 11 11 11
14 14 14 14 14 14 13 13 13 13 13 13 13 12 12 11 10 10 10 10 10 10 10 10 10 11 11 11 11 11 11 12 12 11 11 12 12 12 12 11 12 12
15 16 15 15 15 15 14 13 14 14 14 14 14 13 12 11 11 11 11 11 11 10 10 10 10 10 10 10 10 10 10 11 11 11 11 12 12 11 11 11 12 12
15 16 16 16 15 15 14 14 15 15 15 15 14 13 12 12 11 11 11 11 11 11 11 11 11 11 10 10 10 10 10 10 11 10 11 11 12 11 11 11 11 12
16 16 17 16 16 15 15 15 15 15 15 15 15 13 13 13 12 12 11 11 11 11 11 11 11 11 11 10 10 10 10 10 10 10 11 11 11 11 11 11 10 11
17 17 17 17 16 15 15 15 15 16 16 16 15 14 13 13 13 12 12 11 11 10 10 11 11 11 11 11 11 11 11 11 11 11 11 11 11 12 11 10 9 9
19 19 19 18 17 16 15 15 16 16 17 16 15 14 14 13 13 12 12 11 11 10 10 10 11 11 11 11 11 11 11 12 12 11 11 11 11 11 11 10 10 10
19 20 20 19 18 17 16 16 16 17 17 17 16 15 15 14 13 13 12 12 11 11 11 11 11 11 11 11 11 12 12 12 12 12 12 12 11 11 11 11 11 11
20 20 21 21 20 19 18 18 18 18 18 18 17 17 16 15 15 14 13 13 13 13 13 12 12 12 12 12 12 12 12 13 13 13 13 12 12 12 12 13 13 13
21 21 21 21 21 21 21 20 20 19 19 19 18 18 18 17 16 15 15 15 14 14 14 14 14 14 13 13 13 13 13 13 14 13 13 13 13 13 13 14 14 14
22 21 21 22 22 23 23 23 22 21 21 21 20 20 19 19 18 17 17 16 16 15 15 16 16 15 15 15 15 15 15 15 15 15 15 14 14 14 14 15 15 15
23 23 22 22 22 24 24 24 23 23 23 22 22 21 21 20 20 19 19 18 17 17 17 17 17 17 16 17 17 17 17 17 17 17 17 17 16 16 16 16 16 16
24 25 24 23 23 23 24 24 24 24 24 23 23 22 22 22 22 21 20 19 19 18 18 19 19 19 19 19 20 20 20 20 21 20 20 20 20 19 19 19 19 18
25 26 26 25 24 24 24 24 24 24 24 24 24 24 24 23 23 22 22 21 21 20 20 21 21 21 22 22 22 23 23 23 24 24 23 23 23 23 22 22 22 22
28 29 30 28 26 25 25 25 25 25 25 25 25 25 24 24 24 23 22 22 22 22 22 23 23 22 23 23 24 24 24 25 25 25 25 25 25 25 24 24 23 23
30 31 32 31 30 29 28 27 27 26 25 25 25 25 24 24 24 23 22 23 23 23 23 23 23 23 23 24 24 25 25 26 26 26 25 25 25 25 25 24 23 23
33 33 32 31 32 32 29 28 28 26 26 25 25 24 24 24 23 22 22 23 23 24 25 24 24 25 25 25 25 26 26 26 27 27 26 26 26 26 25 25 25 25
35 35 33 30 31 33 31 29 28 27 27 26 25 25 24 23 22 22 22 23 24 25 26 26 26 27 27 27 27 27 27 28 28 28 27 27 27 27 27 27 27 27
38 36 33 30 31 33 33 29 26 25 25 25 24 23 23 23 23 23 22 23 25 25 26 26 26 27 28 28 28 28 29 29 30 30 30 30 30 29 30 30 29 30
37 34 30 28 29 30 30 27 25 25 25 23 22 22 22 23 23 23 23 23 25 26 26 26 26 27 28 29 30 31 31 32 32 33 33 33 33 32 32 32 32 33
34 30 27 26 27 27 27 26 26 26 25 23 22 22 22 23 23 23 23 23 24 25 25 25 25 26 26 27 29 30 32 34 35 36 36 35 35 35 35 35 35 35
29 28 28 28 26 25 26 26 25 25 24 23 21 20 20 21 21 23 24 24 23 23 24 24 25 25 25 27 29 30 31 33 35 36 38 38 37 36 36 35 36 36
22 25 29 32 30 24 22 21 20 21 22 21 19 19 19 21 22 24 25 24 23 24 26 26 27 28 29 30 31 31 31 32 32 33 35 36 36 36 35 35 35 35

ECMWFNIL_700_spd_120.txt.gz
Wind_Speed
14 13 13 15 16 16 15 14 14 13 13 12 12 12 12 12 11 11 11 10 10 10 10 10 9 9 9 9 9 9 9 8 8 8 8 8 8 8 8 8 9 10
13 13 13 14 15 15 14 14 14 14 13 13 12 12 12 12 11 11 11 10 10 10 10 10 10 10 10 10 10 10 9 9 9 9 9 9 9 9 9 9 9 10
14 14 14 14 14 14 14 14 13 13 12 13 13 12 12 11 11 10 10 10 10 10 11 11 11 11 11 11 11 11 11 10 11 10 10 10 10 10 10 10 10 10
15 15 15 15 15 15 15 14 13 13 12 13 13 13 12 12 11 11 11 11 10 10 11 11 11 11 11 11 11 12 11 11 12 11 10 10 10 10 11 10 10 11
15 15 16 16 16 16 15 14 14 13 12 12 12 12 12 12 12 11 11 11 11 11 11 11 11 11 11 11 11 11 11 11 11 11 10 11 11 11 11 11 11 11
14 15 15 16 16 15 15 14 14 13 13 13 13 12 12 12 12 12 11 11 11 11 11 11 11 10 10 10 10 10 10 11 11 10 10 11 11 11 11 11 10 10
14 14 15 15 15 14 14 14 14 14 14 14 13 13 13 13 13 13 12 11 11 12 11 11 11 10 10 9 9 10 10 10 11 10 10 10 10 11 11 10 10 10
14 14 15 15 14 14 14 14 14 14 15 15 14 14 14 14 13 13 12 12 12 11 11 11 11 10 10 10 10 10 10 11 11 10 10 10 10 11 11 10 10 10
16 16 15 15 15 14 14 14 14 15 15 15 15 15 15 14 14 14 13 12 12 11 11 11 11 11 11 11 11 11 11 11 11 11 10 11 11 11 11 10 10 10
18 17 17 17 16 15 15 15 15 15 15 15 15 16 16 15 15 14 14 12 12 12 11 11 11 11 11 11 11 11 11 11 11 11 11 11 11 12 11 11 10 10
19 19 19 18 17 17 16 16 16 16 16 16 16 16 16 16 15 15 14 13 13 13 13 12 12 12 11 11 11 11 11 11 11 11 11 11 12 12 12 12 12 12
20 20 20 19 19 18 18 18 18 17 17 17 17 17 16 16 16 15 15 14 14 14 14 13 13 12 12 12 11 11 11 11 11 12 12 12 12 12 13 13 13 13
20 20 20 20 20 20 20 19 19 19 18 18 18 17 17 17 17 17 16 15 15 15 15 14 14 13 13 12 13 12 12 12 13 13 13 13 12 12 13 13 13 14
19 20 20 20 20 20 21 21 21 21 21 20 19 18 18 18 18 18 18 17 17 16 16 15 15 15 15 15 15 15 14 15 15 14 15 15 14 13 14 14 14 15
17 19 20 20 20 20 22 23 23 23 22 22 21 20 20 20 20 19 19 19 18 17 17 16 17 18 17 16 16 17 17 17 16 17 17 17 15 15 16 16 17 17
18 19 21 22 22 22 23 24 24 24 24 24 23 22 22 22 21 21 21 20 19 19 18 18 19 20 18 17 18 19 19 20 19 19 21 20 19 19 18 19 20 20
22 22 23 24 25 26 26 25 25 26 25 25 25 24 24 23 22 22 22 22 22 20 20 21 22 21 19 19 20 20 21 22 22 22 23 23 23 23 22 22 23 23
26 25 25 26 27 27 27 27 26 26 26 26 26 25 25 24 24 24 23 22 23 22 22 25 24 21 21 22 22 22 22 23 23 24 24 25 25 25 25 25 25 25
30 29 29 29 28 27 28 27 26 26 26 26 26 26 25 24 24 24 24 23 23 23 25 27 26 23 23 24 23 24 24 24 24 25 25 26 26 26 26 26 26 26
33 33 34 32 30 29 29 27 26 26 26 25 25 26 26 25 25 25 25 24 24 25 26 27 25 24 25 24 24 25 25 25 26 27 27 28 28 28 28 28 28 28
36 37 38 36 34 33 31 29 27 27 27 25 25 25 26 27 26 24 24 25 25 25 27 26 25 25 25 25 25 26 26 27 28 29 29 29 30 30 30 30 30 30
39 39 40 39 37 35 34 32 29 28 29 28 25 23 25 28 26 24 23 24 25 26 27 26 24 25 26 26 26 26 26 28 29 30 30 31 31 33 33 32 31 31
39 38 39 41 41 39 37 36 32 29 30 29 25 23 25 27 25 23 22 24 25 26 27 25 24 25 26 26 26 26 26 27 29 29 30 31 32 34 35 35 34 34
37 35 35 36 39 41 40 36 33 30 30 30 29 27 27 28 26 23 23 23 24 25 26 26 24 24 25 25 25 26 26 27 28 28 29 30 31 33 34 35 36 37
35 34 34 34 35 39 40 37 34 31 29 29 31 30 30 28 25 23 23 24 24 25 26 25 25 24 25 25 26 26 26 27 27 29 30 31 32 33 33 33 34 35
23 24 27 29 31 34 34 32 30 27 25 26 28 29 30 29 25 22 23 23 23 24 24 24 24 25 25 26 27 26 26 28 29 31 32 33 33 33 33 32 31 31